GFSGL_925_thetae_000.txt.gz
Theta_e
302 300 299 299 299 299 299 299 299 299 299 299 299 299 299 299 299 299 299 300 300 300 300 300 300 301 301 303 306 310 311 310 310 315 315 318 324 324 325 325 325 324 323
301 300 299 299 299 298 299 299 299 299 299 299 299 299 299 299 299 299 299 299 300 300 301 301 301 303 305 305 309 310 311 310 314 315 316 316 323 322 323 322 322 323 322
300 299 299 299 298 298 299 299 299 299 299 299 299 299 299 299 299 299 299 300 300 300 302 301 304 304 307 308 309 311 312 312 315 316 316 318 322 320 320 319 320 320 320
300 299 299 299 298 298 299 298 298 299 299 299 298 299 299 299 300 299 299 300 300 301 302 302 303 304 307 310 310 311 313 316 315 315 314 321 321 319 319 318 319 321 320
299 299 299 299 299 298 298 298 298 299 299 298 298 299 299 299 299 300 301 300 300 301 302 302 303 306 308 312 315 314 315 316 315 315 316 322 320 320 319 320 319 322 322
299 299 299 299 298 298 298 298 299 298 299 299 299 299 299 299 299 300 300 301 301 301 302 301 303 305 307 310 313 317 316 316 315 316 316 321 321 320 320 321 321 323 322
299 299 298 298 298 298 298 298 298 298 298 298 299 299 299 299 299 300 301 301 301 301 302 302 304 305 307 308 313 317 319 318 316 314 317 323 321 322 321 323 322 323 322
299 299 298 298 298 298 298 298 298 298 298 298 298 298 299 299 299 300 300 301 300 301 302 303 305 305 306 309 312 317 318 319 319 316 316 317 322 323 321 323 323 323 323
299 298 298 298 298 298 298 298 298 298 298 298 298 299 299 299 299 300 301 300 301 301 302 303 304 305 306 309 312 314 317 318 319 318 315 316 323 323 323 324 324 324 323
299 299 298 298 298 298 298 298 298 298 297 298 298 299 299 299 299 300 300 301 301 302 302 302 303 305 307 309 311 314 318 320 321 320 319 318 323 324 324 324 324 323 322
299 298 298 298 298 298 298 298 298 297 297 298 299 298 299 298 298 299 300 301 301 302 301 302 303 304 307 309 312 316 318 321 320 319 318 322 324 324 325 324 324 323 322
298 298 298 298 298 298 298 298 297 297 298 298 298 298 297 297 298 298 299 300 301 301 301 301 302 304 307 311 313 316 319 321 320 320 322 326 325 325 325 325 324 323 321
298 298 298 298 298 298 298 297 297 297 298 298 298 297 297 298 298 298 298 299 299 300 300 301 303 306 308 311 313 314 318 323 323 322 323 326 326 326 325 325 323 322 322
298 298 298 298 298 298 298 297 297 297 297 298 298 297 297 298 298 298 297 299 299 299 300 301 304 306 307 309 311 313 319 323 323 322 325 325 326 326 326 324 320 320 320
298 298 298 298 298 298 297 297 297 297 297 296 297 297 297 298 298 298 298 299 299 300 301 303 304 304 305 307 309 310 314 323 322 323 325 325 326 326 325 322 319 318 318
298 298 298 298 297 298 297 297 297 297 296 296 297 298 298 298 297 298 298 299 299 300 302 303 303 303 304 305 307 309 312 322 326 324 325 325 326 325 323 319 318 317 316
298 298 298 298 297 297 298 297 297 296 297 297 298 298 298 298 298 298 298 298 299 301 303 302 302 302 302 303 305 307 310 314 325 326 326 325 325 324 321 319 318 316 316
298 298 298 298 298 298 297 297 296 297 297 297 298 298 299 299 298 297 298 298 300 301 302 302 301 301 301 302 304 306 309 314 326 326 325 325 324 322 321 319 318 316 316
298 297 297 297 297 297 297 297 297 297 297 297 297 298 298 298 297 297 297 297 299 300 301 302 301 300 301 301 303 305 308 312 320 324 324 324 323 321 320 320 318 317 317
297 297 297 297 297 297 297 297 297 297 296 296 297 298 297 298 298 297 297 297 298 300 300 302 300 300 300 301 302 304 308 312 322 324 323 322 322 321 320 319 317 316 317
296 296 296 295 296 298 297 298 297 296 296 296 296 296 297 298 298 296 296 296 297 299 299 301 300 299 300 300 302 303 307 309 313 323 321 321 321 320 320 319 317 317 317
295 295 295 296 297 297 296 296 296 296 296 296 296 296 296 296 297 296 296 296 297 299 299 300 300 299 299 300 301 303 305 307 310 323 322 321 321 321 321 319 318 317 316
295 296 296 295 294 295 294 295 295 295 294 294 295 295 296 296 297 297 295 296 297 299 299 300 300 299 299 300 301 303 304 305 306 313 323 321 322 322 322 319 318 317 316
296 295 294 294 293 294 293 294 294 294 295 295 295 295 296 296 297 296 296 296 297 299 299 300 300 299 299 300 301 303 304 309 311 316 323 322 322 322 321 319 318 318 317
293 293 293 293 293 293 293 293 293 293 294 295 295 295 296 296 296 296 296 296 298 298 300 300 300 299 299 299 301 303 306 310 311 318 323 322 323 323 320 319 318 318 317
293 293 292 292 293 292 292 293 293 293 294 294 295 295 295 296 295 295 296 297 298 298 299 299 299 298 298 298 299 303 306 309 311 317 322 322 322 322 319 319 317 317 316

GFSGL_925_thetae_003.txt.gz
Theta_e
303 303 302 300 299 299 299 299 298 298 299 299 299 299 299 299 299 299 299 299 299 299 299 300 301 301 302 301 302 303 303 304 306 307 309 309 309 312 325 329 328 329 328
304 303 301 299 299 299 299 298 298 298 299 299 298 299 299 299 299 299 299 299 299 299 299 300 300 301 302 302 302 303 305 306 308 310 311 311 314 314 321 327 327 328 328
303 302 300 299 299 298 298 298 298 298 298 298 299 299 299 298 298 299 299 299 300 299 300 300 301 301 302 302 304 306 308 310 310 310 311 309 313 316 323 326 327 327 327
302 301 299 299 299 298 298 298 298 298 298 298 299 298 299 298 299 299 299 300 300 301 301 301 301 302 301 303 306 308 310 310 311 312 312 311 315 317 321 324 324 325 325
301 300 299 299 299 298 298 298 298 298 298 299 299 298 298 299 299 299 300 300 301 301 301 301 302 302 303 305 309 310 312 312 312 312 314 315 315 315 321 323 321 322 323
301 300 299 299 298 298 298 298 298 298 298 298 298 298 298 298 299 300 300 301 301 301 301 300 301 302 303 306 307 310 313 313 314 315 315 315 316 318 320 320 320 320 321
300 299 299 299 298 298 298 298 298 298 298 298 298 298 298 298 299 300 301 301 301 301 301 301 301 302 303 303 306 309 311 316 315 315 315 315 315 318 320 319 320 320 320
299 299 299 298 298 298 298 298 298 297 297 298 297 297 297 298 299 300 300 301 300 300 300 301 301 303 301 304 307 309 310 313 317 316 315 315 314 318 319 319 320 319 319
299 298 298 298 298 298 298 298 297 297 298 297 297 297 298 299 299 300 300 299 300 300 300 302 302 302 301 306 308 309 310 312 315 317 316 316 315 316 320 319 321 320 319
298 298 298 298 298 298 298 298 297 297 297 297 297 297 298 298 297 298 298 299 299 300 301 301 300 301 304 306 308 310 312 314 318 319 318 318 316 316 320 320 321 321 318
298 298 298 298 298 298 298 298 297 297 297 297 297 298 298 297 297 297 298 299 299 300 300 299 300 301 304 306 309 311 315 317 318 320 320 318 316 317 321 322 322 320 318
299 298 298 298 298 298 298 297 297 297 296 297 297 297 297 297 296 297 298 299 299 299 299 299 299 302 304 307 308 310 313 316 321 321 320 320 319 320 322 323 322 321 319
298 298 298 298 298 298 297 297 297 297 296 296 297 297 296 296 296 297 298 297 298 299 299 299 301 303 304 305 306 308 311 316 321 320 319 320 321 323 323 323 323 322 320
298 298 298 298 298 297 297 297 297 297 296 296 296 295 295 296 296 297 298 298 298 299 299 300 302 303 302 304 304 306 308 313 321 320 320 322 324 323 324 324 323 322 320
298 298 298 298 297 297 297 297 297 297 297 297 297 297 297 297 297 298 298 299 299 298 299 301 302 301 301 302 303 304 306 310 323 322 322 323 325 324 325 324 323 321 320
298 298 298 297 297 297 297 297 297 297 297 296 297 298 298 299 299 299 300 298 298 299 300 301 302 301 301 301 302 303 304 308 314 323 323 324 326 325 325 323 321 321 319
298 297 298 298 297 297 297 296 296 297 296 296 297 298 298 299 300 300 299 298 298 299 299 300 301 302 300 301 301 302 303 305 310 321 324 326 326 326 324 322 321 321 318
298 298 298 297 297 297 297 297 296 296 296 297 297 297 297 299 299 299 298 297 297 297 298 299 300 301 300 300 301 302 303 305 311 322 324 326 326 326 322 320 320 318 316
298 297 297 297 297 297 297 296 296 296 296 297 296 296 296 297 297 298 298 296 296 297 297 299 299 301 299 299 300 301 303 306 311 317 325 325 326 323 320 319 319 317 316
297 297 297 296 296 295 296 297 297 297 297 296 295 296 296 296 297 297 297 296 296 296 297 298 299 300 299 299 300 301 303 306 311 318 326 325 324 322 319 319 317 316 315
296 296 295 295 295 296 297 297 297 296 295 296 296 296 296 297 296 296 297 296 296 296 297 298 299 300 299 299 300 301 302 305 307 310 325 325 323 322 319 318 317 316 315
295 294 295 296 297 295 295 296 295 296 296 295 295 294 295 295 295 296 297 297 296 296 297 298 299 300 299 299 300 301 302 304 305 307 318 324 322 321 319 317 316 317 316
295 296 296 294 294 294 293 293 294 294 294 295 295 295 295 295 296 297 297 296 296 296 298 298 300 300 299 299 299 300 301 303 303 305 308 322 321 320 318 317 317 316 315
296 294 293 292 292 293 293 293 293 293 294 294 294 295 295 296 296 296 296 296 296 297 299 299 300 299 298 298 298 299 302 304 306 306 311 321 320 320 318 317 317 316 315
293 292 292 292 292 292 292 292 293 293 293 293 294 295 295 295 296 295 295 296 297 298 298 299 299 299 298 298 298 299 304 306 307 309 315 319 320 319 318 317 316 316 315
293 292 292 292 292 292 293 293 293 292 292 293 294 294 294 295 295 295 296 296 297 298 298 299 299 299 297 298 298 301 304 306 310 314 317 321 321 320 318 317 316 316 315

GFSGL_925_thetae_006.txt.gz
Theta_e
303 302 303 301 301 300 299 299 299 298 298 298 298 299 298 298 298 298 298 298 298 298 299 299 299 299 299 300 301 301 301 301 302 303 303 304 306 306 307 309 313 324 329
303 303 303 302 301 299 299 299 298 298 298 298 298 298 298 298 298 298 298 298 298 299 299 299 299 299 300 300 301 302 301 301 303 305 304 306 308 309 309 311 314 327 329
304 304 303 301 300 299 299 298 298 298 298 298 297 298 298 298 298 298 298 298 298 299 300 300 300 300 300 301 302 302 303 304 305 306 307 309 310 308 308 311 314 328 329
304 303 303 302 300 299 299 298 298 298 298 297 298 298 298 298 298 298 298 299 300 300 300 300 301 301 301 301 303 303 304 308 309 309 309 310 310 308 310 314 318 328 329
303 303 303 301 299 299 298 298 298 298 297 297 298 298 297 297 297 298 299 300 300 301 301 301 300 300 302 302 303 304 304 307 311 311 312 312 311 310 311 314 323 327 328
302 302 301 300 299 298 298 298 298 297 297 298 297 297 297 297 297 299 300 301 301 300 300 300 300 300 301 303 303 304 306 310 312 312 312 311 311 312 314 314 322 326 326
301 301 300 299 298 298 298 298 297 297 297 297 297 297 297 296 297 299 300 301 300 299 299 299 300 300 302 302 301 303 307 309 311 314 313 313 314 314 315 316 321 325 324
299 300 299 299 298 298 298 297 297 297 297 297 297 297 297 296 297 299 299 299 298 298 299 299 300 301 301 301 302 305 306 308 310 312 313 314 314 314 315 321 323 324 323
298 299 299 298 298 297 297 297 297 297 297 297 297 297 296 297 298 299 299 298 298 298 299 299 301 300 300 301 304 306 307 309 312 314 315 314 315 315 315 319 322 320 321
298 299 298 298 298 297 297 297 297 297 297 297 297 296 296 297 297 298 298 297 298 299 299 299 299 299 300 303 305 306 308 309 313 316 317 315 315 316 316 318 321 320 320
299 298 298 298 298 297 297 297 297 297 297 296 296 296 296 297 297 297 297 298 298 298 298 298 298 299 301 304 305 305 307 309 310 314 318 317 317 317 316 319 320 320 319
298 298 298 298 298 297 297 297 297 297 296 296 296 296 297 297 295 296 297 298 298 298 298 298 299 300 302 304 303 305 306 307 310 315 318 319 318 317 316 319 320 319 318
298 298 298 298 297 297 297 297 297 296 296 296 295 296 296 296 296 296 297 298 299 299 299 299 299 301 303 302 302 304 304 304 306 309 319 319 318 317 317 320 321 319 317
298 298 297 297 297 297 297 297 296 296 296 295 295 296 296 296 297 297 297 298 298 299 298 299 300 301 302 302 301 301 302 303 305 309 318 319 319 318 320 322 321 319 317
298 297 297 297 297 297 297 297 297 297 297 297 296 297 297 297 298 299 300 300 300 298 299 299 300 300 301 301 300 301 302 302 304 314 319 320 320 320 322 322 322 319 317
297 296 297 297 297 297 297 297 297 297 297 297 297 298 298 298 299 299 300 300 298 298 298 298 298 299 300 301 300 300 301 302 303 306 319 320 321 322 322 322 322 319 317
297 297 297 297 297 297 296 296 296 297 297 296 296 297 298 297 298 299 299 299 299 297 296 296 297 299 300 301 299 300 300 301 303 305 314 321 321 323 323 323 321 320 317
297 297 297 297 297 296 296 296 296 295 295 296 296 296 296 297 297 298 298 298 297 296 296 296 297 298 300 300 299 299 300 301 303 306 310 322 322 324 324 322 322 320 317
297 297 297 296 296 296 296 296 295 295 296 296 297 296 295 295 296 297 297 296 296 295 295 295 296 298 299 300 299 299 300 301 303 306 312 323 324 325 323 322 322 319 317
297 297 297 296 296 295 295 295 296 297 297 296 295 295 294 295 296 296 295 296 296 295 295 295 296 298 299 300 299 299 300 301 303 305 307 323 325 324 323 322 321 317 316
296 296 296 295 295 296 297 297 296 296 295 296 296 295 295 296 295 295 295 296 296 296 295 296 297 298 299 299 298 299 299 301 303 304 305 314 325 323 322 321 319 316 316
295 295 295 295 296 295 295 295 294 294 294 294 294 294 294 295 295 295 296 296 296 295 295 296 298 298 300 299 298 299 299 300 302 303 303 306 323 321 321 320 317 316 315
295 295 296 294 293 293 293 293 293 293 293 293 294 294 294 295 295 295 296 296 295 295 296 298 298 299 299 299 297 298 298 299 301 301 301 304 317 320 319 317 316 315 314
296 294 293 292 292 293 292 292 293 293 293 293 293 293 294 295 295 295 295 294 295 296 297 298 298 299 299 298 298 298 298 301 303 301 303 305 315 319 318 317 316 315 314
293 292 292 292 292 292 292 292 292 293 293 292 292 293 294 294 294 294 294 295 296 296 297 298 298 298 298 298 298 298 300 303 305 305 308 312 316 319 318 317 316 315 313
292 292 292 292 292 292 292 292 292 292 292 291 292 292 294 294 294 294 294 296 296 297 297 298 298 298 298 297 298 299 301 303 305 309 311 314 318 318 317 317 316 315 313

GFSGL_925_thetae_009.txt.gz
Theta_e
301 301 301 302 301 301 300 299 299 299 298 298 298 298 298 298 297 298 298 298 298 298 298 298 298 299 298 299 299 299 300 301 302 301 301 300 301 302 302 304 307 308 310
301 301 301 302 301 301 300 299 299 298 298 298 298 298 298 297 297 298 298 297 298 298 298 298 299 299 299 300 299 299 300 301 302 302 301 301 302 304 304 305 307 309 311
301 301 301 301 301 301 300 299 298 298 298 298 298 297 297 297 298 297 297 297 298 298 299 299 300 300 300 300 300 299 301 302 303 303 304 305 305 306 306 308 310 311 310
301 301 301 301 302 301 301 299 298 298 298 297 297 297 297 298 297 297 297 298 299 300 300 300 300 300 300 300 301 301 303 304 303 304 305 308 306 307 309 309 310 310 314
301 301 301 302 303 302 300 298 298 298 298 297 297 297 297 297 297 297 298 299 300 300 300 299 299 300 302 302 302 303 303 303 304 305 309 309 308 310 310 310 311 312 317
301 301 301 302 303 301 299 298 298 298 297 297 297 297 297 296 296 298 299 300 300 299 297 298 298 299 299 301 302 302 302 304 306 308 310 311 311 310 310 310 310 312 327
301 301 301 302 302 301 298 298 298 297 297 297 297 296 296 296 296 298 299 300 299 298 297 298 298 298 300 300 300 301 302 305 307 309 311 312 310 310 311 313 313 314 326
300 300 300 301 301 299 298 297 297 297 297 297 297 296 296 296 296 298 299 299 298 298 297 298 298 299 300 300 300 302 304 305 306 309 311 312 312 311 313 314 315 315 326
299 299 299 300 299 298 297 297 297 297 297 297 297 297 296 296 296 298 299 298 298 297 298 298 298 299 298 300 301 304 305 304 305 308 309 313 313 313 314 315 317 322 325
298 299 300 300 300 298 298 297 297 297 297 297 297 296 296 296 296 297 298 298 297 297 297 297 297 298 299 300 302 305 303 304 307 307 309 315 315 314 314 315 317 324 324
298 299 300 300 299 298 297 297 297 297 297 297 296 296 296 296 296 296 298 298 298 298 298 298 298 298 299 301 303 303 304 306 305 305 310 316 315 315 315 316 318 323 322
298 298 299 298 298 297 297 297 297 297 296 296 296 296 296 296 296 296 297 298 298 299 299 299 299 299 300 302 302 303 304 304 303 305 307 316 316 316 316 316 320 322 321
297 297 298 297 297 297 297 297 296 296 295 295 295 295 296 296 296 296 297 298 299 300 300 300 299 299 300 300 302 303 302 301 303 304 305 307 317 317 317 317 319 320 320
296 297 297 297 297 297 297 297 296 296 295 295 295 295 295 296 297 297 298 299 300 300 299 298 298 298 299 300 301 301 300 301 302 304 305 306 316 318 317 318 319 318 316
297 297 297 297 297 297 296 296 296 296 296 296 296 296 297 297 297 298 299 300 300 299 299 297 296 297 297 299 301 300 299 300 301 302 304 309 318 318 318 320 319 317 316
296 296 296 296 297 297 296 296 296 296 296 297 297 298 298 298 298 298 299 299 300 300 299 296 295 296 297 299 300 300 299 300 301 302 304 309 319 318 319 321 319 317 315
297 296 296 296 296 296 296 296 296 296 296 296 296 297 297 298 298 297 298 298 299 299 296 295 295 295 296 298 300 300 299 299 300 302 304 308 319 319 319 321 319 317 315
297 297 297 296 296 296 296 296 296 295 295 295 296 296 296 296 296 297 298 297 295 296 295 295 295 295 296 298 300 299 298 299 300 302 304 309 319 320 321 322 319 317 315
297 297 296 296 296 296 296 296 295 295 295 295 296 296 294 294 294 295 295 295 295 295 295 295 295 295 296 298 300 299 298 299 300 301 304 306 314 320 322 321 319 317 315
297 297 297 296 296 296 295 295 294 295 296 296 295 295 295 294 295 295 294 295 295 296 295 295 295 295 297 298 299 298 298 299 299 300 302 304 307 321 322 321 319 317 315
297 297 296 296 295 295 296 296 296 295 295 294 294 294 295 295 295 294 295 295 295 296 295 295 295 296 297 298 299 298 298 299 299 300 301 303 304 320 323 322 319 317 314
297 296 295 295 295 296 295 294 293 293 293 293 294 293 294 294 294 294 295 295 295 295 295 295 296 298 298 298 299 298 298 298 299 299 301 301 302 310 322 321 318 316 314
295 295 295 295 294 294 293 293 293 293 293 293 293 293 293 293 294 295 294 295 294 294 295 296 297 298 298 298 298 298 297 298 298 299 299 300 302 309 322 320 318 316 315
295 295 293 293 292 292 292 291 292 292 293 293 292 292 292 294 294 294 294 293 295 295 295 295 297 297 298 298 298 297 298 299 299 300 299 299 301 309 320 318 318 316 314
294 293 292 292 292 292 292 292 292 292 292 292 291 292 292 293 294 293 293 294 295 296 296 296 297 297 297 298 298 297 298 300 301 302 300 302 305 310 319 318 317 315 312
292 292 292 292 292 292 291 292 292 292 292 292 291 291 292 292 293 293 293 293 294 295 296 296 297 297 298 298 298 298 299 299 301 304 307 309 311 313 318 317 315 313 312

GFSGL_925_thetae_012.txt.gz
Theta_e
301 301 301 301 302 302 302 301 300 299 299 299 299 298 298 298 298 297 297 297 297 297 297 297 298 298 298 299 299 299 298 298 299 299 300 301 302 302 301 301 302 302 303
301 301 301 302 302 302 301 301 300 299 299 299 298 298 298 298 297 297 297 297 297 297 297 298 299 299 299 299 299 299 298 299 299 300 301 302 303 303 302 303 303 303 305
300 300 300 301 301 301 301 301 300 299 298 298 298 297 297 297 297 297 297 296 296 297 298 299 299 300 299 299 299 299 299 299 299 300 302 302 302 303 303 304 304 304 305
300 300 299 300 301 302 301 301 300 299 298 298 297 297 297 297 297 297 296 296 297 298 299 300 300 298 298 299 300 301 301 301 302 303 302 303 304 305 307 306 306 306 307
300 299 299 300 301 301 301 301 300 298 298 298 297 297 297 297 297 296 297 298 298 299 300 299 298 298 299 299 300 300 301 301 301 303 303 305 305 307 307 307 308 309 309
299 299 299 299 300 301 301 300 299 298 298 297 297 297 297 297 296 297 298 299 299 299 299 298 297 297 298 299 300 300 301 301 302 304 306 306 308 310 309 309 309 310 312
300 300 299 299 299 300 301 300 298 297 297 297 297 297 297 296 296 298 298 299 299 298 298 297 297 298 298 298 298 300 300 301 304 306 307 306 310 311 310 310 310 311 313
300 299 299 299 298 299 300 300 298 297 297 297 296 297 296 296 296 297 298 299 299 298 297 297 297 297 298 298 299 300 300 302 304 304 306 308 309 311 310 310 311 312 314
300 299 299 299 298 299 298 299 297 297 296 296 297 296 296 296 296 296 299 299 297 297 297 297 297 297 297 299 299 300 302 303 303 306 306 306 310 314 312 313 313 315 317
300 299 299 299 299 298 299 298 297 297 297 297 297 296 296 296 296 295 299 298 298 297 298 298 297 298 298 299 300 301 303 302 305 304 303 305 310 314 313 314 315 318 319
301 299 298 298 299 300 299 298 297 296 296 296 296 296 296 296 296 296 298 298 298 298 298 298 298 299 300 300 301 301 302 305 302 302 303 305 310 314 315 314 315 317 322
298 297 297 298 298 299 298 297 296 296 296 296 296 296 295 295 295 296 297 298 298 298 298 299 300 299 299 300 300 301 304 302 301 302 303 305 308 315 315 315 316 319 322
296 296 296 296 297 298 297 296 295 296 296 295 295 295 295 295 296 296 297 298 299 300 300 300 299 298 298 298 299 301 302 300 300 302 303 304 305 308 315 316 317 320 321
295 294 295 295 295 296 296 296 296 295 295 295 294 294 295 295 296 296 297 298 299 299 300 298 298 296 296 297 298 300 301 300 300 301 302 302 304 309 316 316 318 317 317
294 294 295 296 296 295 296 296 296 296 296 295 295 295 295 296 297 297 299 299 299 300 300 300 297 295 295 296 298 299 300 299 300 300 301 303 305 308 317 317 318 318 317
294 295 296 295 295 296 296 295 295 296 296 296 296 296 297 297 298 299 298 298 299 299 299 298 295 294 295 295 297 298 299 299 299 300 301 303 305 310 318 319 317 317 315
295 296 296 296 296 296 295 295 295 296 298 297 297 297 298 298 298 297 297 298 298 298 297 295 294 294 295 295 296 298 299 298 298 300 301 302 305 310 318 319 317 316 314
298 298 297 297 296 295 295 295 296 295 295 295 295 296 296 297 296 296 297 297 295 294 295 295 294 294 294 295 296 298 299 298 298 300 300 301 304 307 318 320 317 316 313
298 297 297 297 296 296 296 296 295 295 295 295 296 296 295 294 294 294 295 295 294 294 295 295 295 294 295 295 297 298 299 298 298 300 300 301 303 305 318 319 317 315 313
297 296 296 296 296 295 295 295 295 294 295 295 295 295 294 294 294 294 294 294 295 295 295 295 294 294 295 296 297 298 299 298 298 299 300 300 302 304 311 319 317 315 314
297 297 296 296 296 295 295 294 295 296 296 294 294 294 295 295 295 295 294 294 294 295 295 295 295 295 296 297 298 298 299 298 298 299 299 300 301 302 305 320 317 315 314
297 297 296 295 295 295 296 295 294 293 293 293 293 292 293 294 294 294 294 294 294 294 294 294 295 296 297 297 298 298 298 297 298 298 299 299 300 301 304 314 317 316 314
296 295 294 295 295 295 294 293 293 293 293 293 293 292 292 292 293 294 294 294 293 294 295 295 295 295 296 297 297 297 297 297 298 298 298 299 299 300 303 311 317 316 314
295 295 294 293 293 292 291 291 292 292 292 292 292 292 292 292 293 293 293 293 293 294 295 295 296 296 297 297 297 297 297 298 298 298 298 298 298 299 302 310 317 315 315
295 293 292 292 293 292 292 292 292 292 292 292 291 290 291 292 292 293 293 293 293 293 294 295 296 296 297 297 297 297 297 298 298 298 299 298 301 300 303 313 317 315 313
292 292 292 292 292 291 291 291 291 292 292 292 292 291 291 291 291 292 292 292 292 294 294 295 296 296 297 297 298 297 298 298 298 299 301 302 303 305 308 317 317 315 312

GFSGL_925_thetae_015.txt.gz
Theta_e
302 302 302 301 301 302 303 303 302 301 300 300 299 299 298 298 298 298 298 297 297 297 297 296 297 297 298 299 299 299 300 300 302 301 300 301 301 301 302 302 303 303 303
302 302 302 301 301 301 301 302 302 301 300 299 299 299 298 298 298 297 297 297 297 297 297 297 297 298 299 299 300 300 300 300 300 302 301 301 301 302 303 303 303 303 303
301 301 301 300 300 301 301 302 301 300 300 299 299 299 298 298 297 297 297 297 297 296 296 298 299 299 300 300 299 299 300 300 300 301 301 301 302 302 303 303 304 304 304
301 301 300 300 300 300 301 301 301 300 299 299 299 298 298 297 297 297 297 297 296 296 297 298 299 300 299 299 300 300 300 301 301 301 302 302 302 303 303 304 305 306 305
300 300 300 300 300 300 300 300 301 300 299 298 298 298 297 297 297 297 297 296 297 298 298 299 299 299 300 299 299 299 300 301 301 301 302 302 302 304 306 306 307 307 307
300 300 300 299 299 299 299 299 300 300 298 298 298 297 297 297 297 297 296 298 298 299 300 300 299 298 298 298 299 299 299 300 301 301 302 303 305 304 305 307 309 309 310
301 300 300 299 299 298 299 299 298 299 298 297 297 297 297 296 297 298 299 299 299 299 299 298 298 297 298 298 298 299 299 300 301 302 303 304 304 305 306 307 309 309 310
301 300 300 299 299 298 298 298 298 298 297 297 297 297 296 297 296 299 299 299 299 299 298 297 297 298 298 298 299 299 299 300 300 302 304 305 306 306 306 308 310 311 310
301 301 300 299 299 298 298 298 297 297 296 297 297 296 296 296 296 299 299 299 299 298 297 297 297 298 298 300 299 300 301 301 301 302 305 304 305 306 311 311 311 311 311
302 301 300 299 299 298 298 297 297 297 296 296 296 296 297 296 296 296 299 298 298 298 298 298 297 299 300 301 300 300 301 301 302 303 302 303 304 308 313 313 312 312 315
303 301 300 299 299 298 298 297 297 296 296 296 296 296 296 296 296 296 296 299 298 298 298 298 298 299 301 300 300 300 301 302 301 301 302 303 304 309 314 314 314 314 316
302 301 299 299 298 297 297 296 296 296 296 296 296 295 295 296 296 295 297 299 299 299 299 299 300 300 300 298 299 300 301 303 300 301 302 303 303 305 310 315 315 316 317
302 300 298 298 298 296 296 296 295 296 296 295 295 295 295 295 295 296 298 299 299 299 300 300 301 300 298 297 298 299 300 301 300 301 301 302 303 304 310 316 317 319 320
299 298 297 297 295 296 296 296 295 295 295 295 295 295 295 295 295 296 296 296 298 299 299 300 299 299 296 295 297 299 299 300 300 300 301 302 303 305 309 315 318 318 319
297 295 295 296 295 295 295 295 295 296 296 296 295 295 295 295 295 296 296 299 299 299 299 300 299 297 296 296 297 298 298 300 299 300 300 302 303 305 308 317 317 318 317
295 295 296 295 295 295 295 295 295 297 296 296 296 296 295 296 297 297 299 299 298 299 299 299 298 296 296 296 296 298 298 300 299 299 300 301 302 305 308 317 317 318 315
296 296 296 295 295 296 296 296 297 296 295 296 296 296 297 297 298 298 298 297 298 298 297 297 296 296 295 296 296 297 298 300 299 299 300 301 302 303 306 318 317 316 314
298 297 296 296 296 296 296 296 296 297 297 297 298 298 298 298 297 295 296 297 297 294 294 295 296 295 295 295 296 297 298 300 299 299 299 301 301 303 305 315 317 315 314
298 297 297 297 297 297 296 296 296 295 295 295 295 296 297 296 294 295 296 296 295 294 295 295 295 295 295 295 295 296 298 299 299 298 299 300 301 302 304 309 317 314 314
297 297 296 296 296 296 295 295 294 295 295 295 296 295 294 294 294 294 294 293 294 295 295 295 295 295 294 294 297 297 298 299 299 298 298 299 300 301 302 305 316 313 314
297 297 296 296 295 295 295 295 295 295 295 296 295 294 294 294 295 294 295 293 294 295 295 295 295 295 295 296 297 298 298 299 299 298 298 299 299 300 301 303 314 314 315
297 296 295 295 295 295 295 295 296 295 294 294 294 293 293 295 294 294 294 293 294 294 294 294 295 295 296 296 296 297 298 298 298 298 298 298 298 299 300 302 310 315 314
297 295 295 295 295 296 295 294 293 293 293 293 293 292 292 292 293 294 294 294 293 293 293 295 295 295 295 296 296 296 297 298 298 298 297 297 298 299 299 301 306 316 315
295 295 295 295 294 293 293 292 293 292 293 293 293 292 291 292 292 293 293 293 293 293 292 293 294 295 296 296 296 297 297 297 297 298 297 297 297 298 299 300 304 316 315
295 294 294 294 292 292 292 292 292 292 292 292 291 290 291 291 292 292 292 292 292 292 294 294 295 295 296 296 297 297 297 297 298 297 297 298 297 297 298 300 304 316 315
293 293 292 292 292 291 291 292 292 292 292 292 292 291 291 292 291 291 291 292 292 292 293 294 295 296 297 297 297 297 297 298 297 296 297 298 298 299 302 303 307 315 314

GFSGL_925_thetae_018.txt.gz
Theta_e
309 309 308 309 309 309 309 308 307 306 305 304 303 303 302 301 301 301 301 301 301 300 300 300 300 299 299 299 300 301 301 302 304 303 302 302 301 301 302 302 303 303 304
308 308 307 308 308 308 308 308 307 306 305 304 303 302 302 301 301 301 300 300 300 300 300 300 299 298 299 300 301 302 302 302 302 303 302 301 302 302 302 303 304 304 304
307 307 306 307 307 307 307 307 306 305 304 303 303 302 301 301 301 300 300 300 299 299 299 299 298 299 300 301 301 301 301 301 301 302 303 302 302 303 303 303 303 304 304
307 306 306 306 306 306 307 306 306 305 304 303 302 302 301 301 300 300 300 299 299 299 299 298 299 300 301 301 301 301 301 301 301 302 302 302 301 302 303 303 303 304 306
308 306 305 305 305 305 306 306 305 304 304 303 302 301 301 300 300 300 299 299 299 299 299 299 300 301 301 301 300 300 300 301 300 301 302 302 303 303 304 303 306 305 305
310 307 305 304 305 305 305 305 305 304 303 302 302 301 300 300 299 299 299 299 299 299 299 300 300 300 300 299 299 300 300 300 301 301 302 303 304 303 303 304 305 306 306
309 306 305 304 304 304 305 305 304 303 303 302 301 301 300 300 299 300 297 299 300 300 300 300 300 299 299 299 299 299 300 300 301 301 302 303 302 303 304 305 306 306 307
307 305 305 304 304 304 304 304 304 303 303 302 301 300 300 300 300 301 301 300 300 300 300 300 299 299 299 299 299 301 301 300 301 302 302 303 303 304 306 305 306 307 307
306 304 304 304 303 303 304 304 303 303 302 302 301 300 300 300 300 301 301 300 300 300 300 299 299 299 299 300 301 301 301 301 301 302 303 305 305 305 305 306 310 310 312
303 301 302 304 303 303 303 303 303 303 302 301 300 300 300 299 298 300 300 299 299 299 299 299 299 299 300 301 301 300 300 301 301 302 303 303 303 303 304 312 312 312 312
301 299 300 303 303 303 302 303 303 302 302 301 300 300 299 299 299 300 300 299 299 299 299 300 300 299 300 301 301 299 300 301 302 303 302 302 303 303 304 310 313 311 312
298 298 300 303 302 302 302 303 302 302 301 300 300 299 299 299 298 299 300 299 299 299 300 300 300 300 301 301 299 299 300 301 302 302 302 302 302 303 305 311 316 316 317
297 301 305 303 301 301 302 302 302 301 301 300 300 299 299 298 298 298 299 299 300 300 300 300 300 301 301 300 298 298 300 300 301 301 301 302 302 303 307 313 318 319 320
299 304 304 302 302 301 301 301 301 301 300 300 300 299 299 298 297 298 298 299 299 299 299 300 300 300 300 299 298 299 299 300 301 300 301 301 302 305 309 313 318 319 320
300 302 301 302 301 301 300 300 300 300 300 299 299 299 298 298 297 298 297 298 298 299 299 300 300 300 300 298 298 298 299 299 301 300 300 301 302 304 306 311 318 318 317
298 299 299 300 299 299 299 299 299 299 298 298 298 298 297 297 297 296 297 297 299 299 299 299 299 300 299 298 298 298 299 299 301 300 300 301 302 303 305 309 318 317 316
297 297 298 298 298 298 298 298 299 297 297 296 296 296 296 297 298 298 299 299 298 298 298 299 299 298 298 297 297 297 298 299 301 300 299 300 301 302 304 307 317 316 315
297 297 295 298 298 299 300 299 299 299 299 299 297 298 299 297 298 298 298 297 297 298 297 297 297 297 297 296 297 297 298 298 300 300 298 299 300 302 303 306 311 314 313
298 298 298 298 299 299 299 300 300 299 299 299 298 298 297 298 298 297 296 296 298 297 296 297 297 297 297 296 296 297 297 299 300 300 299 299 300 301 302 303 305 315 314
299 299 298 298 298 298 298 298 297 297 297 296 296 296 297 297 296 296 296 296 296 296 296 296 297 297 297 296 297 298 299 299 300 300 299 298 299 300 301 302 304 315 316
299 298 298 298 297 297 297 297 297 297 296 296 296 297 296 296 296 296 296 296 295 295 296 296 296 296 296 297 298 298 298 299 299 299 299 298 299 299 300 301 302 308 316
297 297 297 297 296 296 296 296 296 296 296 296 297 296 295 295 296 296 295 295 295 295 295 295 296 296 296 297 297 298 298 298 299 299 299 298 298 298 299 300 301 305 315
295 296 296 296 296 296 296 296 297 297 297 296 296 295 294 294 294 295 295 295 295 295 295 295 295 296 296 297 297 298 298 298 299 299 298 297 297 298 298 299 300 303 315
296 296 297 297 297 297 296 296 295 295 295 295 294 294 293 293 294 294 295 295 295 295 295 294 295 295 296 297 297 297 298 298 298 297 297 296 296 297 298 298 300 302 309
296 296 296 296 295 295 294 294 294 294 294 294 293 292 292 292 293 293 294 294 294 294 294 294 294 296 297 297 297 297 298 297 297 297 297 296 296 297 297 298 299 302 307
295 295 295 294 294 293 293 293 293 293 293 293 292 292 292 292 293 292 292 293 294 294 294 294 295 296 296 297 297 296 296 297 297 297 296 296 297 297 298 300 302 302 306

GFSGL_925_thetae_021.txt.gz
Theta_e
314 312 311 312 313 313 314 315 315 313 311 309 308 307 306 305 305 304 303 303 303 303 303 302 302 301 301 301 300 301 302 302 304 304 304 303 303 302 302 303 303 303 303
313 313 310 310 311 311 312 313 314 313 311 309 308 307 306 305 304 303 303 303 303 303 302 302 302 301 301 300 301 302 303 303 303 304 303 303 303 302 303 303 303 303 304
311 312 311 309 309 310 311 312 312 312 310 308 307 306 306 305 304 303 303 303 302 302 302 301 301 301 300 300 301 302 303 303 302 303 303 303 303 303 303 302 302 303 304
309 311 312 309 308 309 309 310 311 311 310 308 307 306 305 304 303 303 302 302 302 301 301 301 300 300 300 301 302 302 302 302 302 302 302 302 302 302 303 304 305 305 304
310 310 311 310 307 308 308 309 310 310 309 308 307 305 305 304 303 303 302 302 301 301 301 300 300 300 301 302 302 302 302 301 302 301 302 302 302 303 303 304 304 303 303
310 310 310 309 307 307 307 308 309 309 309 307 306 305 304 303 303 302 302 301 301 301 301 300 300 301 302 302 302 301 301 301 301 301 301 301 302 303 303 303 303 303 305
309 310 309 307 307 306 306 307 308 309 308 307 306 305 304 303 302 301 301 301 301 301 300 301 301 301 300 300 300 301 301 301 302 302 302 302 303 303 303 304 304 304 305
308 309 308 306 306 306 306 306 307 308 308 307 305 304 304 303 301 301 300 300 301 301 301 301 301 301 301 300 300 300 301 301 302 302 302 303 303 304 305 306 306 305 305
308 308 307 305 303 304 306 306 306 308 307 306 305 304 303 303 300 302 303 300 301 301 301 301 301 301 301 300 301 301 302 301 301 301 302 302 304 304 304 305 305 306 310
307 307 306 304 303 301 305 306 306 307 307 306 305 303 303 302 300 303 303 301 301 301 301 300 300 300 300 300 301 301 302 300 300 301 302 303 302 303 303 303 305 311 312
305 305 303 301 300 300 305 306 306 307 306 305 304 303 302 302 302 303 302 301 301 300 300 300 301 301 300 300 301 302 301 300 300 302 302 302 302 302 302 304 307 312 311
303 303 302 300 300 300 304 305 306 306 306 305 304 303 302 302 302 303 303 300 300 300 300 300 302 300 301 302 302 301 300 300 301 301 302 302 302 302 303 305 310 315 316
302 302 300 300 302 302 304 305 305 306 305 304 303 302 301 301 301 302 302 301 301 300 300 301 300 300 300 301 302 300 299 300 300 301 302 301 301 302 303 306 311 318 318
301 301 299 303 306 304 303 304 305 305 305 304 302 301 301 301 300 301 301 301 300 300 300 300 300 300 300 299 300 299 299 300 300 300 301 300 301 302 304 306 309 319 320
300 300 300 304 304 302 303 304 304 304 304 303 301 301 300 300 299 299 299 299 300 300 300 301 301 300 300 300 300 299 299 300 300 301 301 300 301 302 303 305 310 318 320
299 298 300 301 303 302 302 303 303 303 302 301 301 301 300 299 299 298 298 298 299 300 300 300 300 300 299 299 299 299 299 299 299 300 301 300 301 302 303 305 308 316 320
298 298 299 300 301 302 302 302 302 302 300 300 300 299 298 298 297 297 297 297 299 299 299 299 299 299 299 299 298 298 298 299 298 300 300 299 300 301 302 304 306 316 316
298 298 298 298 298 301 302 301 300 300 300 299 298 298 298 298 298 298 300 299 298 298 298 299 299 298 298 298 297 297 297 298 298 300 300 299 299 301 302 303 304 307 315
298 297 295 297 300 300 300 300 299 299 299 300 300 299 299 299 299 299 297 297 298 299 298 298 297 298 298 297 297 297 298 298 299 300 300 298 299 300 301 301 302 305 314
297 296 296 298 300 301 301 300 300 300 300 299 299 298 298 298 298 297 297 297 298 298 297 297 297 297 297 297 297 298 299 299 299 300 300 299 298 299 300 300 301 303 309
298 297 296 296 298 298 299 299 299 298 298 298 298 298 297 297 297 297 297 297 297 297 297 297 297 296 297 297 297 298 298 299 299 299 300 299 298 299 299 299 300 302 305
298 298 297 297 297 298 298 298 298 298 297 297 297 297 297 297 297 296 296 296 296 296 296 296 296 296 296 297 297 298 298 298 298 298 299 299 298 298 298 299 299 300 304
297 297 297 297 297 298 297 297 297 297 297 297 297 296 296 296 296 296 295 296 295 295 295 295 296 296 296 296 297 298 298 298 298 297 298 297 297 297 297 298 299 300 302
296 297 297 297 297 297 297 297 297 297 296 296 296 295 295 295 295 295 295 295 295 295 295 295 295 295 295 296 297 297 298 298 297 297 296 297 296 297 297 297 298 299 301
296 297 297 297 297 296 296 296 296 295 295 294 294 294 294 294 293 294 295 295 295 295 294 294 294 294 295 296 297 297 297 296 296 296 296 296 296 297 297 297 298 299 300
296 295 295 295 295 295 295 295 294 294 294 293 293 293 293 293 293 293 293 293 294 294 294 294 295 295 295 296 297 296 295 296 296 296 296 296 296 296 296 297 298 300 302

GFSGL_925_thetae_024.txt.gz
Theta_e
307 310 311 310 312 310 311 313 318 318 316 312 310 309 308 307 307 306 305 305 304 304 304 304 303 303 302 302 301 301 300 301 301 302 303 303 303 303 303 302 301 303 302
307 308 308 310 311 311 309 310 312 315 315 313 310 309 308 307 306 306 305 304 304 304 303 303 303 302 301 301 301 300 300 301 302 302 303 302 302 302 302 302 302 302 303
307 307 308 309 311 311 308 309 310 311 314 313 310 308 307 306 306 305 304 304 303 303 303 303 302 302 301 301 300 300 302 302 303 302 302 302 302 301 301 302 302 302 303
306 307 309 310 310 309 309 307 308 310 313 312 310 308 307 306 305 305 304 303 303 303 303 302 302 301 301 300 300 301 302 302 302 301 301 301 300 301 300 301 301 302 304
305 306 308 309 309 308 308 307 307 309 310 312 309 308 307 306 305 304 303 303 303 302 302 302 301 301 300 300 301 302 302 302 302 301 301 300 300 300 300 300 301 302 303
304 304 307 309 309 307 307 307 307 307 309 310 308 307 307 305 305 304 303 303 302 302 301 301 300 300 301 302 303 304 303 302 301 301 301 301 301 301 301 302 303 303 303
303 304 305 308 308 307 306 306 306 306 308 309 308 307 306 305 305 304 303 302 302 301 301 301 300 300 301 301 301 301 301 301 301 302 302 301 301 302 302 302 303 304 305
304 303 305 308 307 306 305 305 304 306 307 308 307 306 305 305 304 305 303 302 301 301 301 300 301 301 301 301 300 300 300 300 301 301 301 302 301 302 303 304 304 304 304
303 303 307 306 304 305 304 304 303 305 306 307 307 306 305 304 305 305 302 301 301 301 301 301 301 301 301 301 301 300 300 301 302 300 301 300 302 303 303 304 304 304 304
302 305 305 304 303 303 303 302 302 304 306 307 306 305 304 304 305 304 301 301 301 301 301 301 301 301 300 301 301 300 301 301 301 300 300 301 301 302 303 303 303 304 305
302 304 303 302 302 302 302 300 302 304 306 306 306 304 304 304 304 303 301 300 301 301 301 301 300 300 301 301 301 301 302 302 300 300 301 300 302 301 302 302 303 304 307
301 302 302 302 302 302 300 300 303 304 306 306 304 303 303 303 303 304 302 301 301 301 300 300 301 301 301 301 302 302 302 301 299 300 299 301 301 301 302 303 304 306 311
300 300 302 302 301 301 299 300 303 305 306 306 304 302 302 302 304 305 303 301 300 300 300 301 301 301 301 300 300 301 300 299 299 300 299 301 301 301 302 303 306 312 315
299 300 301 301 300 299 303 303 304 305 306 306 303 302 301 302 304 305 304 303 301 300 300 300 300 299 300 299 300 300 299 299 300 299 300 301 300 301 302 303 305 308 317
298 300 300 299 298 302 303 304 305 305 306 305 302 301 301 302 302 303 303 302 300 300 300 300 301 300 300 300 300 299 299 298 299 298 300 300 299 301 302 303 305 312 316
299 300 299 298 298 300 302 303 305 304 304 305 302 301 300 300 301 301 301 300 299 300 300 300 300 300 299 299 299 298 298 298 298 297 300 299 299 301 302 303 305 311 315
299 300 298 298 298 299 301 303 304 303 304 302 301 300 300 300 300 301 300 300 300 300 299 299 299 299 299 299 298 297 298 297 297 297 300 299 299 300 301 302 304 306 315
299 299 298 298 298 298 301 302 302 303 302 303 301 301 301 300 299 298 298 298 299 298 298 299 299 298 298 298 297 297 297 296 297 298 300 299 299 300 301 301 302 304 311
298 298 296 296 296 298 301 301 300 299 299 300 300 300 299 298 298 299 298 298 298 298 298 298 298 297 298 297 297 296 297 298 298 298 300 299 298 299 300 300 301 303 307
297 296 294 295 299 300 299 299 299 299 299 299 299 299 300 299 299 298 297 297 298 299 298 297 297 297 297 297 297 297 298 298 299 298 300 299 298 298 299 299 300 301 304
295 295 296 299 299 299 298 298 298 298 298 298 298 298 298 297 297 296 297 297 297 297 297 297 296 296 297 297 297 297 298 298 298 298 299 299 297 298 298 299 299 300 302
295 295 296 297 298 298 298 298 298 298 298 298 298 298 298 297 297 297 297 297 296 296 296 296 296 296 296 296 296 297 298 298 298 297 296 298 296 297 297 298 299 300 301
295 295 296 297 297 297 297 297 297 297 297 297 297 297 296 296 296 296 296 296 295 295 295 295 295 295 295 295 296 297 297 298 298 297 297 296 296 296 297 297 298 299 300
295 295 294 295 295 295 296 296 297 297 296 296 296 296 296 296 295 295 295 295 295 295 295 295 295 295 295 295 296 297 298 297 297 296 296 295 295 295 296 297 298 298 299
296 296 297 296 296 296 296 296 296 295 295 295 294 294 294 294 294 295 295 295 295 295 294 294 294 294 294 295 297 297 297 295 295 296 295 295 295 295 296 296 297 298 299
295 295 295 295 294 294 294 294 294 294 294 293 293 293 293 293 294 294 294 294 294 295 294 294 294 295 295 295 295 295 295 295 295 296 295 295 294 295 296 296 297 298 299

GFSGL_925_thetae_027.txt.gz
Theta_e
304 306 306 307 307 308 310 310 309 308 308 314 313 311 309 309 309 308 308 307 306 305 304 304 304 303 303 303 302 301 301 301 298 300 300 301 302 303 302 302 302 302 301
305 305 305 305 305 308 309 309 308 309 307 309 312 310 309 308 308 307 307 306 306 305 304 304 304 303 303 303 302 301 301 300 300 299 301 302 302 302 301 301 301 301 302
304 304 305 304 305 309 309 308 307 307 307 307 309 310 309 308 307 307 306 305 305 305 304 304 303 303 303 302 301 301 300 300 300 301 301 301 301 301 300 300 300 300 300
302 304 303 303 305 305 308 308 307 306 307 308 309 309 309 308 307 306 305 305 304 304 304 303 303 303 302 301 301 300 300 301 301 301 301 301 300 300 300 300 299 300 300
302 302 302 303 303 304 308 307 306 305 305 306 309 308 309 307 306 305 305 304 304 303 304 303 303 302 302 301 300 300 301 302 302 301 301 300 300 299 299 300 299 300 300
301 301 302 302 303 302 306 308 307 305 305 305 306 308 308 307 306 305 304 303 304 303 303 303 303 302 302 302 302 302 303 303 303 301 300 300 300 300 301 300 300 301 301
300 301 301 301 302 304 306 305 305 305 305 303 305 307 308 307 306 305 304 303 303 303 303 302 302 301 301 301 303 304 304 302 302 302 301 301 300 300 300 300 301 302 303
300 301 300 301 303 305 304 303 303 304 304 303 304 306 307 306 306 306 304 303 303 302 302 301 300 300 300 301 301 301 300 300 300 300 302 301 301 300 301 302 303 304 304
300 300 300 301 302 303 302 302 302 302 303 302 302 305 306 305 306 307 304 302 302 302 301 300 300 300 301 301 301 301 300 300 300 301 301 300 301 302 302 302 303 304 304
300 300 300 300 302 302 302 301 301 302 302 301 302 306 305 305 307 308 304 302 301 300 300 300 300 301 302 302 301 300 300 300 300 301 300 300 300 300 301 302 302 303 303
300 299 299 299 300 300 300 301 301 301 300 301 302 305 305 304 307 308 304 301 301 300 300 301 301 301 302 302 301 300 300 301 302 300 299 300 299 300 301 301 301 302 303
299 299 299 299 298 299 300 301 300 300 299 302 303 305 304 305 308 307 303 301 301 300 301 301 301 300 302 302 302 301 302 302 300 299 299 298 299 300 300 301 302 304 307
298 298 297 297 298 299 301 300 299 299 301 303 304 305 303 306 308 305 302 301 301 300 301 301 300 301 303 302 302 302 301 299 299 299 298 298 300 299 300 302 303 311 316
296 296 295 296 298 300 300 298 300 302 303 303 304 304 303 305 306 305 303 302 300 301 300 301 302 302 301 300 300 300 300 299 299 298 297 300 299 299 301 302 304 311 316
294 295 296 298 299 300 298 297 300 303 303 303 304 302 303 304 305 304 303 302 301 301 301 301 301 300 300 300 300 299 298 298 298 297 297 300 299 300 301 302 305 311 315
294 295 296 297 300 299 297 298 299 304 304 304 304 302 303 303 305 304 304 300 300 300 299 300 300 300 299 299 298 298 297 297 296 297 299 299 299 300 301 302 304 308 314
295 296 296 297 299 298 298 298 299 305 305 304 304 302 303 304 305 303 302 301 300 299 300 300 300 299 299 298 297 297 297 296 297 297 300 299 299 300 301 301 303 306 314
295 296 296 299 298 298 297 298 301 303 303 304 302 303 302 304 303 302 302 300 301 300 300 299 299 299 298 297 297 297 296 297 297 298 300 299 298 299 300 301 301 303 311
296 296 298 297 297 296 297 299 302 303 302 303 302 303 303 302 301 301 300 299 299 299 299 299 299 298 298 297 297 296 297 298 298 298 299 298 297 299 299 300 301 302 306
295 296 297 296 295 295 299 300 300 301 301 301 302 301 302 301 300 298 298 298 298 298 298 298 297 297 297 297 297 296 297 298 298 298 298 297 297 297 298 299 300 301 302
294 294 299 298 299 299 299 299 299 299 299 299 299 299 299 299 297 297 298 298 298 298 297 297 297 296 297 296 296 297 297 298 297 297 297 297 296 296 297 298 299 300 301
293 295 297 298 297 298 298 298 298 298 298 298 298 298 297 297 296 297 297 297 298 297 297 296 296 296 296 296 296 297 297 297 297 296 297 296 295 295 296 297 298 299 300
292 294 296 297 297 297 297 297 297 296 297 298 298 297 297 296 296 297 296 296 296 296 296 296 296 295 295 295 296 297 297 297 297 296 296 295 295 295 295 297 297 299 300
293 293 294 295 296 297 297 297 296 297 297 296 296 296 296 296 296 296 295 295 295 295 295 295 295 295 295 295 296 297 296 296 296 296 295 294 294 294 295 296 297 298 299
294 294 294 294 295 295 295 295 295 295 295 295 295 295 295 295 295 295 295 295 295 295 294 294 294 294 294 295 296 296 296 296 295 295 295 294 294 294 295 296 297 297 298
293 293 293 293 294 294 294 294 294 293 293 293 293 293 294 295 295 295 295 295 294 294 294 294 293 294 294 295 295 295 294 294 294 294 294 294 294 294 295 296 297 297 298

GFSGL_925_thetae_030.txt.gz
Theta_e
303 303 303 302 302 304 303 303 308 308 307 307 307 307 309 311 310 308 309 309 308 307 307 308 307 305 304 303 303 302 301 301 297 300 299 300 300 301 302 302 302 301 301
303 302 301 301 302 303 303 303 306 308 308 307 306 307 308 310 309 308 308 308 308 306 306 306 306 304 303 303 302 302 301 301 300 298 299 299 300 302 301 301 300 299 299
301 301 301 301 301 302 302 303 303 306 308 306 305 306 307 309 309 307 307 307 307 306 306 305 305 304 303 303 302 302 301 301 300 299 299 300 301 301 301 299 300 300 300
300 300 301 301 301 301 301 302 303 303 307 306 306 305 305 306 308 309 307 307 306 305 305 305 304 304 303 303 302 302 301 300 299 299 300 300 301 301 300 300 300 300 300
300 300 300 300 300 300 301 301 302 304 307 306 306 305 304 305 307 309 308 307 305 304 304 304 304 304 304 303 302 301 300 300 300 300 300 300 300 300 300 301 299 299 300
299 299 299 300 300 301 300 301 306 304 304 305 305 305 304 304 307 309 309 306 304 304 303 303 304 304 303 303 302 301 301 300 301 301 301 300 300 300 300 300 299 298 299
299 299 299 299 299 299 300 304 304 303 302 302 302 304 303 303 306 309 310 305 303 303 303 303 303 303 303 304 305 304 301 303 305 304 302 301 300 300 300 300 299 299 299
298 299 299 299 299 299 299 300 302 302 301 301 301 303 302 302 305 308 310 306 303 302 303 304 303 303 303 302 303 303 304 304 303 301 300 300 302 301 301 301 301 301 302
298 298 298 299 299 299 299 299 301 301 300 300 301 302 302 301 303 307 310 307 302 301 303 303 303 302 302 301 300 301 301 300 300 300 301 302 301 301 301 301 301 302 303
298 297 298 298 299 299 298 299 299 299 299 300 301 302 301 301 305 308 310 304 300 299 301 302 302 302 300 301 301 300 300 300 299 300 301 299 299 299 298 300 300 302 302
298 297 298 298 298 298 298 297 297 298 299 300 300 300 300 301 305 307 310 302 300 298 299 300 300 300 302 304 302 300 300 300 302 302 299 298 298 298 300 300 300 301 301
296 298 297 297 298 297 296 296 297 298 300 299 299 300 301 303 305 306 307 303 301 299 299 300 300 300 302 303 303 301 302 302 301 298 298 297 297 299 300 300 300 302 304
296 295 296 296 295 294 294 295 297 300 299 298 301 301 302 304 304 309 308 305 301 299 300 300 300 301 302 303 302 302 302 300 298 298 297 297 299 300 300 301 304 308 312
295 295 295 294 294 295 296 297 298 299 298 299 303 302 303 303 306 308 307 303 301 300 300 301 301 302 303 302 301 301 300 298 298 296 296 299 299 299 300 302 303 306 311
295 294 294 294 294 295 296 297 299 298 298 299 303 302 303 304 308 306 304 302 301 301 301 303 303 303 301 300 300 299 298 298 297 296 297 299 299 299 301 302 304 307 311
296 295 294 294 295 295 296 298 298 298 299 300 303 303 302 306 306 304 303 301 301 301 301 301 300 300 299 299 298 297 297 296 296 297 299 298 298 299 301 302 303 306 312
295 295 295 295 295 296 297 298 298 298 298 304 304 303 303 306 304 303 302 301 301 300 299 299 299 299 298 298 297 297 296 296 297 298 298 297 298 299 300 301 302 305 313
295 295 296 296 296 296 298 297 298 298 299 305 304 303 303 306 302 302 302 301 300 299 299 299 299 298 298 297 296 296 296 297 297 299 298 297 297 299 300 300 301 303 309
296 296 295 295 296 296 297 297 297 297 303 302 302 303 304 305 303 302 301 299 298 299 299 299 299 298 297 296 296 297 298 298 298 297 297 296 296 298 299 300 301 302 305
294 295 296 297 297 296 296 296 298 302 302 302 303 304 304 303 301 299 299 299 299 299 299 298 298 297 297 296 296 297 297 297 297 296 296 296 296 297 298 299 300 301 303
294 296 298 299 299 298 300 300 301 301 301 301 302 302 301 298 298 298 298 299 298 298 298 298 297 297 297 296 296 297 297 297 296 296 296 295 295 296 297 298 299 300 302
293 297 297 298 298 298 298 298 299 299 299 298 298 298 297 297 297 297 297 297 297 298 297 297 297 296 296 296 296 297 297 297 296 296 295 295 295 295 295 297 298 299 301
293 294 297 296 296 296 296 297 297 297 297 297 297 296 296 296 297 297 298 298 297 297 296 296 296 296 295 295 296 297 297 297 296 296 295 294 294 294 295 297 298 298 299
293 293 294 296 296 295 296 296 297 296 296 296 296 296 296 296 296 296 297 297 296 296 296 295 295 295 295 295 296 296 295 295 295 295 294 294 294 294 295 297 297 298 299
293 293 293 293 294 294 295 295 295 295 295 295 295 295 296 295 295 295 295 295 295 295 295 295 295 294 294 295 295 295 295 295 294 294 294 293 293 294 295 296 297 298 298
292 292 292 292 293 293 293 293 293 294 294 294 294 295 295 295 295 295 295 295 294 294 294 294 294 294 295 295 295 295 294 294 294 294 294 294 294 294 295 296 296 297 297

GFSGL_925_thetae_033.txt.gz
Theta_e
301 302 301 301 300 301 301 300 301 301 302 303 306 307 306 305 306 307 310 309 309 307 306 306 308 307 305 306 304 303 302 302 298 299 299 299 300 300 299 301 302 302 301
301 301 299 300 300 301 301 300 300 301 302 303 303 305 306 305 305 305 308 309 308 307 306 305 306 306 304 305 305 303 302 302 301 298 300 300 299 299 300 301 301 301 300
301 300 299 299 299 300 300 300 300 300 301 301 302 305 306 306 305 305 305 308 308 308 307 304 305 306 303 304 304 302 302 301 301 300 299 299 299 299 301 301 301 300 300
299 300 299 299 299 299 300 300 300 301 300 301 303 306 305 305 305 305 305 305 308 307 307 306 305 305 304 304 303 302 302 301 300 299 299 299 299 300 300 300 300 300 301
298 298 299 299 299 299 299 299 300 299 300 304 304 304 302 303 304 304 305 306 307 308 307 307 304 304 305 306 303 302 302 301 299 298 298 299 299 300 300 300 300 300 300
298 297 298 298 298 298 299 299 299 300 302 299 303 302 301 301 302 304 305 305 306 308 307 306 303 304 305 305 304 303 303 301 299 299 298 299 299 300 301 300 300 298 297
299 297 298 298 297 298 299 299 298 300 299 298 302 301 300 300 302 303 305 305 305 309 307 306 302 303 305 306 306 304 303 302 301 300 299 300 301 302 301 300 300 298 298
298 298 298 297 297 297 298 298 298 299 298 298 300 300 299 300 301 303 304 304 304 309 307 304 302 302 304 305 306 305 303 303 302 303 305 304 301 300 301 302 301 300 300
297 297 297 298 297 297 297 297 298 298 298 299 299 299 299 300 301 302 303 303 306 307 303 302 302 302 304 304 305 305 304 304 305 304 301 301 302 303 303 301 300 299 299
295 295 296 296 297 297 297 297 298 297 298 297 297 297 299 300 300 302 303 302 306 304 304 303 302 302 304 304 303 303 302 302 300 300 299 299 301 299 298 298 298 298 300
294 295 295 297 296 296 297 297 297 296 295 295 296 297 299 300 299 301 302 304 304 301 300 299 301 303 306 304 302 301 300 300 300 300 302 300 298 297 297 299 299 298 300
294 295 295 295 296 296 295 296 295 294 294 295 297 299 299 299 300 302 303 307 304 300 299 299 301 304 305 301 300 300 300 301 302 301 298 298 296 298 298 300 302 301 300
295 295 295 295 294 294 295 294 293 294 295 297 298 298 299 301 302 302 306 305 302 300 299 300 304 305 305 303 302 303 303 302 299 298 297 296 298 299 302 302 302 304 307
295 295 294 294 294 294 294 294 294 296 296 297 299 298 299 302 302 304 306 305 305 300 301 304 305 305 304 303 303 302 301 299 298 297 296 298 298 300 300 301 302 306 309
294 294 294 294 294 293 293 293 294 295 296 299 299 299 300 302 303 306 307 305 303 301 304 304 303 302 302 301 300 299 298 297 296 296 297 298 298 300 300 302 304 308 311
294 294 295 295 294 294 295 295 295 297 299 299 299 300 301 302 303 306 305 303 301 302 302 301 301 300 299 299 298 297 296 296 296 297 298 297 298 299 300 302 305 309 310
294 295 294 295 294 294 295 296 296 298 298 298 300 304 302 302 307 304 304 302 302 301 300 300 299 298 298 297 297 296 296 296 297 298 297 296 298 299 300 301 304 307 310
295 295 296 295 295 295 295 296 298 297 297 298 304 302 302 306 305 304 303 302 300 299 299 298 297 298 297 296 296 295 297 297 298 297 296 296 298 298 299 300 302 305 310
295 295 295 295 295 296 296 297 297 297 297 301 302 302 305 304 304 303 300 299 298 298 298 298 298 297 297 296 296 297 297 297 296 296 295 295 297 297 299 300 301 304 310
293 296 297 299 299 298 297 296 296 297 300 301 302 303 304 304 300 298 298 298 298 298 299 298 297 296 296 296 297 297 297 296 296 295 295 295 295 297 298 299 300 303 308
293 297 297 297 298 299 300 299 300 300 300 302 303 303 301 299 298 298 298 298 298 298 298 297 296 296 296 296 297 297 296 296 296 294 294 294 294 296 298 299 300 302 307
294 296 296 295 296 297 298 299 299 299 298 298 299 299 298 297 297 297 297 298 298 298 297 297 296 296 296 296 297 297 296 296 295 294 293 293 294 296 297 298 299 300 303
293 294 295 295 295 296 296 297 297 297 297 296 296 296 296 296 296 296 297 297 297 297 297 296 296 296 296 296 296 296 296 295 295 294 293 293 294 296 297 297 298 299 300
292 292 293 293 295 295 295 295 296 296 295 296 296 295 296 297 297 297 296 296 296 296 296 295 295 296 296 296 295 295 295 295 294 293 293 293 294 295 297 297 298 298 300
292 292 292 292 292 293 294 295 295 295 295 295 295 295 295 296 296 296 296 296 295 295 295 294 294 294 295 295 294 294 294 294 293 293 293 293 293 294 296 297 297 297 298
291 292 291 292 292 292 292 292 293 293 294 295 294 294 295 295 295 295 295 295 294 294 294 294 294 294 294 294 294 294 293 293 293 293 293 293 293 294 294 295 296 296 297

GFSGL_925_thetae_036.txt.gz
Theta_e
302 301 301 301 301 300 299 299 300 300 300 300 300 302 303 303 304 306 305 305 305 307 307 307 306 306 305 304 304 303 303 303 300 300 300 300 299 299 300 299 299 300 301
299 300 299 298 299 299 299 299 299 299 300 300 300 300 301 302 304 306 305 305 304 305 307 307 306 305 304 303 303 302 301 302 302 298 300 299 299 299 299 299 299 300 301
299 299 298 299 298 298 299 299 299 299 299 300 300 299 300 302 305 305 304 303 303 303 305 307 307 305 305 302 302 302 301 301 302 301 300 300 299 299 299 299 299 300 301
299 298 298 298 298 297 298 299 298 298 299 299 299 300 302 304 304 302 302 302 302 303 304 305 306 306 305 303 301 302 301 300 300 300 299 299 299 299 299 299 300 300 300
298 299 299 299 298 297 297 298 298 298 299 299 299 302 298 299 303 302 302 302 303 304 305 305 306 306 306 305 302 301 300 299 298 298 297 297 298 298 299 299 300 300 301
296 297 297 298 298 297 296 297 297 297 298 299 299 300 298 299 302 302 301 301 302 304 304 304 306 307 307 308 307 303 301 300 298 298 297 297 298 299 299 300 300 298 297
294 295 295 296 297 297 297 297 297 297 297 298 299 299 298 298 300 300 300 301 302 303 303 304 304 307 307 307 308 308 304 302 304 302 299 299 299 299 299 300 300 299 298
293 293 294 294 295 296 297 297 297 297 297 297 298 298 298 299 299 298 299 301 301 302 303 303 303 306 305 305 305 307 305 304 303 302 302 301 300 301 302 301 300 300 300
293 293 293 294 294 295 295 296 296 296 296 296 297 297 297 297 297 297 299 301 301 302 303 303 303 306 304 306 305 305 304 303 303 302 301 301 304 302 301 303 301 299 299
294 294 294 294 294 294 294 296 296 296 295 296 296 296 295 295 295 297 299 301 301 302 302 302 304 305 305 307 306 304 302 303 303 304 303 303 303 302 301 301 299 298 298
295 295 293 295 294 294 295 295 295 296 295 295 295 294 294 295 296 299 300 301 302 303 302 303 303 304 305 307 306 303 303 303 302 302 300 299 300 300 297 296 297 298 297
295 295 294 295 294 294 294 294 294 294 294 293 293 293 295 297 298 299 301 303 303 303 303 302 302 305 305 306 304 303 303 301 300 300 300 299 297 296 297 299 301 300 299
296 295 294 294 294 294 294 293 293 293 292 293 293 296 296 298 298 299 303 303 303 304 302 301 303 305 305 305 303 303 300 300 301 299 297 296 297 298 300 302 302 302 303
295 294 293 293 293 294 294 293 293 293 293 293 295 295 298 299 299 299 301 302 303 302 302 302 305 305 302 304 304 302 301 301 298 297 296 297 298 300 301 300 302 306 307
295 294 293 293 293 294 294 294 293 293 293 294 295 297 299 300 299 300 302 302 301 301 303 305 303 301 301 301 300 299 298 297 296 296 297 297 299 300 300 302 305 307 309
294 294 294 294 294 295 295 294 295 295 296 297 299 299 299 300 301 303 303 301 304 305 303 302 300 299 298 297 297 296 295 296 296 297 296 297 299 299 301 303 305 309 308
293 294 295 295 295 295 295 295 296 295 296 298 298 299 301 303 302 303 303 303 303 302 300 299 298 297 296 296 296 295 295 296 297 296 296 298 298 299 300 302 306 308 307
294 293 294 295 295 295 295 295 295 296 297 296 297 303 302 304 303 303 303 302 300 299 299 297 297 296 296 295 295 296 297 297 295 295 296 297 298 298 299 301 305 309 309
294 294 297 297 298 298 296 296 296 297 297 297 302 304 303 303 303 302 300 299 298 297 297 296 296 296 295 296 297 297 296 295 294 294 295 297 298 298 299 301 306 309 309
294 294 296 296 296 298 298 297 296 296 297 301 303 304 301 300 298 298 298 298 297 297 297 296 296 295 296 297 296 295 295 294 294 294 294 297 298 298 299 301 305 308 308
293 294 295 294 296 298 300 299 299 300 300 301 301 300 299 298 297 297 298 297 298 297 296 296 295 296 297 297 296 295 295 294 293 293 294 297 298 298 299 301 304 307 308
292 292 294 294 295 296 297 298 298 298 299 299 299 298 298 297 297 297 297 297 297 297 296 296 296 296 297 296 296 295 294 293 293 293 295 297 298 298 299 300 302 305 308
292 292 292 293 294 294 294 295 296 297 297 297 297 297 296 297 297 297 296 296 296 296 296 296 296 296 296 296 295 295 294 293 293 293 294 296 297 298 298 299 300 302 304
292 292 292 292 293 294 295 295 295 295 296 296 296 296 296 295 296 296 296 296 296 296 295 296 296 296 295 295 294 294 293 293 293 293 293 294 296 297 297 298 298 300 303
291 291 291 291 292 292 293 294 295 295 295 295 295 295 295 295 295 295 295 295 295 295 296 296 295 295 294 294 294 293 293 293 293 293 293 293 295 296 296 296 297 298 301
290 290 291 291 291 291 292 292 292 293 294 295 295 295 294 294 295 295 294 294 294 294 294 294 294 294 294 293 293 293 292 292 292 293 292 293 294 294 295 295 296 297 298

GFSGL_925_thetae_042.txt.gz
Theta_e
298 298 298 298 299 299 299 299 300 299 299 300 300 301 301 301 301 301 302 303 304 305 305 305 306 307 308 310 311 310 308 308 309 310 312 312 308 307 305 305 306 306 306
298 298 298 298 298 298 299 299 299 299 299 300 299 300 300 300 301 301 302 302 303 303 304 305 306 306 306 307 309 310 309 308 306 309 311 311 307 306 306 305 305 306 306
297 297 296 296 296 297 297 297 298 298 299 299 298 299 300 300 300 301 301 301 301 302 303 304 305 305 305 306 307 309 310 309 306 307 307 308 308 306 306 305 306 305 305
296 296 296 296 296 296 296 296 296 297 297 298 298 298 299 300 300 301 301 301 303 304 303 304 304 304 305 305 306 306 308 309 308 305 304 306 307 305 305 305 305 304 303
296 296 296 296 296 295 295 295 296 296 296 297 297 298 299 299 299 299 301 302 302 303 303 303 303 303 303 304 305 306 307 307 308 307 304 305 307 306 305 305 304 304 303
296 296 296 297 297 296 296 295 296 295 295 295 296 297 298 298 299 299 300 301 301 302 302 302 302 302 302 304 305 306 307 307 307 306 305 307 307 306 304 305 305 305 306
295 295 296 295 296 296 296 295 295 296 296 296 296 297 298 298 298 299 300 301 301 301 301 302 302 301 301 302 304 305 306 308 308 307 305 306 306 306 306 306 305 305 305
295 296 296 296 296 296 296 296 296 296 296 295 296 296 297 298 298 299 300 301 301 301 301 301 301 301 301 301 302 303 305 306 309 308 305 305 305 306 306 306 306 305 305
295 296 295 295 295 296 296 296 295 296 294 295 296 296 296 297 297 298 299 300 300 300 300 300 299 300 300 301 302 303 304 306 308 309 308 305 304 304 304 304 305 305 305
295 295 295 295 296 296 296 296 295 294 295 295 296 296 297 297 297 298 299 299 299 299 299 299 299 300 301 301 302 304 304 306 307 308 309 307 306 304 303 304 304 305 304
295 295 295 295 295 295 295 295 295 295 294 295 295 296 296 296 296 297 298 298 298 298 298 299 300 300 300 302 304 304 305 305 307 306 307 305 303 303 303 303 304 304 305
295 295 295 295 295 295 295 294 294 294 295 295 295 295 295 295 296 296 297 297 297 298 299 300 301 301 302 303 303 304 305 306 306 306 304 303 304 305 305 305 305 305 304
294 294 294 295 295 295 295 295 295 295 295 295 295 295 295 295 295 296 296 298 298 299 301 302 302 303 303 304 304 304 305 306 305 305 305 305 305 304 304 303 301 301 300
294 294 295 295 296 296 295 295 296 296 296 296 296 296 295 296 296 296 297 297 298 300 302 301 302 303 304 305 304 305 306 304 305 304 304 304 303 302 301 300 301 303 302
293 294 294 295 295 296 296 296 296 296 296 297 296 296 296 297 297 297 298 298 298 300 300 302 300 302 304 303 304 303 302 303 303 303 303 302 301 300 301 303 304 303 305
293 294 294 295 295 295 296 297 296 297 297 297 298 298 298 298 299 300 300 301 301 301 301 304 303 302 301 300 300 301 300 301 300 300 300 300 301 302 304 302 303 305 309
294 294 294 294 295 296 295 296 298 297 297 297 298 299 300 304 304 304 302 302 302 303 301 300 299 298 298 299 299 299 299 299 299 299 300 302 303 302 302 303 304 308 308
294 293 294 294 295 295 297 298 298 297 297 298 303 302 303 302 302 301 300 299 299 299 298 298 298 298 298 299 299 298 298 298 299 301 301 300 300 301 302 307 309 309 309
293 293 294 294 293 294 297 299 298 298 300 300 300 301 301 301 300 300 300 300 299 298 298 298 298 298 298 298 298 297 297 298 299 297 297 298 299 301 304 309 309 309 308
292 293 293 293 293 293 297 300 301 300 300 299 299 300 300 299 299 299 299 299 298 298 298 298 297 297 297 296 296 295 296 297 296 296 297 298 299 302 306 310 310 309 309
292 292 292 293 293 294 297 298 299 299 299 299 299 299 299 298 298 298 297 297 297 297 297 296 296 295 295 295 294 295 296 296 296 296 297 298 300 302 308 309 309 309 308
292 292 292 293 293 294 296 297 298 298 298 297 297 298 297 296 295 295 295 295 296 296 296 295 295 295 295 295 295 295 295 295 296 296 297 299 301 305 309 309 309 309 308
291 292 292 292 293 293 295 296 296 296 296 296 296 296 295 294 294 294 295 295 296 296 295 294 295 294 294 294 295 294 294 295 295 296 297 298 301 304 307 308 308 309 308
291 291 291 292 292 293 293 295 295 295 295 295 294 294 293 293 294 294 295 296 296 295 295 295 294 294 294 293 293 293 293 294 296 296 297 298 300 302 305 307 307 308 308
291 291 291 291 291 292 292 292 292 294 294 293 292 292 292 292 294 295 295 295 294 294 295 294 294 293 293 293 292 292 293 294 295 296 296 298 299 300 303 306 307 307 307
290 290 291 291 291 291 291 292 292 292 292 292 292 292 292 293 294 294 294 294 294 293 293 293 293 292 292 291 291 292 292 293 294 296 297 297 297 298 300 303 306 306 307

GFSGL_925_thetae_045.txt.gz
Theta_e
299 299 299 299 299 299 299 299 299 300 300 301 301 301 301 301 301 302 302 303 303 303 304 306 306 306 307 308 309 311 312 311 312 312 313 312 313 310 309 309 308 308 308
299 299 299 299 299 298 298 298 298 298 299 299 300 300 301 301 301 301 302 302 302 302 303 305 305 305 306 307 307 309 311 311 311 311 312 312 312 312 309 308 307 308 308
299 299 299 298 298 298 298 298 297 297 297 298 298 298 299 300 300 300 301 302 302 302 302 303 304 304 305 307 306 307 309 310 310 310 310 311 311 310 309 309 307 307 307
298 298 298 298 298 298 298 298 298 297 296 296 297 297 298 299 299 300 301 301 302 302 302 302 302 303 304 305 305 306 306 308 309 309 309 310 310 310 308 308 307 307 307
298 298 298 298 297 297 296 296 297 297 297 296 296 296 297 297 298 299 300 301 301 302 302 303 303 303 304 304 305 305 306 307 308 309 308 308 309 309 309 307 308 308 308
297 297 297 296 296 296 296 297 296 296 297 297 296 296 297 296 296 298 299 300 300 301 302 302 303 303 303 303 304 304 305 306 308 308 308 307 308 308 308 306 306 307 308
296 296 295 295 295 296 295 296 296 296 297 297 297 297 297 297 297 298 299 300 301 301 300 299 303 302 302 302 302 303 304 305 306 307 307 306 307 309 308 306 306 306 307
295 295 295 295 295 296 296 296 296 296 296 297 295 296 296 296 297 298 299 300 300 300 300 302 302 302 302 302 302 302 303 304 305 306 307 307 307 308 309 307 306 306 306
295 295 295 295 296 296 295 296 296 296 296 296 296 295 296 296 297 298 298 299 299 299 300 301 301 301 302 302 302 302 302 302 302 305 306 307 308 308 307 306 306 306 307
295 295 295 295 295 295 295 296 296 296 296 296 295 295 295 296 297 297 298 299 299 299 300 300 301 301 301 301 301 302 302 302 303 303 305 307 308 307 307 305 305 306 306
295 295 294 294 295 295 296 296 296 296 295 296 296 296 295 296 296 297 298 298 299 299 299 300 300 300 300 300 301 301 301 301 303 303 306 308 308 307 306 306 305 305 305
294 294 294 294 294 295 295 296 296 296 296 296 296 296 296 296 296 296 297 298 298 299 299 299 299 299 300 301 301 301 302 304 304 305 306 307 307 306 305 304 304 304 305
294 294 294 294 294 295 296 296 296 296 296 296 296 297 297 295 295 295 296 297 298 298 298 298 298 299 300 301 302 303 304 304 305 305 306 305 304 304 304 304 304 304 306
294 294 294 294 295 296 295 295 296 296 296 297 297 297 297 297 296 295 295 296 297 298 298 299 300 300 301 302 303 304 305 305 305 305 306 305 304 304 305 305 305 305 303
294 294 294 295 295 295 295 295 296 297 297 297 297 298 298 298 297 297 297 298 298 299 299 300 301 301 301 302 303 304 305 305 305 305 305 305 305 305 305 304 303 303 303
294 294 294 295 295 295 295 295 296 299 299 299 299 299 298 299 299 299 299 300 300 300 300 300 301 299 301 301 303 303 304 304 305 304 304 304 304 303 302 303 304 304 304
294 294 294 294 294 294 294 295 299 299 301 303 301 300 302 301 301 302 303 303 302 301 301 301 300 300 300 300 301 301 300 301 302 302 302 302 302 301 303 304 303 304 305
294 294 293 294 294 293 294 296 300 300 300 300 301 301 301 301 300 299 298 297 297 298 298 298 298 299 299 299 299 299 299 300 300 300 301 302 302 303 303 304 304 306 309
294 293 293 294 293 293 296 300 300 300 300 300 299 299 300 300 300 300 299 298 298 298 298 298 298 298 298 298 298 298 298 299 300 300 300 300 301 302 302 304 307 309 309
293 293 293 293 293 294 297 299 299 299 299 299 299 299 298 298 298 298 298 297 297 297 297 296 296 296 296 296 296 297 298 296 296 297 297 298 299 301 303 308 309 309 308
292 292 292 293 293 294 297 298 298 298 298 298 297 297 297 297 297 297 297 297 296 296 295 295 295 295 295 295 296 296 295 295 296 296 297 298 300 301 307 309 309 308 308
292 292 292 293 293 294 296 296 296 296 296 296 295 295 294 295 296 296 296 296 295 295 295 295 295 295 295 295 295 295 295 295 295 297 298 300 301 305 309 309 309 308 308
292 292 292 292 293 293 294 295 295 295 294 294 294 293 294 294 295 296 295 295 295 295 295 294 294 293 293 294 294 294 294 294 295 296 298 301 305 309 309 309 309 308 307
291 291 292 292 292 292 292 293 293 293 293 293 292 292 293 294 295 295 294 295 295 294 294 293 292 292 292 293 293 293 294 295 296 297 299 302 307 308 309 309 309 308 308
291 291 291 292 291 291 292 292 292 292 293 293 293 293 294 294 294 294 294 294 294 294 293 292 291 291 291 292 293 293 295 296 296 297 299 303 306 307 308 308 308 308 309
290 291 291 291 291 291 291 292 292 292 292 293 293 293 294 294 293 293 294 294 294 293 292 291 290 290 290 291 292 292 294 295 295 296 299 302 304 306 307 307 308 308 309

GFSGL_925_thetae_048.txt.gz
Theta_e
299 299 299 299 299 299 299 299 299 298 298 298 298 298 298 299 299 301 301 301 301 301 302 303 302 303 306 307 307 307 309 310 308 309 310 311 312 313 312 311 310 310 309
299 298 299 299 299 299 298 298 299 299 298 298 298 297 297 297 298 298 300 300 301 301 302 303 302 303 305 306 307 307 307 308 309 307 310 311 312 313 313 312 310 309 309
298 298 298 298 298 298 298 298 298 297 296 296 297 297 297 296 297 297 298 299 300 300 301 302 302 302 303 305 304 306 307 307 307 309 310 310 310 311 311 312 309 308 308
298 298 298 297 297 297 297 296 296 296 296 296 297 297 297 297 296 297 297 298 299 300 301 301 302 302 302 303 304 306 306 306 307 308 309 309 309 310 310 310 308 307 307
297 297 297 297 296 295 295 295 295 296 296 296 296 296 297 297 297 297 297 297 298 299 300 301 301 302 302 302 303 305 305 305 306 307 308 308 308 308 309 309 308 307 307
297 296 296 295 295 295 295 295 295 295 296 296 296 296 296 297 297 298 298 298 297 298 299 301 300 301 302 303 302 305 302 304 304 305 307 307 307 307 308 308 307 307 306
296 295 295 295 295 295 295 296 295 295 296 295 296 296 296 297 297 298 298 298 298 298 300 300 301 301 301 301 300 305 304 305 305 305 305 307 306 306 307 308 307 306 307
295 294 294 295 295 295 295 294 295 295 295 296 296 296 295 295 297 297 298 298 298 298 299 300 300 300 300 299 300 301 303 303 304 304 305 305 306 306 305 307 308 306 306
294 294 294 295 294 294 294 294 295 295 296 296 296 295 295 295 296 296 297 297 298 298 299 299 299 300 300 300 303 302 302 302 303 304 304 305 306 306 306 306 308 305 306
294 294 295 294 294 294 294 294 295 295 295 296 297 295 296 296 296 296 297 297 298 298 299 299 300 300 300 302 302 301 301 301 302 302 301 301 304 306 307 307 307 306 305
294 294 294 294 294 294 294 294 295 295 296 296 296 296 296 296 296 296 297 297 298 298 299 299 299 300 302 302 302 301 301 301 302 302 302 301 302 303 307 308 308 306 306
293 293 293 294 294 294 294 295 296 296 296 296 296 296 296 296 296 296 296 297 298 298 298 299 299 299 300 301 302 301 301 301 301 301 302 303 303 305 307 307 307 307 305
293 294 294 294 294 294 295 295 295 295 296 296 297 297 297 297 296 297 296 296 297 297 298 298 299 299 299 300 300 301 302 301 301 302 303 304 305 306 306 306 306 306 305
293 294 294 294 294 295 295 295 295 295 296 297 297 297 297 297 297 297 296 295 296 297 299 299 299 298 298 298 299 301 301 302 303 303 304 304 305 305 305 306 305 304 304
294 294 294 294 295 294 294 295 295 297 301 303 301 299 298 298 298 297 296 296 295 295 297 298 299 299 300 300 300 301 302 303 304 304 305 305 305 304 304 304 304 304 305
294 293 294 295 294 294 294 294 296 299 301 302 302 302 301 301 300 302 304 298 298 298 298 299 299 299 300 300 300 301 302 303 304 304 305 305 305 305 305 304 304 304 303
293 294 294 293 293 294 293 294 297 299 299 300 301 301 301 300 299 300 303 299 299 301 299 300 299 300 300 300 300 300 301 303 304 304 304 304 305 305 303 303 303 303 303
293 294 293 293 293 293 294 298 299 299 299 299 299 300 300 300 299 299 298 299 300 300 299 298 298 298 299 300 301 301 301 301 303 303 303 303 303 302 302 302 303 303 303
293 293 293 293 293 294 296 298 298 299 298 298 298 297 298 298 298 297 296 296 296 296 295 295 295 296 296 297 298 299 299 300 300 301 301 301 301 302 302 303 303 303 304
292 292 293 293 293 293 296 298 298 297 297 297 296 297 296 297 296 295 295 295 295 294 294 295 295 295 296 297 297 297 297 298 298 299 299 300 301 302 302 302 302 304 306
292 292 292 293 293 293 295 296 296 295 295 294 294 296 296 296 296 295 295 295 294 294 294 294 295 295 295 295 295 295 295 296 296 297 297 298 299 300 301 303 303 307 308
291 292 292 292 293 293 294 295 294 293 294 293 293 294 295 295 295 295 295 294 294 293 293 293 293 293 293 294 293 293 293 293 295 297 298 298 299 300 302 306 308 308 307
291 291 292 292 292 292 293 292 293 293 293 293 293 294 294 294 294 295 294 294 293 292 292 292 292 293 293 293 292 292 292 293 294 296 298 300 301 302 307 308 307 307 307
291 291 291 292 292 292 292 292 292 292 293 293 294 294 294 294 294 294 294 292 291 291 291 291 291 291 292 292 292 293 293 295 296 298 300 302 306 308 308 307 307 307 308
290 291 291 291 291 291 292 292 292 292 293 293 293 294 293 293 293 294 293 291 291 290 290 290 290 291 291 291 292 293 295 296 298 300 305 308 309 308 308 307 307 308 307
290 290 291 291 291 291 291 291 292 292 293 293 293 293 293 293 294 293 292 291 290 289 289 288 289 290 291 291 292 294 295 296 299 302 307 308 308 308 308 308 308 307 306

GFSGL_925_thetae_051.txt.gz
Theta_e
298 298 298 298 298 298 298 298 298 298 297 297 297 296 296 296 296 296 296 296 297 298 300 300 300 301 301 301 302 303 306 307 307 307 308 309 310 310 312 312 312 312 311
298 298 297 297 298 297 297 297 296 296 296 295 295 295 295 296 296 296 296 296 296 297 298 299 300 300 301 301 302 304 306 307 307 305 308 309 309 310 312 313 312 312 312
297 297 297 297 297 296 296 295 295 294 295 295 295 296 295 296 296 296 296 296 296 296 297 299 299 300 301 301 302 304 306 306 305 307 308 308 309 310 311 313 313 311 310
297 297 296 296 296 295 294 294 294 294 295 295 295 295 295 295 296 296 296 296 296 296 296 298 299 300 301 301 302 303 304 305 305 305 307 308 309 309 310 310 312 311 309
296 296 296 295 295 294 294 294 294 295 295 295 295 295 296 296 296 297 297 297 297 297 297 297 298 299 300 302 302 301 302 304 305 304 305 306 307 308 309 309 309 311 310
295 295 295 294 294 294 294 294 294 295 295 294 294 295 296 295 297 297 297 298 298 298 297 297 297 298 299 303 303 304 304 303 303 304 305 305 306 307 307 307 308 306 306
295 294 294 293 293 294 294 294 294 294 294 294 295 295 295 295 296 298 298 297 297 297 298 298 298 298 299 300 300 302 303 303 304 304 304 305 306 307 307 306 307 307 306
294 294 293 293 293 294 294 293 294 294 294 295 295 295 296 296 297 297 297 297 297 297 298 298 298 299 299 300 300 300 300 300 300 301 303 304 305 306 306 306 305 307 307
294 293 293 293 293 293 293 294 294 294 294 295 295 295 296 296 297 297 297 297 297 297 297 298 298 298 298 301 301 300 299 299 301 301 304 304 304 304 305 306 305 307 305
293 293 293 293 293 293 294 294 294 294 295 295 295 295 296 297 297 297 297 297 296 297 297 297 299 299 299 300 301 300 298 299 301 302 303 304 305 306 306 306 306 306 304
292 293 293 293 293 294 294 294 294 295 295 296 296 296 296 296 297 297 297 297 297 297 297 298 298 299 300 301 301 299 298 300 301 302 302 302 301 301 300 305 306 306 306
292 293 293 293 294 294 294 295 295 295 295 295 296 296 296 297 297 297 298 298 297 297 297 298 298 299 300 301 302 302 302 301 301 302 301 301 301 300 301 302 304 306 307
293 293 293 293 293 294 295 294 294 295 295 296 297 298 297 297 297 297 298 299 299 298 297 298 298 299 300 301 301 302 302 302 301 300 300 301 301 301 302 303 305 306 306
293 293 293 293 294 294 294 294 294 294 295 300 302 301 300 299 298 298 297 297 298 298 297 298 299 299 299 299 299 299 300 301 301 301 301 301 301 302 303 305 305 306 306
293 293 293 293 294 294 294 294 294 296 299 301 301 301 300 300 300 301 301 297 296 296 296 297 299 299 299 298 298 298 299 300 302 301 302 302 303 303 304 305 305 305 305
293 293 293 294 293 293 293 293 296 300 300 300 301 300 300 299 300 302 304 303 297 296 296 297 298 298 298 299 299 299 300 300 301 302 303 303 304 304 304 304 304 304 304
293 293 293 293 293 293 293 294 298 298 299 298 298 299 299 298 298 300 299 298 298 298 297 298 298 298 299 299 298 299 300 301 301 302 303 303 304 304 304 304 304 304 304
293 293 293 293 293 293 293 296 297 297 297 297 297 297 297 297 296 296 296 296 296 297 297 297 297 298 299 300 300 299 299 299 300 301 303 303 304 304 304 304 304 304 303
293 292 293 293 293 293 294 295 296 296 296 295 296 296 295 295 295 295 294 294 294 294 293 293 294 295 297 298 298 300 301 300 300 301 302 302 303 304 303 303 303 303 303
291 292 293 293 292 293 293 295 294 294 294 294 294 296 295 295 295 294 294 294 294 294 294 294 294 295 295 295 296 297 298 299 300 301 301 302 302 302 302 303 303 303 303
291 291 292 292 292 293 293 293 293 293 293 293 294 296 295 295 294 294 293 293 292 292 292 292 293 293 293 294 294 295 296 297 298 299 299 301 301 302 302 302 302 303 303
291 291 291 292 292 292 293 292 292 292 292 293 294 294 294 294 294 293 292 292 291 291 291 291 292 292 292 292 292 292 293 294 296 297 298 298 299 299 300 300 301 302 301
290 291 291 291 292 292 292 292 292 292 293 293 293 293 293 293 292 292 291 291 290 290 290 290 291 291 292 292 292 292 292 292 295 296 298 298 299 300 300 300 301 303 307
290 290 291 291 291 291 291 291 292 292 293 293 293 293 293 293 292 291 291 290 289 288 289 290 290 290 291 292 292 293 294 294 295 297 298 299 299 301 301 305 307 307 307
290 290 290 291 291 291 291 291 292 292 292 292 292 293 293 292 291 291 290 289 288 288 288 289 290 290 291 292 293 294 296 297 298 299 300 301 303 306 307 307 307 307 307
290 290 290 290 291 291 291 291 292 292 292 292 293 293 292 292 291 290 289 289 288 288 288 289 290 290 290 291 293 295 297 299 301 303 305 306 307 306 307 307 307 306 306

GFSGL_925_thetae_054.txt.gz
Theta_e
297 297 297 297 297 297 297 296 296 296 295 295 294 294 295 295 295 295 295 296 296 296 296 296 296 298 299 299 299 300 302 303 304 304 305 306 307 308 308 311 312 313 312
297 297 296 296 296 296 296 296 295 294 294 294 294 294 294 294 295 295 295 296 296 296 296 295 296 296 298 299 299 300 301 303 304 303 306 306 307 307 308 310 312 312 312
296 296 296 296 295 295 295 294 293 294 294 294 294 294 294 294 295 295 295 295 295 295 296 296 296 296 297 299 299 299 300 301 303 304 305 306 306 307 308 310 312 312 312
296 296 295 295 294 294 294 293 293 293 293 294 294 294 294 295 295 295 295 295 295 296 296 296 296 296 296 298 299 300 300 301 303 304 305 304 304 307 308 309 311 312 311
296 295 295 294 294 293 293 293 293 294 294 293 294 294 294 294 294 295 296 296 297 297 297 297 296 296 297 298 299 300 300 301 302 303 305 304 304 306 308 309 310 311 308
295 294 294 294 293 292 292 293 293 293 294 293 294 294 294 294 295 296 297 297 297 298 297 297 297 298 298 299 300 301 301 301 301 302 303 303 303 306 307 308 308 306 306
294 294 293 293 292 292 293 293 293 293 293 294 294 294 294 295 296 297 298 298 298 298 298 297 297 297 298 298 298 299 300 304 304 302 303 304 304 305 306 306 307 307 306
294 293 292 292 292 292 293 293 293 294 294 294 294 295 295 295 296 298 298 298 298 297 296 297 297 297 297 298 298 298 299 299 299 303 303 304 304 305 306 306 306 305 306
292 292 292 292 292 293 293 293 294 294 294 294 295 295 295 295 295 297 298 298 298 297 297 296 297 297 297 299 299 299 299 300 300 301 300 300 302 302 304 305 305 305 303
291 292 292 292 292 293 293 293 294 294 294 295 295 296 296 297 296 297 298 298 297 297 296 296 297 298 298 299 300 300 299 300 299 300 303 303 304 303 305 305 305 304 303
292 291 292 292 293 293 293 293 294 295 295 295 295 296 297 297 298 298 298 299 298 297 296 296 296 298 299 300 301 300 300 300 299 299 300 302 304 304 304 305 305 305 305
291 291 292 292 293 293 293 295 294 294 294 295 296 297 299 300 300 299 299 300 300 298 297 297 297 298 299 300 301 301 301 301 299 300 302 302 301 301 300 301 304 306 305
291 292 292 293 293 294 294 294 294 294 295 295 296 299 300 300 300 300 300 300 300 300 298 297 297 298 299 300 301 302 300 302 301 300 300 301 300 300 299 300 300 302 304
291 292 292 292 294 294 294 294 294 294 296 299 300 299 299 299 298 300 301 299 299 300 299 298 298 299 299 299 299 301 301 302 300 300 300 300 301 300 301 302 302 304 305
291 292 292 293 294 293 293 293 294 296 299 299 298 299 298 298 299 301 304 299 297 297 297 298 298 299 299 299 298 298 298 299 300 300 300 300 300 301 301 302 304 304 305
292 292 293 293 293 293 293 293 294 297 298 297 298 298 297 298 298 300 302 299 298 297 296 297 297 298 298 297 297 298 298 299 299 301 301 300 301 301 302 303 304 304 304
292 293 292 293 293 293 293 293 295 296 296 295 297 297 297 297 296 297 297 298 297 297 296 296 296 296 297 297 297 298 298 299 299 300 300 301 302 303 302 303 304 304 304
292 291 292 293 293 293 293 293 295 295 295 294 295 296 296 296 295 295 294 294 293 294 294 296 297 298 299 299 299 299 298 298 300 300 301 302 301 302 304 304 304 303 303
291 291 292 293 292 293 293 293 294 293 294 294 295 295 294 294 294 294 292 293 293 292 292 293 295 295 296 297 298 299 299 298 298 299 300 300 301 302 303 303 303 304 304
290 291 293 292 292 292 293 293 293 293 293 294 295 295 294 294 293 293 292 292 292 292 292 292 292 292 294 295 296 297 299 300 300 299 299 300 302 303 303 303 303 304 304
290 290 292 292 292 292 292 292 292 292 293 294 294 294 294 292 292 291 291 291 290 290 290 291 291 292 292 292 293 294 296 298 300 300 300 301 301 302 302 303 303 304 303
290 290 291 291 292 292 292 292 291 292 293 293 293 293 293 292 291 291 290 289 289 289 289 290 290 291 291 291 291 292 293 295 297 299 300 300 301 302 303 303 303 303 303
290 290 290 291 291 291 291 291 292 292 293 293 293 293 291 291 291 290 289 288 288 288 289 289 290 290 291 292 291 292 292 294 296 297 299 300 300 301 301 301 301 301 301
290 290 290 290 291 291 291 291 292 292 292 292 293 292 291 291 290 289 288 288 288 288 289 289 289 289 291 291 292 293 293 294 295 296 297 299 299 299 300 299 300 300 301
289 290 290 290 291 291 291 291 291 292 292 292 292 291 291 290 290 289 289 288 288 288 288 289 289 289 290 291 293 295 296 296 296 297 298 298 299 300 300 301 301 301 305
289 289 289 290 290 290 290 291 291 291 292 292 291 291 291 290 290 290 289 288 288 288 288 288 289 289 290 291 294 297 298 298 298 299 299 300 300 301 303 305 306 306 306

GFSGL_925_thetae_060.txt.gz
Theta_e
298 297 296 296 295 295 294 294 294 293 293 292 292 292 292 292 292 293 293 293 293 293 293 293 294 294 294 294 295 295 295 296 297 298 299 299 300 300 300 300 301 305 308
296 296 295 295 294 294 294 294 293 292 292 292 292 292 292 292 292 292 292 293 294 294 294 294 294 294 294 294 294 294 294 295 296 297 298 298 299 300 300 301 300 303 307
295 295 295 294 294 294 293 292 291 292 292 291 292 292 292 292 293 293 294 294 294 294 294 294 294 294 294 294 294 294 294 294 295 296 297 299 300 300 300 302 304 303 305
295 294 294 293 293 292 291 291 291 291 291 291 292 292 292 292 293 293 294 294 294 294 294 294 294 294 294 295 295 295 295 294 295 296 297 298 299 300 301 301 303 304 305
294 293 293 293 291 291 291 291 291 291 291 292 292 293 293 293 294 294 295 296 296 296 295 295 295 296 296 296 296 295 295 294 295 296 297 298 298 300 301 302 304 304 305
293 293 292 291 292 291 291 291 291 291 291 292 293 293 293 294 295 297 298 299 299 299 298 298 297 298 298 299 299 300 299 295 295 295 297 298 298 299 301 302 303 304 305
292 291 291 291 291 290 290 290 290 291 292 293 293 294 294 294 296 298 300 300 301 300 301 299 299 298 297 298 297 298 298 299 299 298 297 297 298 299 301 302 304 305 306
291 291 291 290 290 290 290 290 291 292 293 293 294 294 295 295 297 299 300 301 301 300 300 300 299 298 297 296 297 297 296 296 297 297 298 296 298 300 301 302 303 304 305
290 291 290 290 290 290 290 291 292 293 293 294 294 295 295 295 297 299 299 299 300 300 300 300 298 298 297 298 298 297 297 297 297 298 299 299 299 301 301 302 302 303 302
290 290 290 290 290 290 291 291 292 293 294 294 295 295 295 296 297 298 300 300 300 300 301 299 299 299 297 298 298 297 297 297 298 298 298 301 300 300 303 303 302 303 302
290 290 290 290 290 291 292 292 293 293 294 294 295 295 296 297 298 298 299 300 302 302 300 299 297 298 298 298 298 298 298 298 298 299 298 300 299 301 304 304 302 303 304
290 289 290 291 291 292 292 293 293 294 294 294 295 296 297 297 296 298 299 301 303 304 302 298 297 298 298 298 298 298 299 299 299 298 299 299 299 302 303 303 304 304 304
289 290 290 291 291 292 293 293 293 294 294 295 296 297 297 296 296 297 298 300 300 301 299 298 297 297 298 299 299 300 301 301 299 298 299 299 299 302 303 303 303 303 304
289 290 290 291 292 292 292 293 293 294 294 295 296 296 297 296 296 296 297 299 298 300 299 298 299 299 299 298 299 298 300 300 300 299 298 299 299 301 303 303 303 304 304
289 289 290 290 291 292 293 293 293 293 295 296 296 297 296 295 296 295 295 298 298 298 299 298 298 298 298 297 298 296 297 298 300 299 299 298 299 299 300 301 301 302 303
289 290 290 290 291 292 292 293 293 293 294 294 296 296 295 296 295 295 293 293 296 297 295 295 295 296 296 296 296 296 294 297 299 298 298 298 298 299 299 300 300 300 302
289 290 291 290 291 292 292 293 293 293 293 293 294 295 294 294 293 294 293 292 292 293 293 294 294 295 294 296 296 296 297 297 299 299 299 299 299 299 300 301 300 300 301
290 291 290 291 292 292 292 292 293 293 293 293 293 294 293 292 292 291 291 290 290 290 291 291 292 293 295 296 296 296 296 297 297 298 299 299 299 299 300 300 300 300 301
290 290 290 291 291 291 292 292 293 292 292 293 293 292 292 290 290 289 290 289 289 290 290 290 290 291 292 293 295 296 297 296 297 298 298 300 300 300 301 301 300 301 302
290 290 290 291 291 291 292 292 292 292 292 293 292 291 292 289 289 289 289 289 289 289 289 289 289 290 290 291 292 294 296 298 297 297 297 298 300 300 300 301 301 302 301
290 289 290 290 290 291 291 292 292 292 292 292 293 291 291 289 289 289 288 288 288 288 288 288 288 289 289 290 291 292 294 296 298 297 297 298 299 300 300 301 301 302 302
289 289 289 290 290 291 291 291 291 291 292 292 291 290 291 290 289 289 289 288 288 288 288 288 288 288 288 289 290 291 292 294 297 297 297 297 297 298 299 300 302 302 303
289 289 289 290 290 290 291 290 291 291 292 291 291 290 290 290 290 288 288 287 287 287 287 288 288 288 288 288 289 290 291 293 295 297 298 298 297 297 298 301 302 302 302
288 288 289 289 290 290 290 290 290 291 291 292 291 291 290 290 289 288 287 287 287 287 287 287 287 287 288 289 289 290 292 292 294 296 298 299 298 298 298 300 302 302 302
288 288 288 289 289 289 289 289 290 290 291 291 291 291 290 289 288 287 287 287 287 287 287 287 287 288 288 290 292 292 293 293 293 296 298 299 299 298 299 301 302 302 302
288 288 288 289 289 288 289 289 289 289 290 290 290 290 288 287 287 286 287 286 286 287 287 287 288 288 290 293 295 295 294 293 293 296 298 299 300 300 300 301 302 302 302

GFSGL_925_thetae_063.txt.gz
Theta_e
298 298 297 296 295 294 294 293 293 292 292 292 292 292 292 292 293 293 293 293 293 294 294 294 294 294 294 295 295 295 295 296 298 297 296 297 298 299 300 301 302 302 302
297 296 295 295 294 293 293 292 291 291 291 292 292 292 292 292 293 293 293 293 293 294 294 294 294 294 294 294 295 295 295 295 296 297 296 297 297 298 299 300 301 301 301
295 295 294 294 293 293 292 291 291 291 291 292 292 292 292 293 293 293 293 294 294 294 294 294 295 295 295 294 294 295 295 295 295 296 296 296 297 297 299 300 302 302 302
295 294 293 293 292 291 291 291 291 291 291 292 292 292 292 293 293 294 294 294 295 295 295 295 295 295 295 295 295 295 295 295 296 296 296 296 297 298 299 299 300 301 303
294 293 292 292 291 291 290 290 291 291 291 292 292 292 293 294 294 295 296 297 297 297 297 297 297 296 296 297 295 295 296 296 296 296 296 297 298 298 299 300 301 301 302
293 292 291 291 290 290 290 290 291 291 292 292 292 293 294 294 295 297 299 299 299 300 300 300 300 300 300 300 301 300 296 297 296 296 297 297 298 298 298 299 301 302 305
292 291 290 290 290 290 290 290 291 292 292 292 293 294 294 294 296 298 300 299 299 300 300 300 300 301 300 299 299 300 300 301 300 296 296 297 297 298 298 299 300 301 303
291 290 290 290 289 290 290 291 291 292 293 293 293 294 295 295 297 298 299 299 299 299 298 299 299 300 299 300 299 298 298 298 298 298 298 298 298 298 298 299 300 301 303
290 290 290 289 289 290 290 291 292 292 293 293 294 295 295 295 296 298 298 299 299 299 299 299 300 300 300 300 300 297 297 297 297 297 298 298 298 298 298 299 301 302 301
289 289 289 289 290 290 290 291 292 292 293 293 294 295 295 296 296 298 298 298 299 300 300 300 302 301 301 300 299 299 298 297 297 297 298 298 300 300 300 300 301 301 302
290 289 289 289 290 290 291 292 293 293 293 294 294 295 295 296 297 297 298 298 299 300 301 302 301 301 301 300 299 299 298 298 298 298 298 299 298 301 300 300 302 300 301
290 289 289 289 290 290 291 292 292 293 293 294 294 295 296 296 296 296 297 297 300 300 299 298 298 298 299 299 298 299 299 299 299 299 299 298 298 299 299 301 302 301 301
289 289 289 289 291 291 291 292 292 293 293 294 294 296 296 296 295 296 296 296 297 299 299 298 297 298 298 299 298 299 299 300 300 298 298 299 299 297 300 303 303 303 303
289 288 289 290 291 291 291 292 292 293 293 294 295 296 296 295 295 296 295 294 294 297 299 298 298 298 298 299 298 297 299 299 300 299 299 300 299 299 302 302 302 301 304
288 288 289 290 290 290 291 292 292 293 294 295 295 295 294 294 295 295 295 294 294 296 297 296 297 298 298 298 298 296 297 298 300 299 300 299 299 300 302 302 303 304 304
288 289 290 291 290 291 292 292 292 293 294 294 294 295 294 293 293 293 293 293 292 292 295 295 295 296 297 297 297 297 296 297 300 300 299 300 298 299 301 301 301 303 304
288 289 290 290 290 291 291 292 292 292 293 292 293 294 294 292 291 291 292 291 290 291 290 291 293 295 296 296 296 296 295 296 298 299 299 299 299 300 301 300 300 300 304
289 290 290 290 291 291 291 291 292 293 293 293 292 292 293 291 290 290 291 289 289 289 289 290 291 292 292 294 296 297 296 296 298 298 299 299 299 301 301 301 301 301 301
289 289 290 290 291 291 291 291 292 292 292 293 292 291 292 291 290 290 290 289 289 289 289 289 289 290 291 292 294 295 296 297 297 298 299 300 300 301 301 301 300 301 301
289 290 290 290 290 290 291 291 292 292 292 292 291 291 292 291 290 289 289 289 288 288 288 288 288 289 290 290 291 293 295 298 297 298 298 300 300 300 301 301 301 301 301
289 289 290 289 290 290 291 291 291 291 292 291 291 291 291 291 290 289 288 288 288 288 288 288 288 288 289 289 290 291 293 295 298 297 298 298 300 300 301 301 300 301 301
289 288 289 289 289 290 290 290 291 291 291 291 291 291 291 290 289 288 288 287 287 287 287 287 288 288 288 288 289 290 291 293 296 297 297 298 299 299 300 301 301 301 301
288 288 288 289 289 290 289 289 290 290 291 291 291 291 291 289 288 288 287 287 287 287 287 287 287 287 288 287 288 289 290 291 294 297 297 297 297 298 298 300 301 302 303
288 288 289 289 289 289 289 289 289 290 290 291 290 291 289 288 287 287 287 287 287 287 287 287 287 287 287 287 288 289 289 291 293 295 298 297 297 297 297 299 301 302 302
288 288 288 289 289 288 288 288 289 289 290 289 290 289 288 287 287 287 287 287 287 287 287 287 287 288 288 289 289 290 290 291 292 295 297 298 298 298 298 298 300 302 302
288 288 288 289 288 289 288 288 288 288 289 288 289 288 288 287 287 287 287 287 287 287 287 287 288 289 291 293 293 293 292 291 292 294 297 298 298 298 298 298 299 302 302

GFSGL_925_thetae_066.txt.gz
Theta_e
300 300 300 300 299 298 297 297 296 295 295 294 294 294 294 295 295 296 296 296 296 296 296 296 296 296 296 295 295 295 296 296 299 298 298 299 299 299 299 300 301 302 303
299 299 299 298 298 297 297 296 295 294 294 294 294 294 295 295 296 296 296 296 296 296 296 296 296 295 296 296 295 296 296 296 296 297 297 298 298 298 299 300 301 301 302
298 298 298 298 297 296 295 294 294 293 293 293 293 294 295 295 296 296 296 296 295 295 295 296 296 296 296 296 296 296 297 296 296 296 296 296 297 297 298 299 299 300 301
298 298 297 297 295 294 294 293 293 293 293 293 294 295 295 296 296 296 296 296 296 296 297 296 297 297 297 296 296 296 297 297 296 297 297 297 296 297 298 299 300 300 301
297 297 296 295 294 293 293 293 293 293 293 294 295 295 296 296 296 296 297 297 298 299 299 298 298 298 299 299 298 297 297 297 297 298 299 298 298 298 298 299 300 300 301
297 296 295 294 293 293 292 292 293 293 294 295 295 295 295 296 296 297 298 299 300 300 300 300 300 300 301 302 303 303 302 298 298 299 299 300 298 297 299 299 299 300 302
296 294 294 293 293 292 292 292 293 294 294 294 294 294 295 295 296 298 299 299 299 300 300 300 300 299 300 300 301 301 302 302 301 299 299 299 298 298 299 299 300 300 301
294 294 293 292 292 292 292 293 293 294 294 294 294 294 295 295 297 298 299 299 299 299 299 299 299 299 300 300 300 300 300 300 300 300 300 297 297 298 299 300 300 300 301
294 293 292 292 292 292 292 293 293 294 294 294 294 294 295 295 297 298 298 299 298 299 298 299 299 300 301 302 302 301 300 299 298 299 299 299 298 299 299 299 300 301 302
293 292 292 292 291 292 292 293 292 293 293 294 294 294 295 295 296 297 298 298 298 298 298 300 300 301 303 305 303 301 299 298 298 298 299 298 299 299 299 299 300 301 301
292 292 292 291 291 291 292 292 292 293 293 293 294 294 295 295 296 297 297 298 297 297 297 299 298 299 301 301 302 300 300 299 299 298 298 298 299 299 299 300 300 301 302
292 292 292 291 291 292 292 292 292 293 293 294 294 294 295 296 296 296 297 297 297 296 296 299 299 298 299 299 299 299 300 299 299 299 299 299 299 299 299 301 301 301 301
292 292 291 291 291 292 292 292 293 293 293 294 294 295 295 295 295 295 296 295 295 295 295 299 299 299 299 299 299 299 299 300 300 300 300 300 299 299 299 299 300 301 301
292 292 291 291 292 292 292 292 293 293 293 294 295 295 295 294 294 294 294 294 294 294 294 297 298 299 299 298 299 299 299 300 299 300 300 299 300 299 298 299 302 302 301
292 291 291 291 291 291 292 292 292 293 294 295 295 295 294 295 293 293 293 294 293 294 293 297 296 298 299 299 298 298 298 298 300 301 300 300 299 298 301 301 300 302 301
292 291 291 291 291 291 292 292 292 292 293 294 294 295 294 294 292 292 292 293 292 292 291 292 296 297 297 298 298 299 296 296 299 300 301 301 300 301 302 301 300 302 306
291 291 290 290 290 291 292 292 292 292 292 292 293 294 293 293 292 292 292 291 291 291 290 290 291 293 295 296 297 298 296 296 298 300 300 301 300 300 302 300 300 304 305
290 291 290 290 291 291 291 291 292 292 293 292 293 293 292 293 292 291 291 290 290 290 290 289 290 290 292 293 295 297 297 297 299 300 300 300 300 301 302 302 301 303 305
290 290 290 290 291 291 291 291 292 292 292 292 292 292 292 292 292 292 290 290 289 289 289 289 289 289 290 291 292 295 296 298 299 301 301 301 301 301 301 301 301 301 303
291 290 290 290 291 291 290 291 291 292 292 292 292 293 292 293 291 290 290 289 289 288 288 288 288 289 289 290 291 292 295 297 299 300 301 301 301 301 301 301 301 301 301
290 290 290 289 291 290 290 291 290 291 291 292 292 291 292 291 290 290 289 289 288 288 288 288 288 288 288 288 290 291 292 295 297 299 300 301 301 301 301 301 301 302 301
290 289 289 289 290 290 290 290 290 290 290 291 291 291 291 289 289 289 289 288 288 287 287 287 287 288 288 288 289 290 291 292 295 298 299 299 300 300 301 301 301 301 301
290 289 289 290 290 289 289 289 289 289 290 290 291 289 290 289 288 288 288 288 288 287 287 287 287 287 287 287 288 288 290 291 293 296 298 298 299 300 300 301 302 302 301
289 288 289 290 289 289 289 289 289 289 289 289 290 289 289 289 288 288 288 287 287 287 287 287 287 287 287 287 287 288 289 290 292 295 297 297 298 299 300 300 302 302 302
288 288 289 289 289 289 289 288 288 288 288 289 289 289 289 288 288 288 287 287 287 287 287 287 287 288 288 288 288 289 288 289 291 294 297 297 297 297 299 299 301 302 302
289 289 289 289 288 288 288 288 288 288 288 288 288 288 288 288 288 287 287 287 287 287 287 287 288 289 291 291 291 290 289 290 291 293 296 297 298 298 298 299 300 302 302

GFSGL_925_thetae_069.txt.gz
Theta_e
303 303 303 303 302 302 301 300 300 299 298 297 297 296 296 295 296 296 297 297 298 298 298 298 297 297 297 296 296 296 296 296 297 297 297 297 298 299 299 300 300 300 301
303 302 302 302 301 301 300 300 298 297 296 296 295 295 295 295 296 297 297 298 298 298 297 297 297 297 296 297 297 297 297 297 297 297 297 297 296 297 298 299 300 300 301
302 301 301 301 301 300 299 298 296 296 295 295 295 295 295 296 296 297 297 297 297 297 297 297 297 297 297 297 297 297 297 297 297 298 297 297 297 296 296 297 298 300 300
301 300 300 300 300 298 297 296 295 295 295 295 295 295 296 296 297 297 296 297 297 297 297 297 298 298 298 297 298 298 298 297 297 298 297 297 297 297 297 297 298 299 300
300 300 300 299 297 296 296 295 295 294 294 295 295 296 296 296 296 296 297 297 298 298 299 299 299 299 300 300 299 298 298 298 298 298 298 298 298 298 298 297 298 299 300
300 300 299 297 296 295 295 294 294 294 294 295 295 295 294 294 295 296 297 298 299 299 300 300 300 300 300 301 302 302 302 300 298 298 298 298 299 299 299 298 299 301 302
299 298 296 296 295 295 294 294 294 294 294 295 295 294 294 295 295 297 298 299 299 299 300 299 300 300 300 300 300 301 301 302 304 300 298 299 299 299 299 299 299 300 300
297 296 296 295 294 294 294 293 294 294 295 294 294 294 295 295 296 297 298 299 298 298 299 299 299 299 299 300 300 300 300 300 300 301 301 299 299 300 299 299 300 300 300
297 296 295 294 294 294 293 293 293 294 293 293 294 294 294 294 296 297 297 298 298 298 298 298 298 298 299 301 302 304 303 301 301 301 302 301 301 299 298 297 299 300 301
297 295 294 294 294 293 293 293 294 293 293 293 293 294 294 295 295 296 298 298 298 297 296 297 296 298 300 301 301 303 304 302 301 300 299 300 300 300 300 299 299 300 301
296 294 294 294 293 293 293 293 293 292 292 293 294 294 294 295 295 297 297 297 297 296 297 296 295 296 300 299 300 300 299 300 299 299 299 299 299 299 300 300 300 300 300
295 294 294 294 293 292 293 293 293 292 294 294 294 294 294 295 296 295 297 296 296 296 296 295 295 296 300 300 300 300 299 300 300 300 300 299 299 299 299 299 299 300 300
294 294 294 293 292 293 293 292 293 294 293 294 294 294 295 295 293 295 294 294 294 294 294 295 295 298 299 300 300 298 299 300 300 300 300 300 299 299 300 300 299 300 301
294 294 293 293 292 292 292 292 293 293 293 293 294 295 294 295 295 294 293 293 293 293 294 293 294 298 299 300 299 299 298 298 299 300 299 300 300 299 299 299 299 300 301
294 294 293 292 292 292 291 292 293 292 293 294 295 294 294 295 294 294 293 293 293 292 293 291 293 296 298 298 298 298 298 296 298 298 300 300 300 300 299 298 299 301 302
294 294 293 292 291 291 292 292 292 292 293 293 294 294 294 293 293 295 293 292 292 292 291 291 291 292 295 296 297 298 298 296 296 299 301 300 300 297 299 301 301 300 302
294 293 292 292 291 292 292 292 292 292 292 292 293 294 293 293 294 293 293 293 291 291 290 290 290 291 292 293 295 297 297 296 298 299 301 301 301 301 301 300 299 299 300
293 292 292 291 291 292 292 292 291 292 292 292 293 293 294 294 294 294 292 291 290 290 290 289 289 289 290 291 293 294 296 296 299 299 301 300 300 301 302 300 300 305 305
293 292 291 291 291 291 292 291 291 291 291 292 292 292 293 292 292 292 291 290 290 290 290 289 289 289 289 290 291 292 294 296 298 300 300 300 301 302 301 302 301 304 305
292 291 291 290 290 291 291 291 291 290 291 291 291 291 291 292 291 290 290 290 290 289 289 289 288 288 288 289 290 291 292 295 297 300 301 301 302 301 302 302 301 302 303
291 291 290 289 290 291 291 290 290 290 290 291 291 291 290 291 290 289 289 289 289 288 288 288 288 288 287 288 289 290 292 293 295 297 301 301 301 301 301 301 301 301 302
291 291 290 289 290 290 291 290 289 289 290 290 290 290 290 290 289 289 289 289 288 288 288 288 288 288 287 288 288 289 291 292 294 296 298 300 300 301 302 302 302 302 302
291 290 289 289 290 290 289 290 289 289 289 289 290 290 289 289 289 289 289 288 288 288 288 288 287 288 287 288 288 288 289 291 293 295 298 299 299 300 301 302 301 302 302
290 289 289 289 290 289 289 289 289 289 289 289 289 289 289 289 289 289 288 288 288 288 288 287 287 287 287 287 287 288 288 289 292 294 297 298 298 299 300 301 302 302 302
290 289 289 289 290 288 288 288 289 289 289 289 289 289 288 288 289 288 288 288 288 288 288 287 287 287 287 287 288 288 288 289 291 293 295 298 298 298 299 300 302 302 302
289 289 289 289 289 288 288 288 288 288 288 289 289 288 288 288 289 288 288 288 288 288 287 288 288 289 290 289 289 288 288 288 289 293 295 297 297 297 299 300 300 302 303

GFSGL_925_thetae_072.txt.gz
Theta_e
304 303 303 303 302 302 302 301 301 300 299 298 297 296 296 295 295 295 295 296 296 297 298 298 298 297 297 297 297 297 297 296 296 296 296 296 296 296 296 296 297 298 299
303 302 302 302 302 301 301 300 299 298 297 296 296 295 295 295 295 295 296 296 297 297 297 297 297 297 297 297 297 296 296 296 296 296 296 296 297 297 297 296 296 296 298
302 302 301 301 301 301 300 298 297 296 296 295 295 295 295 295 295 296 297 297 296 296 296 297 297 297 297 297 297 297 297 297 297 297 297 297 297 297 297 297 296 296 296
302 301 300 300 300 299 297 296 295 295 295 294 294 294 295 295 296 295 295 296 296 296 297 297 297 297 297 297 298 297 297 297 298 297 297 297 297 297 297 297 296 296 297
301 300 300 299 298 296 296 295 295 294 294 294 294 295 295 295 295 294 295 296 297 297 298 298 298 298 299 301 301 300 298 298 298 298 298 297 297 297 297 297 297 296 296
300 300 299 297 296 296 295 295 294 294 294 294 294 295 294 294 294 295 297 297 298 298 299 299 298 299 299 300 300 301 302 302 299 298 298 298 298 298 297 297 297 297 297
300 299 297 297 296 295 294 294 294 294 294 294 294 293 293 294 295 296 297 298 298 298 298 299 298 298 299 298 299 299 300 300 301 302 300 298 299 298 298 298 298 297 297
298 297 297 296 295 294 294 294 293 293 293 294 293 293 293 293 294 295 297 298 298 298 298 297 298 297 298 298 298 299 300 300 300 300 301 301 299 298 298 299 299 298 298
297 297 296 295 294 294 294 293 293 293 294 293 292 292 293 293 294 296 297 297 297 297 297 297 297 297 297 297 299 299 300 301 301 303 303 301 301 300 299 299 299 299 299
297 296 295 295 294 294 294 293 292 294 293 292 292 293 294 294 294 296 297 297 297 297 295 295 296 296 297 297 298 300 300 300 301 302 303 303 303 303 302 300 298 298 298
296 296 295 294 294 294 293 293 293 292 292 292 294 294 294 294 295 296 296 296 296 295 295 295 295 295 296 297 299 300 300 300 299 300 300 299 299 299 300 300 299 297 297
296 295 295 294 294 293 293 293 292 292 293 293 293 293 294 294 294 295 295 295 295 294 294 294 294 295 296 297 300 300 300 300 300 298 299 299 298 299 299 299 299 298 299
296 295 295 294 293 293 292 291 291 292 293 293 293 294 295 294 293 295 295 295 294 294 293 293 294 293 295 298 299 299 299 299 299 300 299 299 299 299 298 299 299 299 299
295 295 294 294 293 292 291 291 291 292 293 292 293 294 294 294 294 294 294 294 293 293 293 292 292 292 294 298 298 298 298 297 297 297 298 299 299 300 299 299 299 299 299
295 294 294 293 293 291 291 291 292 292 292 293 294 294 294 294 294 295 295 294 293 293 294 290 290 291 293 294 296 296 298 296 295 296 298 300 300 300 300 299 299 299 299
294 294 294 293 292 290 291 292 292 292 292 293 293 294 294 294 295 295 294 294 293 292 292 290 290 290 291 292 293 295 297 296 296 297 299 300 300 300 298 298 298 298 298
294 294 293 292 291 291 291 292 292 291 292 291 292 293 294 293 294 294 293 293 291 291 290 290 290 290 289 290 292 292 294 295 296 298 299 300 300 300 301 300 300 301 301
294 294 292 291 291 290 291 291 291 291 291 290 290 292 292 293 293 292 292 290 289 289 290 290 289 288 289 289 290 292 293 293 295 298 300 300 300 300 300 298 297 298 299
294 292 291 291 290 290 291 291 290 290 290 290 290 291 291 291 291 291 290 289 289 289 289 289 289 289 288 288 289 290 291 292 294 298 300 300 301 301 301 300 303 304 303
293 292 291 291 289 290 291 291 290 290 289 290 289 291 290 291 289 289 289 289 289 289 288 288 288 288 288 288 288 289 290 292 294 296 299 300 301 301 301 301 302 303 304
292 292 291 289 289 290 290 291 289 290 289 289 290 289 291 290 290 289 289 289 289 289 288 288 288 288 288 287 287 288 289 291 292 294 298 300 301 301 301 301 301 303 303
292 291 289 289 289 290 290 289 289 289 289 289 289 289 289 289 289 289 289 289 289 288 288 288 288 288 288 288 287 288 288 290 292 294 297 299 300 301 302 302 301 303 303
290 290 289 289 289 290 289 289 288 289 289 289 289 289 289 289 289 289 289 289 288 288 288 288 288 287 287 287 287 288 288 289 291 293 296 298 299 301 301 301 301 301 302
290 290 289 289 289 290 288 288 288 288 289 289 289 289 288 288 289 289 289 288 288 288 288 288 287 287 287 287 287 287 288 289 291 293 296 298 298 299 301 301 301 301 302
289 289 288 288 289 289 288 288 288 288 288 288 288 288 288 288 288 288 288 288 288 288 287 287 287 287 287 287 287 287 288 289 291 293 295 297 298 298 300 302 302 301 302
289 289 288 288 288 288 288 288 288 288 288 288 288 288 288 288 288 288 288 287 288 287 287 287 288 289 289 289 288 287 288 288 289 292 295 296 297 298 299 300 302 301 302

GFSGL_925_thetae_075.txt.gz
Theta_e
304 303 303 302 302 302 301 301 300 299 298 297 296 296 295 295 295 295 295 295 295 295 296 296 297 297 297 297 297 297 297 297 297 296 296 296 296 296 296 296 296 296 296
303 303 302 301 301 301 301 300 299 298 297 296 295 295 294 294 294 295 295 295 296 296 296 296 296 296 297 297 297 297 297 296 296 296 296 295 295 296 296 296 296 296 296
302 302 301 301 300 300 299 298 297 296 295 295 294 294 294 294 294 294 295 295 295 295 295 296 296 296 296 297 297 297 296 296 296 295 296 296 296 296 296 296 296 296 297
301 300 300 300 299 298 297 296 295 295 294 294 294 294 294 294 294 295 294 295 295 295 296 296 297 297 297 297 297 297 297 297 297 297 297 297 297 297 297 297 296 296 296
300 300 299 298 297 296 296 295 295 294 294 293 293 293 293 294 294 294 295 295 296 296 296 297 297 297 298 300 300 300 299 298 297 298 297 297 298 297 297 297 296 296 296
299 299 298 297 296 296 295 294 294 294 293 293 293 293 293 293 293 294 295 296 297 297 298 298 298 298 298 299 299 301 300 300 300 299 298 298 298 298 297 297 297 296 295
299 298 297 296 296 295 294 294 294 293 293 293 293 293 292 292 293 295 296 296 297 297 297 297 298 297 298 298 297 298 298 298 298 299 300 299 298 298 298 298 298 297 297
298 297 296 296 295 295 294 294 294 293 292 292 293 292 292 292 293 295 296 297 297 297 296 296 296 296 296 297 297 298 298 298 298 299 300 300 300 299 299 299 299 298 298
297 297 296 296 295 294 294 294 293 292 293 293 292 292 292 292 294 295 296 297 296 296 296 295 295 295 296 297 297 298 297 297 298 300 301 302 303 302 300 299 299 299 299
297 296 296 295 295 294 294 293 292 292 292 292 292 293 293 293 293 295 296 296 294 296 294 295 295 295 295 296 296 297 297 297 298 299 300 300 300 304 302 300 299 300 299
297 296 296 295 294 294 293 292 292 291 291 291 292 293 293 293 294 295 295 296 296 295 294 294 294 293 294 296 296 296 297 297 300 299 299 299 299 298 300 302 299 299 299
297 296 295 295 294 294 292 292 291 291 291 292 292 292 292 293 294 294 295 295 296 295 294 293 293 294 294 294 296 298 299 300 299 300 299 298 298 298 298 298 300 299 298
296 295 295 294 294 293 292 291 290 291 291 292 292 292 294 294 294 294 294 295 296 295 294 294 294 293 292 293 297 300 299 297 297 296 296 298 299 299 299 298 299 299 298
296 295 294 294 294 292 291 290 291 291 293 292 293 293 293 294 293 293 294 295 294 293 293 293 291 290 291 293 294 295 297 297 296 296 296 296 297 298 299 299 298 299 298
295 295 294 293 293 291 291 290 291 292 293 292 293 293 294 294 295 295 295 295 294 293 293 291 290 289 290 290 291 293 294 296 295 296 296 297 298 300 299 299 298 298 298
295 294 293 293 291 291 290 290 291 292 291 292 292 292 293 294 294 294 294 293 292 291 291 290 290 289 290 290 290 291 291 293 294 295 298 299 300 300 300 299 299 299 299
294 293 293 291 291 290 289 290 291 291 290 290 291 291 292 292 292 293 292 292 290 290 289 289 289 289 289 289 289 290 292 292 293 294 296 299 300 300 299 299 298 299 298
294 293 292 291 291 290 290 290 291 290 290 289 289 290 291 291 292 291 290 290 289 289 289 289 289 289 289 288 288 289 290 291 292 293 296 299 300 300 299 296 296 299 299
293 292 292 291 290 289 289 290 290 289 290 289 289 289 289 290 291 290 290 289 289 289 289 288 287 288 288 288 288 288 289 290 292 293 297 299 300 300 301 301 300 299 300
292 292 292 290 289 289 289 290 289 289 289 289 289 289 289 291 289 289 289 289 289 289 289 289 288 288 288 288 288 288 288 289 291 293 295 298 300 300 300 301 301 303 299
291 290 290 289 289 289 290 289 289 288 289 289 289 289 290 289 289 289 289 289 289 289 288 288 288 288 288 288 288 288 288 289 290 292 295 298 300 301 301 301 302 303 304
290 290 289 288 288 289 290 288 288 288 288 288 289 288 289 288 288 289 289 289 289 288 288 288 288 288 288 287 288 288 288 288 289 291 294 298 300 301 301 302 302 303 303
289 289 288 288 288 290 288 288 288 288 288 288 288 288 288 288 288 288 288 288 288 288 288 288 287 287 287 287 287 287 287 288 289 291 294 297 298 301 300 301 301 302 303
289 289 288 288 288 288 288 288 287 288 288 288 288 288 288 288 288 288 288 288 288 287 287 287 287 287 287 287 287 287 288 288 289 291 293 296 298 300 300 301 301 302 303
289 288 287 287 288 287 288 287 287 288 288 288 288 288 288 288 288 288 288 288 287 287 287 287 287 287 287 287 287 287 287 288 289 291 293 296 298 299 301 301 301 302 303
288 287 287 287 287 287 287 287 287 287 288 287 287 288 287 287 287 287 287 287 287 287 287 287 288 288 289 289 288 287 287 288 289 291 294 296 297 298 300 301 301 302 302

GFSGL_925_thetae_078.txt.gz
Theta_e
304 303 303 302 301 301 301 300 300 299 299 298 296 295 295 294 294 294 294 294 294 294 295 295 296 296 296 296 296 297 297 297 297 296 296 296 296 296 296 296 296 296 296
302 302 302 301 301 300 300 300 299 298 296 295 295 294 294 294 294 294 294 294 294 295 295 294 294 295 295 295 296 296 296 296 296 296 296 296 296 296 296 296 296 296 296
302 301 301 300 300 300 298 297 296 295 295 294 294 293 293 293 293 293 294 294 294 294 295 295 295 295 295 295 296 296 296 296 296 296 296 296 295 295 295 295 296 296 296
301 300 300 299 298 297 296 296 295 295 294 294 293 293 293 293 293 293 293 294 294 295 295 295 295 296 296 296 296 296 296 296 296 296 296 296 296 296 296 296 295 296 296
299 299 299 298 297 296 296 295 294 294 293 293 293 292 292 293 293 293 294 294 295 295 296 297 297 297 298 298 298 297 297 297 297 297 297 297 297 297 297 297 296 296 296
299 299 298 297 296 296 295 295 294 294 293 293 292 292 292 293 293 293 294 295 296 296 296 296 297 298 297 298 299 299 300 300 300 299 299 297 298 298 298 298 297 297 297
299 298 297 296 296 295 295 294 294 294 293 292 292 292 293 292 292 294 295 296 296 297 296 296 296 296 296 296 296 297 297 297 298 299 299 299 299 299 298 298 298 298 297
298 297 297 296 296 295 294 294 294 293 292 292 292 292 292 292 293 294 295 296 296 296 296 295 295 295 294 295 296 296 297 297 297 297 297 297 297 298 299 299 298 298 298
298 297 296 296 295 294 294 294 293 292 292 292 291 291 292 292 293 294 295 295 296 295 296 295 296 295 295 296 296 296 296 296 296 297 297 299 300 301 302 301 299 299 299
298 297 296 295 295 294 294 293 292 292 291 290 291 291 292 292 292 294 295 296 296 296 295 295 295 295 295 295 295 295 295 295 296 296 297 297 299 300 300 298 300 300 299
298 297 296 295 294 294 293 292 291 291 290 291 291 291 292 292 292 294 296 295 295 295 296 294 293 294 294 295 295 295 295 295 296 297 297 299 299 298 298 297 301 300 299
297 296 295 295 294 293 292 291 291 290 290 291 291 291 291 292 293 294 295 295 296 296 295 293 294 294 295 294 293 294 297 299 299 298 298 298 298 298 298 298 300 300 299
297 295 295 294 293 293 292 291 290 290 290 291 292 292 292 292 293 293 294 295 296 296 294 295 294 294 292 291 292 294 296 296 296 296 295 295 295 296 298 298 298 300 299
296 295 294 293 294 292 291 291 290 290 291 292 293 292 293 292 293 293 294 294 294 293 293 292 293 291 290 290 290 291 292 294 296 295 296 296 296 296 297 298 298 298 297
295 294 293 293 292 291 290 289 290 291 292 292 291 291 292 293 293 294 294 294 293 292 292 291 289 289 289 289 289 289 290 291 292 292 295 296 297 298 299 299 297 297 298
294 293 293 292 291 291 290 289 290 291 292 292 291 291 292 292 293 293 293 292 292 291 291 289 288 288 289 289 288 289 289 290 291 292 294 295 297 299 300 299 298 298 298
293 293 293 291 290 290 289 289 289 290 290 290 290 290 291 291 291 293 292 291 290 290 289 289 288 288 289 289 288 288 289 290 290 292 293 294 296 299 300 299 297 299 299
293 292 292 291 290 289 289 289 289 291 288 289 289 289 290 290 292 290 290 290 289 289 289 289 289 287 287 288 288 288 288 289 290 291 292 294 298 298 299 296 296 298 299
292 291 292 290 289 289 289 289 290 288 288 288 288 288 289 289 290 289 289 288 289 289 289 289 289 289 288 287 287 287 288 288 290 290 291 293 297 300 300 299 298 297 297
291 290 291 289 288 288 288 289 288 288 288 288 288 288 288 290 288 288 288 288 289 289 289 289 289 288 288 288 287 287 287 288 289 290 291 294 297 300 300 299 301 300 298
290 289 290 288 288 288 289 288 288 287 287 287 288 288 290 289 288 288 288 288 288 289 288 288 288 288 288 288 288 287 287 288 289 290 291 293 296 299 300 300 301 303 298
289 289 288 288 288 288 289 288 288 287 287 288 288 288 288 288 288 288 288 288 288 288 288 287 287 287 287 287 287 287 287 288 288 290 291 293 296 299 300 301 301 302 303
289 288 288 287 287 288 287 287 287 287 287 287 287 288 288 288 287 288 288 288 288 288 287 287 287 287 287 287 287 287 287 287 288 289 290 292 295 299 300 300 302 303 303
288 287 287 287 287 287 286 287 287 287 287 287 287 287 288 287 287 287 287 287 287 287 287 287 287 287 287 287 287 287 287 288 288 289 290 293 296 299 300 300 302 303 302
287 287 286 286 287 286 286 286 287 287 287 287 287 287 287 287 286 287 287 287 287 287 287 287 287 287 287 287 287 287 287 287 288 289 291 294 296 299 301 301 302 302 302
286 286 286 286 286 286 286 286 287 287 287 287 287 287 287 286 286 286 287 287 287 287 287 287 287 288 288 289 288 287 287 287 288 289 292 295 296 298 301 301 302 302 303

GFSGL_925_thetae_081.txt.gz
Theta_e
303 302 302 301 301 301 300 300 299 299 297 296 295 295 294 294 294 293 293 293 293 293 294 293 294 295 295 295 295 295 295 295 295 296 296 296 296 296 296 296 296 296 296
302 302 301 301 300 300 300 299 297 296 295 295 294 294 294 293 293 293 293 293 293 293 294 294 294 294 295 294 294 294 295 295 295 295 295 296 296 296 296 296 296 295 295
301 301 300 300 299 299 298 297 296 295 295 294 294 293 293 293 292 292 292 293 293 293 293 294 294 294 293 294 294 295 294 295 295 295 295 295 295 295 296 295 295 295 296
300 300 299 299 298 297 296 296 295 295 294 294 293 293 293 292 292 292 293 293 293 293 294 294 294 294 294 295 295 295 295 295 295 295 296 295 295 295 295 295 295 295 295
299 299 299 298 297 296 296 295 295 294 294 293 293 293 292 292 292 293 293 294 294 294 295 295 295 296 297 298 298 298 296 295 295 296 297 296 296 297 297 297 297 297 296
299 298 298 297 296 295 295 295 294 294 294 293 293 292 291 292 293 294 294 294 295 295 296 296 297 296 296 297 298 299 298 299 299 298 297 296 296 298 297 297 297 297 298
298 298 297 297 296 295 295 295 294 294 293 293 292 292 292 291 291 293 294 295 295 296 296 295 295 295 296 296 295 296 296 297 297 298 298 298 298 297 297 298 298 297 298
298 298 297 297 296 295 295 294 294 293 292 292 291 291 291 291 292 293 295 295 295 295 295 295 295 295 295 296 295 295 296 296 296 296 296 296 297 297 297 297 297 298 298
298 297 297 296 295 295 294 294 293 292 291 291 291 290 291 291 292 294 294 294 295 295 295 295 295 295 295 296 296 296 295 295 295 295 296 297 298 299 299 299 299 299 298
298 298 297 295 295 294 294 293 292 291 291 290 290 291 291 291 291 293 294 294 295 295 295 295 295 296 297 296 295 295 295 294 294 295 295 295 296 296 297 299 300 298 299
298 297 296 295 294 294 293 293 291 291 290 290 290 291 291 291 292 293 294 295 295 295 296 295 294 295 295 296 296 295 294 294 296 296 296 296 296 297 298 299 298 298 297
297 297 295 295 294 293 293 292 291 290 289 290 290 291 292 291 291 292 293 295 295 295 296 294 293 294 295 295 294 293 293 295 294 299 297 296 297 297 296 296 298 298 300
297 296 295 294 293 293 292 291 290 289 289 290 291 292 291 291 292 292 293 294 295 295 294 294 294 293 293 291 290 291 293 291 293 295 294 295 296 296 296 296 297 298 298
296 295 294 293 293 292 291 290 289 290 290 291 292 291 291 291 291 292 292 294 294 292 293 292 292 291 289 290 289 289 289 290 292 292 292 294 295 297 296 297 296 297 298
295 294 293 293 292 291 290 290 289 290 291 292 291 292 291 291 291 293 293 294 293 293 293 291 289 288 288 288 288 288 288 289 290 290 290 291 293 296 297 298 298 297 297
294 293 293 292 291 290 289 289 289 290 291 291 290 291 291 291 291 292 293 292 292 292 291 289 289 288 287 287 289 288 288 288 289 290 290 291 294 295 296 298 299 298 297
293 293 292 291 291 289 289 288 288 289 290 289 289 290 290 291 291 292 291 291 290 290 289 289 289 289 288 287 287 288 288 288 288 289 290 291 293 295 296 299 299 298 298
292 292 291 291 289 288 288 288 288 289 288 287 288 288 289 290 291 291 290 290 288 288 289 289 289 289 289 288 287 288 288 288 288 288 290 291 291 293 296 297 298 298 299
291 290 290 290 288 288 288 288 289 287 287 287 287 288 288 289 291 289 289 288 288 288 289 289 289 288 288 289 288 288 288 288 288 289 289 290 292 294 297 298 298 297 295
291 289 290 288 288 288 288 289 287 287 287 287 287 287 287 289 289 288 288 288 288 288 288 288 288 288 288 288 288 288 287 287 288 288 289 290 292 294 297 299 300 301 297
289 288 288 287 287 287 288 288 287 287 287 287 287 287 289 289 288 288 288 288 288 288 288 288 288 288 287 287 287 287 288 287 288 288 289 291 292 293 297 299 301 299 298
288 288 287 287 287 288 288 287 286 286 287 287 287 287 288 287 287 287 287 287 287 287 287 287 287 287 287 287 287 287 287 287 288 288 290 290 291 293 297 299 301 302 299
288 287 287 286 287 287 286 286 286 287 287 287 287 287 287 287 287 287 287 287 287 287 287 287 287 287 287 287 287 287 287 287 287 288 289 290 291 294 297 299 302 302 301
287 286 286 286 286 286 286 287 286 286 287 287 287 287 287 286 286 286 287 287 287 287 287 287 287 287 287 287 287 287 287 287 287 288 289 290 291 296 298 301 302 302 302
286 286 286 286 285 286 286 286 286 286 287 286 286 287 286 286 286 286 286 286 286 287 287 287 287 287 287 287 287 287 287 287 287 288 289 291 294 297 299 301 302 301 302
285 285 285 286 285 286 286 286 286 287 287 286 286 286 286 286 286 286 286 286 286 286 286 287 287 287 287 288 289 288 287 287 288 288 290 292 295 297 300 301 301 302 302

GFSGL_925_thetae_084.txt.gz
Theta_e
303 302 302 301 301 300 300 300 299 299 298 297 295 295 295 294 294 293 293 293 292 293 293 293 293 293 293 294 294 294 294 293 293 294 295 295 295 295 295 295 296 296 296
301 301 300 300 300 299 299 299 298 297 296 295 295 294 294 293 293 292 292 292 292 292 293 293 293 293 293 294 294 293 293 293 293 293 294 294 294 295 295 296 296 296 295
300 300 299 299 299 299 298 297 296 295 295 295 294 294 293 293 292 292 292 292 292 292 293 293 293 293 293 293 293 293 293 293 293 293 294 294 294 295 295 295 295 295 295
300 299 299 298 298 298 297 296 295 295 295 294 294 293 293 293 292 291 291 292 292 293 294 293 294 294 294 294 294 294 294 293 294 294 294 295 295 295 295 295 294 295 295
299 299 298 298 297 296 296 295 295 295 294 294 293 293 293 292 291 292 293 294 294 293 293 294 295 295 296 297 297 297 297 296 294 295 296 295 296 296 296 296 296 296 297
299 298 298 297 297 296 295 295 295 295 294 293 293 292 291 292 291 293 293 293 294 294 295 295 296 296 295 296 297 297 299 298 298 298 296 294 295 296 296 297 297 297 296
298 298 297 297 296 296 295 295 295 294 293 293 292 291 291 291 291 292 294 294 295 295 296 295 295 295 296 295 295 296 296 296 297 297 297 297 297 297 297 297 297 297 297
298 297 297 297 296 295 294 294 294 293 293 292 291 291 290 290 291 293 294 295 294 294 294 295 295 295 294 295 295 296 295 296 295 295 295 296 296 296 296 297 297 297 297
298 298 297 296 296 294 294 294 294 293 292 291 291 290 289 290 291 293 293 293 294 294 294 295 295 294 295 296 296 296 296 296 295 296 296 297 297 297 298 297 296 297 297
297 297 297 296 295 294 294 293 293 291 291 290 290 289 290 291 292 293 293 294 295 294 295 294 295 296 296 297 296 296 296 295 293 293 293 294 294 295 296 297 297 297 297
297 297 296 295 294 294 293 293 292 291 290 289 289 290 291 291 292 292 293 294 294 295 295 295 294 294 295 295 296 296 294 294 294 294 293 293 295 295 295 296 296 297 299
297 296 295 295 294 293 293 292 291 290 289 289 289 290 291 291 291 292 293 294 294 295 295 294 293 294 295 295 294 292 292 293 292 292 293 296 296 295 296 297 297 297 298
297 296 295 294 294 293 292 291 290 289 289 289 289 291 291 291 290 291 291 293 294 295 293 293 294 294 293 291 290 291 291 289 289 291 292 292 293 294 295 295 295 295 296
296 295 294 293 293 292 291 290 289 289 289 289 290 291 291 291 291 291 291 293 293 293 293 293 292 291 289 289 288 289 288 288 289 291 290 290 291 293 294 295 296 296 296
295 294 293 293 292 291 290 289 289 289 290 291 292 290 291 291 291 292 293 293 292 292 292 291 289 288 288 288 287 288 289 288 288 289 289 289 290 291 293 295 297 297 297
294 293 292 292 291 290 289 288 288 289 290 290 289 290 290 290 291 292 292 292 292 291 290 288 288 288 288 288 288 287 288 288 288 288 288 289 290 291 293 295 296 298 298
292 292 291 291 290 288 288 288 287 288 288 288 288 289 289 290 290 291 292 291 290 289 288 288 288 289 289 289 288 287 287 287 287 287 288 289 290 292 292 294 296 297 298
291 290 290 290 289 288 287 287 288 288 287 287 287 287 288 289 290 291 289 289 288 288 288 288 289 288 289 288 288 288 288 287 287 288 288 289 290 290 291 293 294 295 297
291 289 289 289 287 287 287 287 288 287 287 287 286 287 287 288 290 288 288 287 288 288 288 288 288 287 288 287 288 288 288 288 287 288 288 289 290 291 291 293 294 296 296
289 288 289 288 287 287 287 287 286 287 287 287 287 287 287 289 288 287 287 287 287 288 287 287 287 288 288 287 287 287 288 287 287 288 288 289 290 291 292 293 295 298 298
288 288 287 287 286 287 287 286 286 286 286 286 286 286 288 288 287 287 287 287 287 287 287 287 287 287 287 287 287 287 287 287 287 288 288 289 290 291 292 294 298 300 298
287 286 286 286 286 286 286 286 286 286 286 286 286 286 287 287 287 286 286 286 286 286 287 287 287 287 287 287 287 287 287 287 287 288 288 288 289 290 293 295 299 298 297
286 286 285 286 285 286 286 286 286 286 286 286 286 286 286 286 286 286 286 286 286 286 287 287 287 287 287 287 287 287 287 287 287 287 287 288 289 290 293 296 299 300 300
285 285 285 285 285 286 285 286 286 286 286 287 286 286 286 286 286 286 286 286 286 286 286 286 287 287 287 287 287 287 287 287 287 287 288 288 290 293 294 298 300 299 300
284 284 285 285 285 285 285 285 285 286 285 286 286 286 286 286 286 286 286 286 286 286 286 286 286 287 287 287 287 288 287 287 287 287 288 289 291 295 297 299 300 302 299
283 284 284 285 285 284 285 285 285 285 285 286 286 286 286 286 286 286 286 286 286 286 286 286 286 287 287 287 288 289 288 287 287 287 289 290 293 297 298 300 301 301 300

GFSGL_925_thetae_087.txt.gz
Theta_e
302 302 301 301 301 300 300 300 300 299 298 297 296 295 295 295 294 293 293 293 292 292 292 292 292 293 293 293 293 293 293 294 295 295 295 294 294 295 295 295 295 296 296
301 301 301 300 300 300 299 299 298 297 296 295 295 295 295 294 293 293 292 292 292 292 292 292 293 293 293 294 294 294 294 294 294 295 294 295 295 295 295 295 295 295 296
300 300 300 299 299 299 298 297 296 296 295 295 295 294 294 293 293 293 292 292 291 291 292 292 293 293 294 294 294 294 294 294 294 295 295 295 296 295 295 295 295 295 296
300 299 299 298 298 298 297 296 295 295 295 295 294 294 293 293 293 292 291 291 292 293 293 293 293 293 294 294 294 295 295 294 294 294 294 295 296 296 296 296 297 296 296
299 298 298 298 297 297 296 295 295 295 295 294 294 293 293 292 291 292 293 294 293 293 293 293 294 294 295 296 297 295 295 295 294 295 295 294 295 296 296 296 297 297 296
298 298 298 297 297 296 296 295 295 295 295 294 294 293 292 292 291 293 293 293 294 294 295 295 295 296 296 296 296 297 298 298 298 298 294 295 295 295 296 297 297 296 297
298 297 297 297 297 296 296 295 295 295 294 294 293 292 291 291 291 292 293 294 294 294 295 295 294 294 295 295 296 296 296 296 297 297 297 297 296 296 296 296 297 298 298
297 297 297 297 297 296 295 294 294 294 293 292 292 291 290 290 290 292 294 294 293 293 293 294 294 295 295 295 295 295 295 296 296 296 296 296 296 296 296 296 296 296 297
297 297 297 297 296 295 294 294 294 293 292 291 291 290 289 289 290 292 293 293 293 294 294 295 295 296 296 296 296 297 296 296 296 297 297 297 297 296 296 297 297 297 297
297 297 297 296 295 294 294 294 293 292 291 290 290 289 289 290 291 292 293 293 293 294 294 294 294 295 296 296 296 296 296 296 294 294 294 294 295 294 295 296 296 295 296
297 296 296 296 295 294 293 293 292 291 290 289 289 289 290 290 291 292 293 293 294 294 294 294 294 294 295 295 296 295 294 294 294 294 293 293 292 295 294 295 296 296 297
297 296 295 295 294 293 293 292 291 290 289 289 289 290 290 291 291 291 292 293 294 294 295 294 293 294 295 296 294 293 292 293 291 291 291 291 292 294 295 296 296 296 296
296 295 295 294 293 293 292 290 289 289 289 289 290 290 290 291 290 291 291 293 294 294 293 293 294 292 292 291 291 291 292 290 289 289 290 291 291 292 293 294 295 295 296
296 295 294 293 293 292 291 290 289 289 289 290 290 291 291 290 291 291 291 293 293 293 293 292 291 291 289 289 289 288 288 289 288 289 290 290 290 290 291 292 294 295 296
294 293 293 292 291 290 289 288 288 289 289 290 290 290 290 290 291 292 293 293 293 292 292 291 289 289 289 289 289 289 288 288 289 288 288 289 289 289 290 291 294 295 296
293 292 291 291 290 289 288 287 288 288 289 289 289 289 289 290 291 291 292 293 291 291 290 289 289 289 289 289 289 289 289 288 288 288 288 288 288 289 291 292 293 294 296
291 291 290 289 289 288 287 287 287 287 288 288 288 288 289 289 290 290 292 290 289 289 288 288 289 287 289 287 288 289 289 289 288 288 288 288 288 290 291 292 292 292 295
291 290 289 289 288 287 287 287 287 288 287 287 287 287 288 288 289 291 289 288 288 288 288 288 288 288 288 287 288 288 289 289 288 288 288 289 289 290 290 291 291 292 293
290 288 289 288 287 287 287 287 287 287 287 286 286 286 286 287 290 288 287 287 287 288 288 287 287 287 287 287 287 288 288 288 288 289 289 289 289 290 290 291 291 291 292
288 287 288 286 286 287 287 287 286 286 286 286 286 286 286 288 287 287 287 287 287 287 287 287 287 287 287 287 287 287 288 288 288 288 288 289 289 290 291 291 291 292 294
287 286 286 286 286 286 287 286 286 286 286 286 286 286 287 287 287 286 286 286 287 287 286 286 287 287 287 287 287 287 287 288 288 288 288 289 290 290 291 291 292 296 297
286 286 285 285 286 286 287 286 286 286 286 286 287 286 286 286 286 286 286 286 286 286 286 286 287 287 287 287 287 287 287 287 288 288 288 289 289 290 291 292 294 299 297
285 285 285 285 285 286 285 286 286 286 286 285 286 286 286 286 286 286 286 286 286 286 286 286 286 286 286 287 287 287 287 287 287 288 288 289 289 290 291 292 295 299 299
284 284 284 285 285 285 285 285 284 285 285 285 285 286 286 286 286 286 286 286 286 286 286 286 286 286 286 286 287 287 287 287 287 288 288 289 289 290 291 293 297 299 299
283 283 284 284 284 284 284 284 284 284 285 285 285 285 286 286 286 286 286 286 286 286 286 286 286 286 286 287 287 287 288 288 287 287 288 289 289 290 292 295 299 300 298
283 284 284 284 284 284 284 284 284 284 285 285 285 285 285 286 286 286 286 286 286 286 286 286 286 286 287 287 288 288 289 289 287 287 288 289 290 293 295 297 300 300 300

GFSGL_925_thetae_093.txt.gz
Theta_e
309 309 308 307 306 306 306 305 304 303 303 302 301 300 300 299 299 298 298 298 298 298 297 297 297 297 297 297 297 297 297 297 298 297 297 297 297 297 297 297 297 297 297
307 307 306 305 305 305 304 303 302 302 301 300 300 299 298 298 298 298 298 297 297 297 297 297 297 296 296 296 296 296 296 296 297 298 298 297 297 297 297 298 298 298 298
306 305 305 304 304 304 303 302 300 300 300 299 298 298 298 298 298 297 297 297 297 297 296 296 296 296 296 296 295 296 296 296 296 297 296 296 297 297 298 298 298 298 298
305 304 304 303 303 302 301 300 299 299 298 298 298 298 298 297 297 297 297 296 296 296 297 297 297 296 296 296 295 296 296 296 296 296 297 298 297 297 297 298 298 298 298
303 303 303 302 301 300 300 299 299 298 298 298 298 298 298 297 297 297 296 296 296 296 296 295 295 295 297 297 296 297 297 297 296 296 296 296 297 297 297 297 298 298 298
303 302 301 301 300 300 300 299 299 299 298 298 298 298 298 297 297 296 296 296 296 294 294 295 295 296 295 296 296 297 297 297 298 298 296 296 296 296 296 297 297 298 298
302 301 300 300 300 300 299 299 299 299 299 298 298 298 297 297 296 296 296 295 294 294 294 295 294 295 295 295 295 296 296 297 297 298 297 298 298 297 297 297 297 297 298
300 300 300 300 300 299 299 299 299 298 298 298 297 297 296 296 296 295 293 294 294 294 294 294 295 295 295 295 296 296 296 297 297 297 297 297 297 297 298 298 298 298 298
300 300 300 300 299 299 299 299 298 298 297 297 297 296 296 295 293 293 293 293 293 294 294 294 295 295 296 297 296 296 297 297 297 297 298 299 299 299 299 298 297 297 297
300 300 299 299 299 299 298 298 298 297 297 296 296 295 294 292 293 293 293 294 294 294 294 294 295 295 296 296 296 296 296 296 296 296 296 296 296 296 296 296 296 296 297
299 299 299 299 298 298 297 297 297 297 296 295 295 293 292 293 293 293 293 293 294 294 294 295 295 295 295 296 296 296 294 295 295 295 294 295 295 295 296 295 295 294 295
299 299 299 298 298 297 297 296 296 296 295 294 292 292 292 292 292 292 292 293 293 294 294 295 295 295 295 295 296 295 294 294 294 294 293 293 294 294 294 293 292 294 294
299 299 298 297 297 296 296 296 295 295 292 292 292 292 292 292 291 291 291 292 293 294 294 295 295 294 294 294 293 293 293 292 292 291 292 292 292 291 291 291 291 291 293
298 298 297 297 296 295 295 294 293 291 291 292 291 291 292 290 290 290 291 292 293 293 293 293 293 293 292 292 291 291 291 291 291 290 290 291 290 290 290 290 291 291 292
298 297 296 295 294 294 292 291 291 291 291 290 290 291 290 290 290 291 292 292 292 293 292 292 291 291 290 290 290 290 291 291 291 291 290 289 290 289 289 289 290 291 291
296 295 295 294 292 291 291 291 291 291 290 289 289 289 289 290 290 290 291 291 293 291 291 290 290 290 290 291 291 290 290 290 290 290 290 289 289 289 289 289 290 291 292
294 294 293 292 291 291 291 291 290 289 289 289 289 288 288 289 289 290 290 292 290 290 289 289 289 290 290 290 290 289 289 289 290 290 290 290 289 289 289 290 291 292 293
293 293 291 291 291 290 290 290 288 288 287 287 287 287 288 288 288 289 290 289 289 288 288 288 289 289 289 289 289 289 289 289 289 289 290 290 289 289 289 290 291 292 292
293 291 289 289 289 289 290 288 288 287 287 287 287 287 287 288 289 288 288 288 288 288 288 289 289 288 289 289 288 288 288 288 289 289 290 290 290 290 290 291 292 292 291
290 289 289 289 289 289 288 287 288 287 287 287 287 287 287 288 289 287 288 288 288 288 288 288 288 288 288 288 287 287 288 288 288 289 289 289 289 289 290 291 292 292 292
289 289 288 288 289 288 288 287 286 286 286 286 286 286 287 287 287 287 288 288 287 287 287 287 287 287 287 288 287 287 287 287 288 288 289 289 289 289 291 292 292 292 292
288 288 288 288 288 288 287 286 286 285 285 286 286 286 286 286 287 287 287 288 287 287 287 287 287 287 287 287 287 287 287 287 288 288 288 288 289 289 290 291 292 293 294
287 287 287 288 288 287 285 285 285 285 286 286 286 286 286 286 287 287 287 287 287 287 287 287 287 287 287 287 286 286 287 287 287 288 288 288 288 289 290 291 293 294 294
287 287 287 288 288 285 284 284 285 285 286 286 286 286 286 287 287 287 287 287 287 287 287 287 287 287 287 287 287 287 287 287 287 288 288 288 288 289 290 292 293 293 294
287 287 287 288 286 284 284 284 285 286 286 286 286 286 286 287 287 287 287 287 287 287 287 287 287 287 287 287 287 287 287 287 287 288 288 288 288 289 291 292 294 294 295
286 287 287 287 284 284 284 285 285 286 286 286 286 286 286 286 286 286 286 287 287 287 287 287 287 287 287 287 287 287 287 288 288 289 288 288 289 289 291 292 294 295 297

GFSGL_925_thetae_096.txt.gz
Theta_e
310 310 310 310 308 307 306 306 304 304 303 302 301 301 300 300 299 299 298 298 298 298 297 297 297 297 297 297 297 297 297 296 296 296 296 296 297 297 297 297 296 298 298
309 308 307 306 306 305 304 304 303 302 302 301 300 299 299 298 298 298 298 297 297 297 297 297 297 297 296 296 296 296 296 296 296 295 295 296 296 297 296 295 297 297 297
307 306 305 305 304 304 303 302 301 300 300 300 299 298 298 298 298 297 297 297 297 297 296 296 296 296 296 296 296 296 296 296 295 295 295 295 296 296 296 297 298 298 298
305 304 304 304 303 302 301 300 300 299 299 298 298 298 298 298 297 297 297 297 297 296 296 296 297 296 295 295 295 296 296 296 296 297 296 296 297 297 297 297 296 297 298
304 303 302 302 301 300 300 299 299 299 298 298 298 298 298 298 298 297 297 297 296 295 296 296 295 294 296 297 298 297 296 297 297 297 297 296 296 296 296 296 297 297 296
303 302 301 301 300 300 300 300 299 299 299 298 298 298 298 298 298 298 298 297 296 296 295 294 294 295 294 295 296 296 297 297 297 297 297 297 297 296 297 296 296 295 296
302 301 300 300 300 300 299 299 299 299 299 299 298 298 297 297 297 297 298 297 295 293 293 294 294 294 294 294 295 295 296 296 296 297 297 298 297 296 296 296 296 296 296
300 300 300 300 300 299 299 299 299 298 298 298 297 297 297 296 296 297 296 294 293 293 293 293 294 294 295 295 295 296 296 296 296 296 296 297 297 297 297 297 297 297 297
300 300 300 299 299 299 299 298 298 298 298 297 297 296 296 295 295 294 294 294 293 293 293 293 293 294 295 296 296 296 296 296 296 296 297 297 298 299 299 298 298 298 297
300 299 299 299 299 298 298 298 297 297 297 297 296 295 295 294 292 294 294 293 293 293 294 294 294 294 295 296 296 296 296 296 296 295 295 295 296 296 297 297 297 296 296
299 299 299 299 298 298 297 297 297 296 296 296 295 294 293 292 292 292 293 293 293 293 293 294 294 295 295 296 296 296 296 296 296 295 295 295 294 295 294 294 294 295 295
299 299 299 298 297 297 296 296 296 295 295 294 292 292 292 291 292 292 292 292 293 293 294 294 294 295 296 296 295 295 295 295 294 293 292 292 292 292 293 294 294 293 292
298 298 298 297 297 296 295 295 295 293 292 291 292 290 290 291 291 290 290 291 292 292 293 293 294 294 293 293 292 293 293 291 291 291 291 291 291 291 291 290 290 290 291
298 298 297 296 296 294 294 293 292 291 291 291 290 290 290 291 289 289 290 291 292 292 292 292 292 292 291 291 290 290 290 290 291 291 291 291 290 290 290 290 289 290 290
297 296 295 294 294 293 292 291 291 291 291 291 290 290 290 290 290 291 291 291 291 292 293 291 291 290 290 290 290 290 290 290 290 290 291 291 290 289 289 289 289 289 290
295 294 294 293 292 291 291 291 291 291 290 289 289 289 289 289 289 290 291 291 292 292 291 290 289 289 289 289 290 290 290 289 289 290 290 290 290 289 289 288 288 289 290
294 293 293 291 291 291 290 290 289 288 288 288 288 288 288 288 289 289 290 291 290 290 288 288 288 288 289 289 289 289 289 289 289 289 289 289 290 290 289 289 289 289 290
293 293 290 289 289 290 289 289 288 288 288 287 287 287 287 288 288 289 290 289 288 288 288 288 288 288 289 288 288 289 288 288 288 288 289 289 289 290 289 289 289 290 291
292 290 289 289 289 289 289 288 287 288 287 286 286 286 286 287 287 288 288 287 288 288 288 288 288 288 288 288 288 288 288 287 288 289 289 289 290 290 290 290 290 291 291
290 289 289 288 288 289 288 287 287 286 286 286 285 286 286 286 287 287 287 287 288 288 287 287 287 287 287 287 287 288 287 287 287 288 288 288 289 288 289 289 290 291 292
288 288 288 287 288 288 288 286 285 285 285 285 285 285 286 287 286 286 287 287 287 287 287 287 287 287 287 287 287 287 287 287 287 287 288 288 288 288 289 289 290 291 292
287 287 287 287 288 288 286 285 284 284 285 285 286 286 286 286 286 287 287 287 287 287 287 287 287 287 287 287 287 287 287 287 287 287 288 288 288 288 288 289 290 291 292
287 287 287 288 288 286 284 284 284 285 285 286 286 286 286 286 287 287 287 287 287 287 287 287 287 287 287 287 287 287 287 287 287 287 287 288 288 288 288 289 290 291 292
286 287 287 288 286 285 284 284 284 285 286 286 286 286 286 286 286 286 286 286 286 286 287 287 287 287 287 287 287 287 287 287 287 287 287 288 288 288 288 289 290 291 292
286 286 287 286 285 284 284 284 285 285 285 286 286 286 286 286 286 286 286 287 287 287 287 287 287 287 287 287 287 287 287 287 287 287 287 288 288 288 288 289 290 291 292
286 286 287 286 284 284 284 285 285 286 286 286 286 286 286 286 286 286 286 287 287 287 287 287 287 287 287 287 287 287 287 287 288 288 288 288 288 288 289 290 291 292 293

GFSGL_925_thetae_099.txt.gz
Theta_e
312 311 311 311 310 309 308 306 306 304 303 303 302 302 301 300 299 299 298 298 297 297 297 297 297 297 297 297 296 296 296 296 294 295 296 296 296 295 295 296 296 297 296
310 310 309 307 306 306 305 304 304 303 302 301 300 300 299 298 298 298 297 297 297 297 297 296 296 296 296 296 296 296 296 295 295 294 295 295 295 295 295 296 296 296 296
306 305 305 304 304 303 303 302 301 300 300 300 299 299 298 298 298 297 297 297 297 297 296 296 296 296 296 296 295 295 295 295 295 294 294 294 295 296 296 296 296 296 297
305 304 303 303 302 301 301 300 300 299 299 298 298 298 298 298 297 297 297 297 297 296 296 296 295 296 295 295 294 295 295 296 297 296 296 296 296 295 295 295 295 295 296
303 302 302 302 301 300 299 299 299 299 298 298 298 298 298 298 298 297 298 298 297 297 296 296 296 295 295 295 296 296 295 296 296 296 297 296 296 296 296 296 296 296 296
302 301 300 300 300 300 300 299 299 299 298 298 298 298 298 297 297 298 298 298 298 297 296 294 293 293 294 294 295 296 296 297 296 297 296 296 297 296 296 296 295 296 295
301 300 300 300 299 299 299 299 298 298 298 298 297 297 297 297 297 298 298 298 297 294 293 293 293 292 293 293 293 294 295 296 296 297 297 296 296 296 296 296 296 295 295
300 300 299 299 299 299 298 298 298 298 298 297 297 297 296 296 296 296 296 295 294 294 293 293 293 293 293 294 295 295 296 296 296 296 296 296 297 297 297 296 296 296 296
299 299 299 299 298 298 298 298 297 297 297 297 297 296 295 295 295 294 294 294 294 293 293 293 292 293 294 295 296 296 296 296 296 296 297 297 297 297 297 298 298 297 295
299 299 299 298 298 298 298 297 297 296 296 296 296 295 294 293 292 293 294 293 293 293 292 292 293 294 295 295 296 296 296 295 295 295 295 294 295 294 295 295 295 296 296
298 298 298 298 298 297 296 296 296 296 295 295 293 291 291 291 291 292 293 293 293 292 293 293 294 293 294 295 296 296 296 296 296 295 293 293 293 293 293 294 293 293 293
298 298 298 297 297 296 296 295 295 294 292 291 291 291 290 290 290 292 291 291 292 292 292 292 293 294 295 295 294 293 293 294 293 290 291 291 291 291 291 291 291 292 293
298 297 297 296 295 295 294 293 292 291 290 290 290 290 290 289 290 290 290 290 291 291 292 292 293 293 294 292 291 292 292 290 290 290 290 290 290 291 290 290 290 290 290
296 295 294 294 294 293 292 291 291 291 291 291 290 290 290 290 290 290 290 291 291 291 291 291 292 292 291 290 290 289 290 290 290 291 290 290 290 290 290 290 289 289 289
295 294 293 293 292 291 291 290 291 291 291 290 290 289 289 289 289 291 291 291 291 292 293 291 289 289 289 289 289 289 289 289 290 289 289 289 290 290 290 290 289 289 289
293 293 293 291 290 290 290 289 289 289 289 289 289 289 289 289 289 290 290 290 291 292 290 288 288 288 288 288 289 289 289 289 289 289 289 289 289 289 290 289 289 288 289
292 293 290 289 288 289 289 289 288 287 288 288 287 287 288 288 288 289 289 290 291 289 288 288 288 288 288 288 288 288 288 288 288 288 288 288 288 289 290 290 290 289 289
292 291 289 289 288 288 289 288 287 287 287 287 286 286 286 287 287 288 288 288 287 287 287 288 288 288 288 288 288 288 288 288 288 287 287 288 288 289 289 290 290 289 289
289 289 289 288 288 288 288 288 287 286 285 285 285 285 285 286 287 287 287 286 287 287 287 287 287 287 287 287 287 287 287 287 288 288 288 288 288 289 289 290 290 290 290
288 288 288 287 287 288 288 286 285 285 284 284 285 285 285 286 287 286 286 286 286 287 287 287 287 287 287 287 287 287 287 287 288 287 287 287 288 288 289 289 289 289 290
287 287 287 287 288 287 286 285 284 284 284 284 285 285 287 287 286 285 286 286 287 287 287 287 287 287 287 287 287 287 287 287 287 287 287 287 288 288 288 288 289 289 290
286 287 287 287 287 285 285 284 284 284 284 285 285 285 286 285 285 286 286 286 286 286 286 286 286 287 287 287 287 287 287 287 287 287 287 287 287 288 288 288 288 289 290
286 286 287 287 286 284 284 284 284 284 285 285 285 285 285 286 286 286 286 286 286 286 286 286 286 287 287 287 287 287 287 287 287 286 287 287 287 288 288 288 288 289 289
286 286 286 286 284 284 284 284 285 285 285 285 285 286 286 286 286 286 286 286 286 286 287 287 287 287 287 287 287 287 287 287 287 287 287 287 288 288 288 288 288 289 289
286 286 286 285 284 284 285 285 285 285 285 285 285 286 286 286 286 286 286 286 287 287 287 288 288 288 288 287 287 287 287 287 287 287 287 287 287 288 288 288 289 289 290
286 286 286 285 285 285 285 285 285 285 285 285 285 285 286 286 286 286 287 287 287 287 289 289 289 289 289 288 288 287 287 286 287 287 288 288 288 288 288 289 289 290 290

GFSGL_925_thetae_102.txt.gz
Theta_e
311 311 311 310 310 310 310 309 308 307 306 305 303 302 302 301 300 299 298 298 297 297 297 296 296 296 296 296 296 295 295 295 293 294 295 295 295 295 295 295 295 295 295
310 310 309 308 308 307 306 305 304 304 302 302 301 300 300 299 298 298 297 297 297 297 296 296 296 296 296 296 296 296 295 295 294 293 294 294 295 295 295 295 295 295 296
307 306 305 305 304 303 303 302 302 301 300 300 299 299 298 298 297 297 297 297 297 297 296 296 296 295 295 295 295 295 295 294 294 293 293 295 296 296 296 296 296 296 295
304 304 303 302 302 301 300 300 299 299 298 298 298 297 297 297 297 297 297 297 297 297 296 296 296 296 295 295 295 295 296 296 295 295 296 295 295 296 295 295 295 295 295
303 302 301 301 300 300 299 299 299 298 298 298 298 298 297 297 297 297 298 298 298 297 297 297 296 295 295 295 295 295 295 295 295 296 296 295 296 295 295 295 296 295 296
302 301 300 300 300 299 299 299 299 298 298 298 298 298 297 297 297 298 298 298 298 298 297 295 294 293 292 293 294 295 296 296 296 296 297 297 295 295 296 296 296 296 295
301 300 300 299 299 299 299 298 298 298 298 297 297 297 297 296 296 298 298 297 297 295 293 294 293 292 292 292 293 294 294 295 296 296 297 297 295 296 295 296 296 295 295
299 299 299 299 299 298 298 298 298 297 297 297 297 296 296 296 295 296 296 295 294 294 293 293 293 293 292 293 294 294 295 295 295 295 295 295 296 296 296 296 296 296 296
298 299 298 298 298 298 298 297 297 297 296 296 296 295 295 294 294 294 294 294 293 293 293 293 293 293 293 294 295 296 296 295 295 296 297 297 297 298 298 297 296 297 296
298 298 298 298 298 298 297 296 296 296 296 295 294 293 292 291 291 293 293 294 293 293 292 292 292 293 294 295 295 295 295 296 295 295 294 295 294 295 295 294 294 295 294
298 298 298 298 297 297 296 295 295 295 294 293 291 291 291 290 290 291 292 293 292 291 292 292 292 292 293 294 295 296 294 295 295 294 293 291 291 292 291 291 292 293 292
298 298 297 296 296 295 295 294 293 292 291 290 290 290 290 290 289 290 291 292 291 291 291 292 291 292 293 294 295 295 293 293 293 291 290 290 290 290 290 290 290 291 290
297 296 295 295 294 293 292 291 291 290 290 291 290 290 289 289 289 289 290 290 291 291 292 292 292 293 293 293 291 292 292 290 289 290 290 290 290 289 290 290 290 290 289
295 294 293 293 292 291 290 290 290 291 291 290 290 289 289 289 289 289 289 290 290 291 291 291 292 291 289 290 289 289 289 289 289 290 290 289 289 289 289 290 290 290 289
293 293 293 291 290 290 290 289 290 290 290 290 289 289 289 289 289 290 290 290 291 291 292 292 290 288 288 288 288 288 289 289 289 289 289 289 289 289 288 289 290 290 289
293 292 291 289 289 288 288 289 289 288 288 289 289 288 288 288 289 289 289 289 290 291 291 288 288 288 288 288 288 288 289 288 288 288 288 288 288 288 288 289 290 289 289
292 292 289 289 288 288 288 288 287 287 287 287 287 286 287 287 287 288 289 289 289 288 287 287 287 287 287 287 288 288 288 288 288 288 288 288 287 287 288 289 290 290 289
290 289 289 288 288 288 288 287 287 286 286 285 284 285 286 286 287 288 288 288 286 286 286 286 287 287 288 287 287 287 287 287 287 288 287 287 286 287 288 288 289 290 290
288 288 288 287 287 288 287 286 285 284 284 284 284 284 285 286 287 287 286 285 285 286 286 286 287 287 287 287 287 287 287 287 287 287 288 287 287 287 288 288 289 290 289
287 287 287 287 287 287 286 284 283 284 284 284 284 284 285 286 287 285 285 285 285 286 286 286 287 287 287 287 287 287 287 287 287 287 287 287 287 287 288 288 289 289 289
286 286 287 287 287 285 284 284 284 284 284 284 284 285 287 287 285 285 285 285 286 286 286 286 286 286 286 287 287 287 287 287 287 287 287 287 287 287 288 288 288 289 289
286 286 287 286 285 284 284 284 284 284 284 284 284 285 286 285 285 286 286 286 286 286 286 286 286 286 286 286 287 287 287 287 287 287 287 287 287 287 287 288 288 288 288
286 286 286 285 284 284 284 284 284 284 284 284 285 285 285 285 286 286 286 286 286 286 286 286 287 287 287 287 287 287 287 287 287 287 287 287 287 287 287 288 288 288 289
286 286 285 284 285 285 285 285 285 284 285 285 285 285 285 285 286 286 286 286 286 287 287 287 287 288 288 287 287 287 287 287 287 287 287 287 287 287 288 288 288 288 289
286 285 285 285 285 285 285 285 285 285 285 285 285 285 285 286 286 286 286 287 287 287 288 289 289 289 289 288 287 287 287 287 287 286 287 287 287 287 288 288 288 289 289
285 285 285 285 285 285 285 285 285 285 285 285 285 285 286 286 286 286 287 287 288 289 290 290 290 289 289 288 287 287 286 287 287 287 287 287 287 288 288 288 289 289 289

GFSGL_925_thetae_105.txt.gz
Theta_e
319 317 315 314 314 313 311 310 309 308 308 307 305 304 302 302 301 300 299 298 298 297 297 296 296 296 296 296 295 295 295 294 291 293 294 295 295 295 294 295 295 295 295
309 309 309 309 308 308 307 306 306 305 304 303 302 301 300 299 299 298 298 297 297 297 296 296 296 296 295 295 295 295 295 295 294 292 293 293 294 294 295 296 296 296 296
307 307 306 305 305 304 304 303 302 302 301 300 299 299 299 298 297 297 297 297 297 296 296 296 296 295 295 296 295 295 295 295 294 293 292 294 295 296 295 295 295 295 295
305 304 303 302 302 301 300 300 300 299 299 298 298 298 297 297 297 297 297 297 297 297 297 296 296 296 296 295 295 295 295 295 295 294 294 294 295 295 295 295 295 295 295
302 301 300 300 300 299 299 298 298 298 298 298 297 297 297 297 297 297 297 297 298 298 297 297 297 296 295 296 296 295 294 294 295 295 295 295 295 295 295 295 294 295 295
301 300 299 299 299 299 299 298 298 298 298 298 297 297 297 297 297 298 299 298 298 297 297 297 296 294 294 294 294 294 294 295 295 295 296 297 295 295 295 295 295 294 295
300 299 299 299 299 299 298 298 298 298 297 297 297 297 296 296 296 297 298 298 297 296 295 294 293 293 293 292 292 293 293 294 295 296 296 296 296 295 295 295 295 295 294
299 299 298 298 298 298 298 297 297 297 297 296 296 296 295 295 295 296 296 296 294 294 293 293 292 292 292 293 293 294 294 294 294 294 295 295 295 295 295 295 295 295 295
298 298 298 298 298 297 297 297 296 296 296 295 295 295 295 294 293 294 295 294 294 293 293 293 292 292 293 293 294 294 295 295 295 296 295 296 297 298 298 297 295 296 295
298 298 298 297 297 297 297 296 296 295 295 295 294 293 291 291 290 291 292 292 292 293 292 292 291 292 293 294 294 295 294 294 295 295 295 295 295 294 294 294 294 294 293
297 297 297 297 296 296 295 295 294 294 293 292 291 290 290 290 290 290 291 292 292 292 292 291 291 291 292 293 293 294 295 295 294 294 294 294 293 292 291 291 291 292 292
297 297 296 295 295 294 294 293 292 291 290 290 290 290 290 289 289 290 291 291 292 292 291 291 291 292 293 294 296 295 295 294 293 291 291 290 290 290 290 290 290 290 290
296 295 294 294 293 292 292 290 290 290 290 290 290 289 289 289 289 289 290 290 291 291 291 291 292 292 292 292 290 291 292 291 290 289 289 289 290 290 289 289 289 290 290
294 293 293 292 291 290 290 290 289 290 290 289 289 289 289 289 289 288 289 290 290 291 290 291 291 293 292 290 288 288 288 288 288 289 289 289 289 289 289 289 289 289 289
293 292 292 290 289 288 288 288 289 289 289 289 289 289 289 288 288 289 290 290 290 290 291 291 291 289 288 287 287 287 288 288 288 288 288 288 288 288 288 288 288 288 289
292 292 290 289 288 288 288 288 288 288 288 288 287 288 287 287 288 288 289 289 290 291 290 288 287 286 286 286 287 287 287 287 287 288 288 288 288 288 287 287 287 288 290
291 291 289 288 287 287 288 287 286 286 285 285 285 286 286 287 287 288 289 290 290 288 286 286 286 285 286 286 287 287 287 287 287 287 287 288 288 287 287 287 287 289 290
289 289 288 287 287 287 287 286 285 284 284 283 284 285 286 286 287 288 288 288 286 285 285 285 285 286 286 286 287 287 287 287 287 287 287 287 287 287 287 287 287 287 289
287 288 287 286 287 287 286 284 283 284 284 284 284 284 285 286 287 287 286 285 285 285 285 286 286 286 286 286 287 287 287 287 287 287 287 287 288 287 287 287 287 289 289
286 287 287 287 287 286 284 284 284 284 284 283 283 283 284 287 286 285 285 285 285 285 286 286 286 286 286 286 286 286 287 287 287 287 287 287 287 287 286 287 288 288 288
286 286 287 286 285 284 284 284 284 284 284 283 283 284 286 287 285 285 285 286 286 286 286 286 286 286 286 286 286 286 287 287 287 287 287 287 287 287 287 287 288 288 288
286 286 286 285 284 284 285 284 284 284 284 284 285 285 285 285 285 285 285 286 286 286 286 286 286 287 287 287 287 287 287 287 287 287 287 287 287 287 286 287 288 288 288
286 286 285 284 285 285 285 285 284 284 284 285 284 284 285 285 285 285 286 286 286 287 287 287 287 288 288 288 287 287 287 287 287 287 287 288 288 287 287 287 288 288 288
286 285 285 285 285 285 285 285 285 284 284 284 285 285 285 285 285 286 286 287 287 288 288 289 289 289 289 288 287 287 287 287 287 287 287 287 287 287 287 287 288 288 288
285 285 285 285 285 285 284 285 284 284 284 285 285 285 285 285 285 286 287 287 288 288 289 289 290 290 289 289 288 287 287 286 286 286 286 286 287 286 287 287 288 288 288
285 285 285 285 285 285 284 284 284 284 284 284 284 285 285 285 286 286 287 287 288 288 289 290 291 291 291 291 290 290 289 288 288 287 287 287 287 287 287 288 288 288 289

GFSGL_925_thetae_108.txt.gz
Theta_e
322 323 322 320 319 316 313 312 311 309 308 308 307 307 305 303 302 301 300 299 298 297 297 296 296 296 296 295 295 295 294 294 291 293 294 294 294 294 294 294 294 294 295
313 313 311 311 311 309 308 307 307 306 305 304 303 302 301 300 299 299 298 297 297 296 296 296 296 295 295 295 295 295 295 295 293 292 293 293 294 295 295 295 295 294 294
306 306 305 305 305 304 303 302 302 302 301 301 300 299 299 298 298 297 297 297 296 296 296 296 296 296 295 295 296 295 295 295 294 293 292 293 294 294 294 295 295 295 295
304 303 302 301 301 300 300 300 299 299 299 298 298 298 297 297 297 297 297 296 296 296 296 296 296 296 296 296 295 295 295 295 294 293 293 293 294 295 294 294 294 294 294
302 300 299 299 299 299 299 298 298 298 298 297 297 297 297 297 297 297 297 297 297 298 298 297 297 296 296 296 296 296 295 294 294 294 293 293 294 294 295 295 294 294 294
300 299 299 299 299 298 298 298 298 298 297 297 297 297 297 296 296 298 299 298 298 298 297 297 297 296 296 296 296 295 295 294 294 294 295 296 295 295 295 294 294 294 294
299 298 298 298 298 298 298 297 297 297 297 297 296 296 296 296 296 297 297 297 297 296 295 295 294 293 293 293 292 293 293 294 294 294 295 295 295 295 295 294 294 294 294
299 298 298 298 298 298 297 297 297 296 296 295 295 295 295 295 295 296 296 295 294 294 293 293 293 292 292 292 293 293 293 293 294 294 294 294 295 295 295 295 295 294 294
297 298 298 297 297 297 297 296 296 295 295 295 295 294 294 293 292 293 293 292 292 291 292 292 293 292 292 293 293 293 294 294 295 295 295 296 296 297 297 297 294 294 295
297 297 297 297 297 296 296 295 295 294 294 293 293 292 291 291 290 291 292 292 291 291 291 292 292 292 292 293 293 293 293 292 293 294 294 295 295 295 295 294 294 294 293
297 297 296 296 295 295 294 294 293 292 292 290 290 290 290 290 289 290 291 291 291 291 292 292 291 291 292 292 293 293 294 294 295 295 293 293 293 294 294 292 291 291 292
296 296 295 294 294 293 293 292 291 290 290 290 290 290 289 289 289 289 290 291 291 291 291 291 291 291 292 294 295 294 293 293 292 291 290 290 291 291 290 290 289 290 290
295 294 293 293 292 291 290 290 290 289 289 289 289 289 289 289 288 288 289 289 290 291 291 291 291 292 292 292 292 292 291 289 288 288 288 288 289 289 289 290 289 289 289
294 293 292 291 290 289 288 288 288 289 288 289 289 288 288 288 288 287 288 289 290 290 289 290 291 292 291 289 289 287 287 287 288 288 289 289 289 289 289 289 288 288 288
292 292 290 290 288 287 287 288 288 288 289 289 288 288 287 287 287 288 289 290 290 290 291 290 289 288 287 286 286 286 286 287 287 287 287 288 288 288 288 288 288 288 287
292 291 290 288 288 287 287 287 287 287 287 286 286 286 287 287 288 288 289 290 291 291 289 287 286 285 285 285 286 286 287 287 286 286 287 287 288 288 288 288 287 287 287
291 290 288 288 287 287 287 286 284 284 284 285 285 286 286 287 287 288 289 290 289 287 286 285 285 285 285 286 286 286 287 287 287 286 286 287 287 287 288 288 287 287 287
289 288 288 286 286 287 286 284 284 284 284 284 285 285 286 287 287 289 288 287 286 286 285 285 285 285 285 286 286 286 286 286 287 287 287 287 287 287 287 287 287 287 286
287 287 287 286 287 286 284 284 284 284 284 283 283 284 285 286 288 287 286 285 285 285 285 285 285 285 286 286 286 286 286 286 287 287 287 287 287 287 288 287 287 287 288
286 288 287 286 286 284 284 284 284 284 283 283 283 284 285 287 285 285 285 285 285 285 285 286 286 286 286 286 286 286 286 286 286 286 287 287 287 287 287 287 286 287 287
286 286 287 286 284 284 285 284 284 284 284 284 284 284 286 286 285 285 285 285 286 286 286 286 286 287 287 287 287 287 287 287 287 287 287 287 287 287 287 287 286 286 287
286 286 286 284 285 285 285 284 284 284 284 284 284 284 285 285 285 285 285 286 287 287 287 288 288 288 288 288 288 287 287 287 287 287 287 287 287 287 287 287 286 287 288
285 286 285 285 285 285 284 284 284 284 284 284 284 284 284 285 285 285 286 287 287 287 288 289 289 289 289 289 288 287 287 286 287 287 287 287 287 287 287 287 287 287 288
285 285 285 285 285 284 284 284 284 284 284 284 285 284 284 285 285 286 286 287 287 288 289 289 290 291 290 290 289 289 287 286 286 286 287 287 287 287 287 287 287 288 288
285 285 285 285 285 284 284 284 284 284 284 284 284 284 284 285 285 286 286 287 287 288 290 291 291 292 292 293 293 292 291 290 288 287 286 286 287 287 287 287 287 287 288
285 285 285 285 285 284 284 284 284 284 284 284 284 284 284 284 285 286 287 287 288 289 290 291 292 293 293 293 294 294 294 294 293 293 291 289 288 288 288 288 288 288 288

GFSGL_925_thetae_111.txt.gz
Theta_e
322 323 323 322 321 320 318 315 312 313 312 312 309 306 305 305 305 303 302 301 299 298 297 297 296 296 296 295 295 295 295 294 295 296 294 295 295 294 294 295 295 295 295
317 316 316 315 312 310 308 308 306 306 306 305 305 304 302 301 301 300 299 298 298 297 296 296 296 295 295 295 295 295 295 295 295 295 295 294 294 294 294 294 294 294 295
307 306 305 304 304 303 303 302 302 302 301 300 300 300 299 298 298 297 297 297 296 296 296 296 296 296 295 295 295 295 295 295 294 294 295 294 293 293 294 294 295 295 295
303 302 301 300 300 300 300 299 299 299 299 298 298 297 297 297 297 296 296 296 296 296 296 296 296 296 296 296 295 295 295 295 295 294 294 294 294 294 294 294 295 296 295
300 299 298 298 298 298 298 298 298 298 297 297 297 297 297 297 296 297 297 297 297 297 297 297 297 297 296 295 295 296 295 295 295 295 295 295 295 295 295 295 295 294 295
299 298 298 298 298 298 298 297 297 297 297 297 296 296 296 296 296 298 299 298 298 297 297 297 297 296 296 297 298 297 297 296 296 296 295 295 295 296 295 295 295 295 295
299 298 298 298 298 298 297 297 297 296 296 296 296 295 295 295 295 297 297 297 296 295 294 294 293 293 293 293 293 294 294 294 294 294 295 295 295 295 296 296 295 295 295
298 297 297 297 297 297 297 296 296 296 295 295 295 295 295 294 294 295 296 295 293 293 292 292 292 292 292 293 293 293 293 293 294 293 293 294 295 294 294 295 296 295 294
297 297 297 297 297 296 296 296 296 295 295 294 294 294 293 293 292 292 293 292 292 292 291 291 291 292 292 293 293 293 294 294 294 294 295 295 296 296 297 297 295 294 294
297 297 296 296 296 296 295 295 294 294 293 293 292 291 290 290 290 291 291 291 291 291 291 291 291 292 292 293 293 293 293 293 293 294 293 294 294 295 295 296 296 294 294
296 296 296 295 295 294 293 293 292 291 290 290 289 290 289 289 289 290 291 291 291 292 292 291 291 291 292 292 293 293 294 295 294 293 293 293 293 294 294 294 294 293 292
295 295 294 293 293 292 292 291 290 289 289 289 289 289 289 288 288 289 290 290 290 291 291 291 291 291 292 294 294 294 294 294 290 290 290 290 290 290 291 291 291 291 291
294 293 293 292 291 290 289 288 288 288 288 288 289 289 288 288 288 288 288 289 290 290 291 291 290 291 291 292 291 291 292 290 289 289 289 289 289 289 289 289 289 289 289
293 292 291 291 289 287 287 287 287 288 288 289 288 288 287 287 287 287 288 289 290 290 290 290 290 292 290 289 288 287 287 287 287 288 288 289 289 288 288 288 289 289 289
292 291 290 289 287 287 287 287 288 288 288 288 287 287 287 287 287 289 289 290 290 291 292 289 288 287 287 287 287 287 287 287 287 288 287 288 288 288 288 288 288 288 289
291 290 289 288 286 286 287 286 285 285 286 286 287 287 287 287 288 289 289 290 291 289 288 287 287 286 286 286 287 287 287 287 287 287 287 287 288 288 288 288 288 288 288
290 289 288 286 286 287 286 284 284 284 285 285 286 287 287 287 288 289 290 289 288 287 287 286 286 286 286 286 286 286 286 286 287 287 287 287 287 287 288 288 288 288 288
289 288 287 286 287 286 284 284 284 284 284 285 284 285 286 287 288 288 288 287 286 286 286 285 285 285 286 286 286 286 286 287 286 287 287 287 287 288 287 288 288 288 288
287 287 286 286 286 284 284 284 284 284 284 284 284 285 286 287 287 286 286 286 286 286 286 286 286 286 287 287 287 287 286 286 287 287 287 287 287 288 288 288 288 288 288
287 287 286 286 284 284 284 284 284 284 284 284 284 284 285 287 286 286 286 286 286 286 287 287 287 287 287 287 287 287 287 287 287 287 287 287 287 287 287 287 288 288 287
286 287 286 285 284 285 285 284 284 284 284 284 284 284 286 285 285 286 286 286 286 287 287 287 288 288 288 288 288 288 287 287 287 287 287 287 287 287 287 287 287 287 287
285 286 285 285 285 285 285 284 284 284 284 285 285 285 285 285 285 286 286 286 287 287 288 288 289 289 290 290 289 288 287 287 286 287 287 287 287 287 287 287 287 287 287
285 285 285 285 285 285 284 284 284 284 284 285 285 285 285 285 285 285 286 287 287 288 289 289 290 290 291 291 291 290 289 288 287 286 286 287 287 287 287 287 288 288 287
285 285 285 285 285 284 284 284 284 284 284 284 285 285 285 284 285 285 286 287 287 289 290 290 291 291 291 292 292 292 292 292 290 289 288 287 287 287 287 287 288 288 288
285 285 285 285 285 284 284 284 284 284 284 284 285 284 284 284 285 285 286 287 288 289 290 290 291 291 292 292 292 292 293 293 293 292 292 291 289 288 287 287 288 288 288
285 285 285 285 285 284 283 284 284 284 284 284 284 284 284 284 284 285 286 287 287 288 289 290 290 291 291 291 291 291 292 292 293 293 292 292 292 292 291 290 289 288 288

GFSGL_925_thetae_114.txt.gz
Theta_e
323 323 323 320 320 319 318 316 316 314 314 314 312 311 311 310 308 306 303 302 302 301 300 300 300 299 299 299 298 298 298 298 298 297 297 297 297 297 296 296 296 297 296
315 317 314 313 312 310 309 309 309 308 307 309 308 303 302 302 302 302 301 300 300 300 299 299 298 298 298 298 298 297 297 297 297 298 297 297 297 297 296 296 296 296 295
304 303 302 302 302 302 302 301 301 301 301 301 301 300 300 299 299 299 299 299 299 298 298 298 298 298 298 298 298 297 297 297 297 297 297 297 297 296 296 296 296 296 297
302 301 300 299 299 299 299 299 299 299 299 299 298 298 298 298 298 298 298 298 298 298 298 297 297 297 298 298 298 298 297 297 297 297 296 296 297 296 296 296 296 296 296
300 300 299 299 299 299 299 298 298 298 298 298 298 298 298 298 298 299 299 299 298 298 298 298 298 298 298 298 298 297 297 298 297 296 296 296 297 296 296 296 297 296 296
301 300 300 299 299 299 298 298 298 298 298 297 297 297 297 297 296 298 298 299 299 299 298 298 298 298 297 298 298 298 299 298 297 297 297 297 297 296 296 295 296 296 296
300 300 300 299 299 298 298 298 298 297 297 297 296 296 296 296 295 297 297 297 297 297 296 296 296 295 295 295 295 295 295 295 295 295 295 294 295 295 295 296 296 296 296
300 299 299 299 298 298 297 297 297 297 297 297 296 296 296 295 294 295 295 295 295 295 294 294 293 293 293 293 293 293 293 294 294 294 294 294 295 295 295 296 296 296 297
299 299 299 298 298 297 298 297 297 297 297 296 295 294 294 293 292 292 293 293 293 293 292 292 292 292 293 294 294 294 294 295 295 295 295 296 296 296 296 297 297 296 293
299 298 297 297 297 297 297 297 296 295 295 294 293 292 291 291 291 291 291 292 292 292 293 292 292 292 293 293 293 294 294 294 294 294 294 295 295 295 295 296 296 296 296
297 297 296 296 296 296 295 294 294 293 292 292 292 291 291 291 291 290 291 291 292 292 291 291 291 292 292 292 293 293 294 295 295 295 294 294 293 294 294 295 295 295 296
296 296 295 295 293 293 293 292 291 291 291 291 291 291 291 291 290 289 290 290 290 291 291 291 291 292 292 293 293 293 294 293 293 292 292 292 292 292 292 292 292 292 293
296 295 294 293 292 291 291 290 290 290 291 291 291 291 290 289 289 289 289 290 290 291 291 291 292 293 293 293 292 292 291 291 291 291 291 291 291 291 290 290 290 290 290
295 294 293 292 290 289 289 289 290 290 290 290 290 290 289 289 289 289 290 290 290 291 291 292 290 290 290 290 289 289 289 289 289 289 290 290 290 290 290 289 289 289 290
294 293 292 290 289 289 289 289 289 289 288 288 289 289 289 289 289 290 290 291 291 292 290 290 290 289 289 289 289 289 289 288 289 289 289 289 289 289 289 289 289 289 289
293 292 291 290 289 289 289 288 286 285 286 287 287 288 288 288 289 290 291 291 290 289 289 289 289 288 288 288 288 288 288 288 288 288 288 288 288 288 289 289 289 289 289
292 291 290 288 289 289 288 287 288 288 287 286 286 287 287 288 289 290 289 289 288 288 288 287 287 287 287 287 287 287 287 287 287 287 288 288 288 288 288 289 289 289 290
291 289 289 288 289 288 287 287 287 287 288 288 287 287 287 288 289 288 288 288 288 288 287 288 288 289 289 288 288 288 288 288 288 288 288 288 288 289 289 289 289 289 289
290 289 288 289 288 287 287 287 287 287 287 288 287 286 286 288 288 288 287 287 287 287 288 288 288 288 288 288 288 288 288 288 288 288 288 288 288 288 289 289 289 289 289
289 288 288 288 287 287 287 287 287 287 287 286 286 286 287 287 287 287 287 287 287 287 287 288 288 289 289 289 289 289 288 288 287 287 287 287 288 289 288 289 289 289 289
290 289 288 287 287 287 288 287 287 287 286 286 286 286 287 286 286 286 287 287 288 287 288 288 289 289 290 290 290 289 289 289 287 287 287 287 287 288 288 288 288 288 289
288 289 287 287 287 287 287 287 287 286 286 286 286 286 286 286 286 286 287 287 287 288 288 289 290 290 290 290 290 291 290 290 289 288 287 287 287 287 287 287 288 288 289
288 287 287 287 287 286 287 287 287 286 286 286 286 285 285 285 286 286 287 287 287 288 289 290 290 291 291 291 291 291 291 291 291 291 289 288 288 288 288 288 288 289 288
287 287 287 287 287 287 287 287 286 286 285 285 286 285 285 285 286 286 286 287 287 288 289 289 290 290 290 291 291 291 291 291 291 291 292 291 290 289 288 288 289 289 289
287 287 287 287 287 287 286 286 285 285 285 285 285 285 285 285 285 286 286 286 286 287 288 288 289 289 289 290 290 290 291 290 291 291 292 291 292 291 290 289 289 289 289
287 287 287 287 287 286 286 285 285 284 284 284 285 285 285 285 285 285 286 286 286 286 287 288 288 289 289 289 290 290 290 290 290 291 291 292 292 292 292 290 290 289 289

GFSGL_925_thetae_117.txt.gz
Theta_e
322 321 321 320 319 318 317 315 315 314 313 313 312 311 308 308 309 310 308 307 305 304 303 303 302 301 301 300 300 299 299 299 300 299 299 298 298 298 298 298 298 297 297
313 315 311 313 314 312 309 310 312 313 312 311 311 311 311 310 307 305 304 303 304 303 302 301 300 299 299 298 299 299 299 299 299 299 299 299 298 298 298 298 297 296 296
311 307 304 303 303 302 303 302 303 303 304 305 304 303 303 303 302 302 301 301 301 300 300 299 298 298 299 299 299 299 299 298 299 299 299 298 298 298 297 297 297 297 297
302 302 302 301 301 301 301 301 301 301 301 301 300 300 300 299 299 299 299 299 299 299 299 299 299 298 298 298 298 299 299 299 299 299 299 298 297 297 296 298 297 296 296
302 301 301 301 301 301 300 300 300 300 300 300 299 299 299 299 300 301 300 300 300 299 299 299 299 299 299 300 299 299 299 299 298 299 298 297 297 297 297 297 296 296 297
302 301 301 301 300 300 300 299 299 299 299 298 298 298 298 297 296 298 298 298 298 299 299 299 298 298 298 298 298 298 298 298 299 299 298 298 298 298 297 297 296 296 296
302 302 301 301 300 299 299 299 299 298 298 298 298 297 297 298 296 297 297 297 297 298 297 297 296 296 296 295 296 296 296 296 297 297 296 296 296 295 295 295 296 296 296
302 301 300 300 299 299 299 298 298 298 298 298 297 297 296 296 294 295 295 294 295 295 295 295 294 294 294 294 294 294 294 294 294 294 294 294 294 294 295 295 295 296 297
301 300 299 299 298 299 299 298 298 298 297 297 296 295 294 294 293 293 293 292 293 293 293 294 294 294 294 294 294 294 295 295 295 295 295 295 296 297 297 296 297 297 296
300 299 298 298 298 298 298 298 297 296 295 294 294 293 293 292 292 292 292 292 293 293 293 292 292 292 293 293 293 293 294 294 294 294 295 295 295 296 296 296 295 296 296
299 298 298 298 297 297 297 296 295 294 293 293 293 292 292 293 292 292 291 291 291 291 291 291 291 291 292 293 293 293 294 294 295 294 293 293 294 295 294 294 294 295 296
298 297 297 296 295 295 295 294 293 292 292 293 292 292 292 292 291 291 290 291 291 291 291 291 291 292 293 294 295 294 295 294 293 293 293 292 293 293 292 292 292 292 293
297 297 296 295 294 293 292 292 292 292 292 292 292 292 292 291 291 291 290 291 292 292 292 292 293 293 292 292 292 292 292 291 291 291 291 291 291 291 291 291 291 291 290
297 296 295 294 292 291 291 291 292 292 291 291 291 291 291 291 291 290 290 290 291 291 292 292 291 291 291 290 290 290 289 289 289 290 290 290 290 290 289 289 289 289 290
296 295 294 293 291 291 291 291 290 290 289 289 290 290 290 290 289 290 291 291 292 291 291 290 289 289 289 289 289 289 288 288 289 289 289 289 289 290 289 289 289 289 290
295 294 293 292 291 291 291 290 289 288 286 287 288 288 289 289 290 290 291 290 290 289 289 289 289 288 287 287 287 287 287 288 288 288 288 288 289 289 289 289 289 290 290
295 294 292 291 291 291 290 289 290 289 289 288 288 287 288 288 290 290 289 289 289 289 288 287 288 288 289 289 289 289 289 289 289 289 289 288 288 288 289 289 289 289 290
294 292 291 291 291 290 289 289 289 289 289 289 289 288 288 288 289 289 288 288 287 287 288 289 289 289 289 289 289 289 288 288 288 288 288 288 289 289 289 289 289 289 289
292 290 291 291 290 289 289 289 289 289 289 289 288 288 287 288 288 288 288 287 287 288 288 288 289 289 289 289 289 289 289 289 289 288 288 288 288 288 289 288 289 289 290
291 290 290 290 289 289 289 289 289 289 289 288 288 287 287 287 287 287 287 287 287 288 288 288 289 289 290 290 290 290 290 290 289 289 288 288 288 288 288 289 289 289 289
290 289 289 289 289 289 289 289 289 289 288 288 288 287 287 287 287 287 287 288 288 288 288 288 289 290 290 291 291 290 290 291 290 290 289 288 288 288 288 288 289 289 289
291 290 289 289 289 289 289 289 289 288 288 288 287 287 286 286 286 286 286 287 287 288 288 288 289 289 290 290 290 290 291 291 291 291 290 290 289 288 288 288 288 288 289
290 290 289 289 289 289 288 288 288 288 288 287 287 286 286 286 285 286 286 287 287 287 287 288 288 289 290 289 290 290 291 291 291 290 291 291 291 290 289 289 289 289 289
289 289 289 289 289 289 289 289 288 287 286 287 286 286 285 285 285 285 286 287 287 287 287 287 288 288 289 289 289 290 290 291 290 290 290 291 291 291 291 289 289 289 290
289 289 289 289 289 289 288 288 287 286 286 286 286 286 285 285 285 285 285 286 286 286 286 287 287 288 288 288 289 290 290 289 289 290 290 290 291 291 291 291 291 290 289
288 288 289 289 289 288 288 287 286 286 285 286 285 285 285 285 284 284 285 285 285 285 286 286 287 287 288 288 289 289 288 289 290 290 290 290 291 291 292 292 292 291 290

GFSGL_925_thetae_120.txt.gz
Theta_e
320 319 319 318 318 318 317 316 316 314 314 313 311 310 309 308 307 308 309 309 307 305 304 304 303 302 301 301 300 300 300 301 299 300 299 299 299 298 298 298 298 298 297
315 316 313 312 311 311 312 313 313 312 311 311 310 311 310 310 310 310 309 304 304 303 302 301 300 300 299 299 298 299 299 299 299 299 298 298 298 298 298 298 297 297 297
304 303 303 303 303 303 303 304 304 305 306 306 305 304 303 303 303 303 302 301 301 300 299 299 298 298 298 298 299 299 299 299 298 298 298 298 298 298 297 297 296 296 297
302 301 301 301 301 301 301 301 301 301 301 301 300 300 300 299 299 299 299 299 299 299 299 299 299 298 298 298 298 299 299 299 298 299 298 298 298 298 297 296 296 296 296
301 301 301 301 300 300 300 300 300 300 299 299 299 299 298 299 299 300 300 300 299 300 300 299 299 300 300 300 300 300 299 298 298 299 299 298 298 297 297 297 297 297 296
301 301 300 300 300 299 299 299 298 298 298 298 297 297 297 297 297 295 296 295 297 298 298 298 298 297 297 297 297 298 297 297 297 298 298 298 298 297 297 297 296 296 295
301 301 300 300 299 299 298 298 298 298 298 297 297 297 297 297 296 296 296 294 296 296 296 296 296 295 295 294 294 294 294 295 295 295 295 295 296 295 295 294 293 294 295
301 300 300 299 298 298 298 298 298 298 298 297 297 296 295 296 295 294 294 293 293 293 293 293 294 294 294 294 294 294 294 294 293 293 294 294 294 294 294 294 294 295 295
300 300 299 298 298 298 298 298 297 297 297 296 295 294 294 293 293 293 293 292 293 293 293 293 293 292 292 294 294 294 293 293 293 294 295 295 296 296 296 296 296 296 296
299 298 298 298 298 298 298 297 296 295 294 294 293 292 293 292 293 293 292 291 291 291 291 291 291 292 292 293 293 293 293 293 293 293 294 294 293 293 294 295 295 295 295
298 298 298 298 297 297 296 295 294 293 293 293 292 292 292 292 292 292 292 291 291 291 291 291 291 292 293 294 295 295 295 296 295 294 293 293 293 292 292 294 294 294 294
298 297 297 296 295 295 294 293 292 292 292 292 292 292 292 291 292 292 292 292 292 292 292 292 292 293 294 293 293 292 293 293 291 290 290 291 291 291 291 291 291 291 291
297 297 296 295 294 293 292 292 292 292 292 292 291 291 291 291 291 291 291 291 292 292 292 293 293 292 291 291 291 291 290 289 289 289 290 290 289 289 289 289 289 290 290
297 296 295 294 292 291 291 291 291 291 291 290 290 291 291 291 290 290 290 291 292 292 291 291 290 290 290 289 289 288 288 288 289 289 289 289 289 289 289 289 289 289 289
297 296 295 294 291 291 291 291 290 289 287 287 289 289 289 289 289 290 291 292 291 291 290 289 289 288 288 288 288 288 288 288 288 288 288 288 288 288 289 289 289 289 289
296 295 294 292 291 291 291 290 289 289 288 288 288 288 288 289 290 291 291 290 290 290 289 288 287 288 288 289 289 289 289 289 289 289 289 289 288 288 288 288 289 289 289
295 294 293 291 291 290 290 289 290 289 289 288 288 288 288 289 289 290 289 289 289 289 288 288 289 289 289 289 289 289 289 289 289 288 288 288 288 289 289 288 288 289 289
295 294 292 291 290 290 289 289 289 289 289 289 289 289 288 288 289 289 289 288 287 287 288 289 289 289 289 289 290 290 290 290 290 289 289 288 288 288 288 288 288 289 289
294 292 291 291 291 290 289 289 289 289 289 289 288 288 287 287 288 288 288 287 287 287 288 288 289 289 289 289 290 290 290 290 290 290 290 289 288 288 288 288 288 289 289
293 291 291 290 290 289 289 289 289 289 289 288 288 287 287 287 287 286 286 287 288 288 288 288 288 289 289 289 290 290 290 290 290 290 290 290 289 289 288 288 288 289 288
291 291 290 290 289 289 289 289 289 289 289 288 288 287 287 287 286 286 286 286 287 288 288 288 288 289 289 289 289 290 290 290 291 291 290 290 290 289 289 289 288 288 288
291 290 290 289 289 289 289 289 289 288 288 288 287 287 287 286 286 286 286 286 287 287 287 287 287 288 288 288 289 289 290 290 290 291 290 289 290 290 290 290 289 289 288
290 289 289 289 289 289 289 288 288 288 288 287 287 286 286 285 285 285 285 286 286 287 286 287 287 288 287 288 288 289 289 290 290 290 289 289 290 290 289 290 290 289 289
291 289 289 289 289 289 288 289 288 288 287 286 286 286 285 285 285 285 285 285 286 286 286 286 286 287 287 287 288 288 289 289 290 289 289 289 289 290 290 290 290 290 290
290 289 289 289 289 289 288 288 288 287 286 286 286 286 285 285 284 284 284 285 285 285 285 286 286 286 287 287 288 288 288 288 288 289 289 290 289 290 290 291 291 291 291
289 288 289 289 289 289 288 288 287 286 285 285 285 285 284 284 284 284 284 284 284 284 285 286 286 286 287 287 287 288 288 288 289 289 289 289 289 289 290 291 291 291 292

GFSGL_925_thetae_123.txt.gz
Theta_e
319 319 319 318 317 317 316 316 315 315 314 313 312 311 310 309 308 308 308 307 307 307 305 305 304 302 302 303 302 301 300 300 300 300 299 299 299 298 298 298 297 297 297
316 316 315 315 315 315 314 313 313 313 312 311 309 307 307 307 308 309 309 308 305 304 303 302 302 301 300 299 299 298 298 299 299 298 298 298 298 298 298 298 298 297 297
308 307 305 305 306 307 309 311 311 311 310 310 310 309 307 305 304 302 302 301 301 300 301 300 299 298 298 298 298 298 298 299 298 298 298 298 298 298 298 297 297 297 296
303 302 302 302 302 302 302 302 301 302 301 300 299 299 299 299 299 299 299 299 299 299 299 299 298 298 298 298 298 298 299 299 298 298 298 298 298 298 297 297 297 296 296
301 300 300 300 300 300 300 300 300 300 299 299 299 299 299 299 299 299 299 299 299 298 298 298 298 299 299 299 299 298 298 298 297 297 297 297 297 297 297 297 297 297 296
300 300 300 299 299 299 299 298 298 298 298 297 297 297 297 298 299 296 294 294 296 296 296 296 296 296 296 296 296 296 297 296 296 295 295 295 294 294 295 296 295 294 293
300 300 299 299 298 298 298 298 297 297 297 297 297 297 297 297 297 296 294 293 294 294 293 293 294 294 294 294 294 294 294 294 295 295 294 293 293 293 294 294 294 293 292
300 299 298 298 298 298 298 298 297 297 297 296 296 295 295 295 295 295 293 292 292 292 293 293 293 293 293 294 294 294 293 293 292 292 294 294 295 295 296 296 296 295 294
299 299 298 298 298 298 297 297 297 296 295 294 294 293 293 293 294 294 292 292 292 291 291 291 292 291 292 293 293 293 293 293 293 294 294 294 295 295 295 295 294 295 296
299 298 298 298 298 298 297 296 295 295 294 293 292 292 292 292 293 293 292 290 291 291 291 290 291 292 293 294 294 294 293 293 294 294 293 292 292 291 292 292 293 294 294
298 298 298 298 297 297 296 294 293 293 292 292 292 292 292 291 292 292 292 292 292 292 291 291 292 293 295 295 294 293 293 294 291 290 289 289 289 290 291 291 291 291 291
298 297 297 297 296 295 294 292 292 292 292 292 291 291 291 291 292 293 292 293 293 292 292 292 293 293 292 292 292 293 292 289 289 289 289 289 289 289 288 289 289 289 290
297 297 296 295 294 293 292 292 292 292 291 291 291 291 291 290 290 291 291 292 292 292 292 292 291 291 291 289 290 289 288 288 288 288 288 288 288 288 288 288 288 289 289
297 296 295 294 292 291 291 291 291 291 290 290 290 290 290 290 289 290 291 292 291 290 290 289 289 289 288 288 288 289 289 289 289 288 288 288 288 288 288 288 288 288 289
296 295 294 293 291 291 291 291 290 289 287 287 288 288 289 289 290 291 293 291 290 291 289 288 288 288 289 289 289 290 290 290 289 289 288 287 287 287 287 288 288 288 288
296 295 294 292 291 291 290 289 288 288 288 288 288 288 288 289 290 291 291 290 290 290 288 288 288 289 289 289 289 290 290 290 290 290 289 288 288 288 287 288 288 288 288
296 295 294 292 291 291 290 290 289 289 289 289 288 289 288 289 289 291 290 289 288 288 288 288 289 289 289 289 290 290 290 290 291 290 290 289 289 288 287 287 287 287 288
296 295 293 291 291 290 290 289 289 289 289 289 289 289 288 288 289 289 289 288 287 287 287 288 288 288 289 289 290 290 290 290 290 290 290 290 290 289 288 288 287 287 287
295 294 292 291 290 290 289 289 289 289 288 288 288 287 287 287 288 288 288 287 287 287 287 288 288 288 289 289 289 289 289 289 290 290 290 290 289 289 289 289 288 288 289
295 294 292 290 290 290 289 288 289 288 288 288 288 287 287 287 287 286 286 286 287 288 288 288 288 288 288 289 289 289 289 289 289 289 290 290 289 289 289 289 289 289 288
294 292 291 290 290 289 288 289 289 288 288 288 288 287 287 287 286 286 286 286 286 287 287 287 287 287 288 288 288 288 289 289 289 289 290 290 289 289 289 289 289 289 289
293 291 291 290 290 288 289 289 289 288 288 287 287 287 286 286 286 285 285 286 286 286 286 286 286 286 287 287 287 287 287 288 288 289 289 290 288 289 289 289 290 289 289
292 291 290 290 289 289 289 289 288 288 287 287 287 286 286 286 285 285 285 285 285 286 286 285 285 285 286 286 286 287 287 287 288 289 289 288 288 289 289 289 290 290 290
291 290 290 289 289 289 289 288 288 288 287 287 286 286 285 285 285 284 284 284 285 285 285 284 285 285 286 286 286 287 287 288 288 288 288 289 289 289 289 289 289 290 290
290 289 289 289 289 289 288 288 288 288 287 286 286 286 285 285 284 284 284 284 284 284 284 285 285 286 286 286 287 287 287 287 288 288 288 288 288 288 289 289 289 290 291
290 289 288 289 289 289 288 288 287 287 286 285 285 285 284 284 284 283 283 283 283 284 285 285 285 286 286 286 287 286 286 286 286 287 286 286 286 287 288 288 289 290 291

GFSGL_925_thetae_129.txt.gz
Theta_e
317 318 318 317 317 316 315 314 314 314 313 311 310 310 310 310 309 309 309 310 310 310 309 308 308 307 306 304 302 301 302 300 299 298 298 298 298 297 297 297 297 297 297
316 316 316 316 316 315 315 315 315 313 312 311 310 309 309 309 309 310 310 309 308 307 306 306 306 303 301 301 301 299 298 298 298 297 297 298 298 297 297 297 297 297 296
316 316 316 314 314 314 313 313 313 312 311 311 311 309 308 307 307 306 306 305 304 303 302 301 301 301 299 298 298 298 298 298 298 297 297 297 296 296 296 296 296 296 296
313 313 312 312 312 311 312 312 311 309 308 307 307 307 307 306 306 306 306 306 304 303 301 299 298 298 298 297 297 298 298 298 297 296 296 295 295 295 294 294 293 293 293
306 306 306 306 307 308 309 310 309 309 307 304 301 299 298 299 298 298 298 298 298 298 298 298 299 299 299 299 298 298 297 296 296 295 294 294 294 294 293 293 293 294 294
301 301 301 301 301 300 300 299 300 299 299 299 299 298 298 298 295 296 297 298 297 297 297 298 299 299 298 297 297 297 296 295 295 294 294 293 292 292 292 293 293 293 293
300 299 300 299 299 299 298 298 298 298 297 297 297 296 297 298 297 293 292 293 294 294 294 294 294 294 294 294 295 295 294 294 294 294 293 292 293 293 294 294 294 294 293
299 299 298 298 298 297 297 296 296 296 296 296 296 295 295 297 296 294 291 292 292 292 292 292 292 292 292 294 293 293 293 293 293 294 294 295 295 295 294 293 293 293 292
298 298 298 297 297 296 296 296 296 296 295 295 294 293 294 295 295 293 291 291 291 291 291 291 292 291 291 294 294 293 293 293 293 293 293 293 292 291 291 291 290 291 291
298 298 297 297 297 297 296 296 296 295 294 293 293 292 293 294 294 293 291 290 291 291 291 291 290 292 294 295 296 295 293 292 292 291 290 289 288 288 289 288 288 289 289
298 297 297 297 297 297 296 296 295 294 293 292 292 291 292 292 293 293 292 292 292 292 291 291 292 293 295 294 294 292 293 291 290 288 288 288 288 288 288 288 288 288 288
298 297 297 297 296 296 296 294 293 292 292 291 291 291 291 291 292 293 292 293 293 292 292 291 292 292 293 293 292 292 291 289 288 288 288 288 287 287 287 288 288 288 287
298 297 297 297 297 296 295 293 292 291 291 291 291 291 290 291 292 292 292 293 292 293 291 291 291 291 290 290 290 290 289 289 288 288 288 288 288 287 287 286 287 287 287
298 297 297 297 296 295 293 292 291 291 291 290 290 290 290 290 290 290 290 291 291 290 290 289 289 289 289 289 289 289 289 289 289 289 289 289 289 289 288 288 287 287 287
297 297 297 296 295 294 292 291 291 291 291 290 290 290 289 289 289 290 292 291 290 290 290 288 287 288 288 288 289 289 289 289 289 289 289 289 290 290 289 289 289 288 288
296 296 296 295 294 292 291 291 290 290 290 289 288 288 288 289 290 291 292 291 289 290 289 288 287 288 288 288 288 288 289 289 290 289 290 290 290 290 289 289 289 289 288
296 295 295 294 292 291 290 290 289 290 289 288 289 289 288 289 289 290 290 289 289 289 288 287 287 288 288 288 288 288 288 288 288 289 289 289 289 288 289 290 288 288 289
297 297 295 294 292 290 290 289 289 290 290 290 290 290 289 289 288 289 289 288 288 287 287 287 287 288 288 288 288 288 288 288 288 288 288 288 288 288 288 289 289 289 289
296 295 295 294 292 291 290 289 289 289 289 290 290 290 289 288 288 288 288 287 287 287 287 287 287 288 288 288 288 288 288 288 289 289 289 288 288 288 288 288 289 289 289
296 297 296 294 292 290 290 289 288 288 289 288 288 289 288 287 287 287 286 286 286 286 287 287 287 287 287 287 287 287 288 288 288 287 287 287 287 288 288 289 288 288 288
295 295 296 294 292 291 290 289 288 288 288 288 288 288 287 287 286 286 286 286 286 286 286 286 286 285 285 285 286 286 286 287 286 286 286 287 288 288 289 288 288 288 288
296 296 294 294 291 290 290 289 288 288 288 287 287 287 288 288 286 286 285 285 285 285 286 286 286 285 285 285 285 285 285 285 285 286 286 287 288 288 287 287 288 288 289
295 295 294 292 292 290 289 289 288 288 288 288 287 287 288 287 285 285 285 285 284 285 285 285 285 284 284 284 285 285 285 285 286 287 287 287 287 287 287 288 288 287 288
295 295 294 292 291 290 289 288 288 288 288 288 287 287 286 286 285 285 284 284 283 283 283 284 284 284 284 284 285 285 285 286 286 286 286 285 285 286 286 286 286 287 287
295 294 292 291 290 289 289 288 288 288 288 287 287 286 286 285 285 284 284 283 283 283 284 284 284 284 284 284 285 285 284 285 285 285 285 286 286 287 286 287 287 286 287
294 293 293 292 291 290 288 288 288 288 287 287 286 286 285 285 285 284 283 283 283 283 283 283 283 284 284 284 285 284 284 285 286 286 286 287 287 287 287 287 288 288 288